Temperatura ambiente en Pisuerga en Salinas de Pisuerga

 
Fecha y horaTemperatura ambiente (ºC)
01/10/2019 00:0011,35
01/10/2019 01:0010,70
01/10/2019 02:0010,05
01/10/2019 03:009,05
01/10/2019 04:009,45
01/10/2019 05:008,90
01/10/2019 06:008,80
01/10/2019 07:007,90
01/10/2019 08:006,80
01/10/2019 09:009,10
01/10/2019 10:0012,30
01/10/2019 11:0016,60
01/10/2019 12:0019,05
01/10/2019 13:0020,35
01/10/2019 14:0021,85
01/10/2019 15:0022,85
01/10/2019 16:0022,80
01/10/2019 17:0021,25
01/10/2019 18:0019,75
01/10/2019 19:0016,10
01/10/2019 20:0013,10
01/10/2019 21:0011,90
01/10/2019 22:0011,05
01/10/2019 23:0011,55
02/10/2019 00:0011,40
02/10/2019 01:0011,45
02/10/2019 02:0011,00
02/10/2019 03:009,95
02/10/2019 04:008,90
02/10/2019 05:007,75
02/10/2019 06:007,40
02/10/2019 07:005,65
02/10/2019 08:004,75
02/10/2019 09:006,40
02/10/2019 10:009,00
02/10/2019 11:0013,20
02/10/2019 12:0014,85
02/10/2019 13:0016,60
02/10/2019 14:0016,40
02/10/2019 15:0017,20
02/10/2019 16:0017,70
02/10/2019 17:0017,35
02/10/2019 18:0016,70
02/10/2019 19:0014,45
02/10/2019 20:0011,40
02/10/2019 21:0010,15
02/10/2019 22:008,40
02/10/2019 23:007,30
03/10/2019 00:007,85
03/10/2019 01:008,50
03/10/2019 02:008,90
03/10/2019 03:009,00
03/10/2019 04:009,30
03/10/2019 05:009,00
03/10/2019 06:008,85
03/10/2019 07:007,60
03/10/2019 08:006,90
03/10/2019 09:006,60
03/10/2019 10:007,35
03/10/2019 11:0010,25
03/10/2019 12:0015,55
03/10/2019 13:0019,15
03/10/2019 14:0021,20
03/10/2019 15:0022,40
03/10/2019 16:0022,35
03/10/2019 17:0022,60
03/10/2019 18:0022,15
03/10/2019 19:0019,30
03/10/2019 20:0014,95
03/10/2019 21:0012,45
03/10/2019 22:0010,00
03/10/2019 23:008,85
04/10/2019 00:007,80
04/10/2019 01:007,10
04/10/2019 02:007,10
04/10/2019 03:006,85
04/10/2019 04:006,60
04/10/2019 05:006,30
04/10/2019 06:005,50
04/10/2019 07:005,10
04/10/2019 08:005,00
04/10/2019 09:007,65
04/10/2019 10:0011,40
04/10/2019 11:0015,85
04/10/2019 12:0018,15
04/10/2019 13:0019,30
04/10/2019 14:0020,50
04/10/2019 15:0021,85
04/10/2019 16:0022,05
04/10/2019 17:0020,50
04/10/2019 18:0018,65
04/10/2019 19:0015,95
04/10/2019 20:0013,05
04/10/2019 21:0011,65
04/10/2019 22:0010,00
04/10/2019 23:008,80
05/10/2019 00:009,55
05/10/2019 01:009,95
05/10/2019 02:0010,50
05/10/2019 03:0010,90
05/10/2019 04:0010,80
05/10/2019 05:0010,65
05/10/2019 06:0010,10
05/10/2019 07:009,65
05/10/2019 08:009,00
05/10/2019 09:008,75
05/10/2019 10:009,10
05/10/2019 11:0012,95
05/10/2019 12:0017,35
05/10/2019 13:0020,75
05/10/2019 14:0022,40
05/10/2019 15:0023,10
05/10/2019 16:0023,35
05/10/2019 17:0023,30
05/10/2019 18:0023,35
05/10/2019 19:0017,75
05/10/2019 20:0014,25
05/10/2019 21:0012,40
05/10/2019 22:0011,65
05/10/2019 23:0010,50
06/10/2019 00:0010,90
06/10/2019 01:0010,85
06/10/2019 02:0010,60
06/10/2019 03:0010,35
06/10/2019 04:0010,50
06/10/2019 05:009,80
06/10/2019 06:009,10
06/10/2019 07:008,05
06/10/2019 08:008,10
06/10/2019 09:008,75
06/10/2019 10:0010,25
06/10/2019 11:0012,25
06/10/2019 12:0015,65
06/10/2019 13:0018,10
06/10/2019 14:0018,80
06/10/2019 15:0019,55
06/10/2019 16:0019,45
06/10/2019 17:0018,40
06/10/2019 18:0017,35
06/10/2019 19:0014,30
06/10/2019 20:0012,20
06/10/2019 21:0011,05
06/10/2019 22:009,50
06/10/2019 23:009,05
07/10/2019 00:009,95
07/10/2019 01:0010,40
07/10/2019 02:0010,30
07/10/2019 03:0010,30
07/10/2019 04:009,80
07/10/2019 05:008,80
07/10/2019 06:007,25
07/10/2019 07:006,20
07/10/2019 08:006,05
07/10/2019 09:008,10
07/10/2019 10:0011,60
07/10/2019 11:0015,85
07/10/2019 12:0018,70
07/10/2019 13:0020,30
07/10/2019 14:0022,35
07/10/2019 15:0023,20
07/10/2019 16:0023,30
07/10/2019 17:0023,35
07/10/2019 18:0022,65
07/10/2019 19:0019,20
07/10/2019 20:0013,90
07/10/2019 21:0011,75
07/10/2019 22:0010,55
07/10/2019 23:009,30
08/10/2019 00:008,65
08/10/2019 01:008,20
08/10/2019 02:008,50
08/10/2019 03:007,15
08/10/2019 04:007,55
08/10/2019 05:007,60
08/10/2019 06:007,40
08/10/2019 07:006,50
08/10/2019 08:006,50
08/10/2019 09:008,90
08/10/2019 10:0013,40
08/10/2019 11:0019,20
08/10/2019 12:0022,70
08/10/2019 13:0024,80
08/10/2019 14:0025,90
08/10/2019 15:0026,60
08/10/2019 16:0026,15
08/10/2019 17:0023,60
08/10/2019 18:0020,50
08/10/2019 19:0016,55
08/10/2019 20:0014,00
08/10/2019 21:0012,55
08/10/2019 22:0011,30
08/10/2019 23:0010,40
09/10/2019 00:0011,15
09/10/2019 01:0011,60
09/10/2019 02:0011,90
09/10/2019 03:0011,55
09/10/2019 04:0011,60
09/10/2019 05:0011,00
09/10/2019 06:0010,35
09/10/2019 07:009,90
09/10/2019 08:009,45
09/10/2019 09:0010,05
09/10/2019 10:0011,40
09/10/2019 11:0013,35
09/10/2019 12:0015,15
09/10/2019 13:0016,35
09/10/2019 14:0016,80
09/10/2019 15:0017,45
09/10/2019 16:0016,25
09/10/2019 17:0015,45
09/10/2019 18:0014,20
09/10/2019 19:0011,25
09/10/2019 20:009,75
09/10/2019 21:007,65
09/10/2019 22:006,10
09/10/2019 23:005,35
10/10/2019 00:004,15
10/10/2019 01:003,60
10/10/2019 02:003,40
10/10/2019 03:004,15
10/10/2019 04:005,05
10/10/2019 05:005,00
10/10/2019 06:003,90
10/10/2019 07:002,15
10/10/2019 08:001,45
10/10/2019 09:004,05
10/10/2019 10:007,70
10/10/2019 11:0012,00
10/10/2019 12:0014,50
10/10/2019 13:0016,35
10/10/2019 14:0017,40
10/10/2019 15:0019,05
10/10/2019 16:0019,50
10/10/2019 17:0019,90
10/10/2019 18:0020,05
10/10/2019 19:0015,65
10/10/2019 20:0011,65
10/10/2019 21:009,35
10/10/2019 22:007,95
10/10/2019 23:007,05
11/10/2019 00:006,10
11/10/2019 01:005,25
11/10/2019 02:005,00
11/10/2019 03:005,05
11/10/2019 04:005,30
11/10/2019 05:004,55
11/10/2019 06:003,85
11/10/2019 07:003,25
11/10/2019 08:003,30
11/10/2019 09:005,85
11/10/2019 10:0010,70
11/10/2019 11:0016,40
11/10/2019 12:0021,55
11/10/2019 13:0023,60
11/10/2019 14:0024,00
11/10/2019 15:0024,30
11/10/2019 16:0024,25
11/10/2019 17:0024,10
11/10/2019 18:0023,60
11/10/2019 19:0021,55
11/10/2019 20:0015,85
11/10/2019 21:0014,10
11/10/2019 22:0013,95
11/10/2019 23:0014,80
12/10/2019 00:0013,90
12/10/2019 01:0012,85
12/10/2019 02:0011,20
12/10/2019 03:0010,00
12/10/2019 04:009,60
12/10/2019 05:009,10
12/10/2019 06:009,60
12/10/2019 07:009,00
12/10/2019 08:0012,90
12/10/2019 09:0014,85
12/10/2019 10:0016,95
12/10/2019 11:0019,00
12/10/2019 12:0020,75
12/10/2019 13:0022,40
12/10/2019 14:0023,70
12/10/2019 15:0024,20
12/10/2019 16:0024,40
12/10/2019 17:0024,30
12/10/2019 18:0023,75
12/10/2019 19:0022,70
12/10/2019 20:0021,90
12/10/2019 21:0020,50
12/10/2019 22:0019,10
12/10/2019 23:0019,65
13/10/2019 00:0019,35
13/10/2019 01:0018,35
13/10/2019 02:0017,50
13/10/2019 03:0016,20
13/10/2019 04:0015,25
13/10/2019 05:0015,10
13/10/2019 06:0014,90
13/10/2019 07:0014,55
13/10/2019 08:0013,55
13/10/2019 09:0013,60
13/10/2019 10:0014,30
13/10/2019 11:0014,95
13/10/2019 12:0016,55
13/10/2019 13:0017,25
13/10/2019 14:0016,55
13/10/2019 15:0018,20
13/10/2019 16:0019,50
13/10/2019 17:0019,50
13/10/2019 18:0019,35
13/10/2019 19:0018,50
13/10/2019 20:0017,15
13/10/2019 21:0016,10
13/10/2019 22:0014,90
13/10/2019 23:0014,15
14/10/2019 00:0013,50
14/10/2019 01:0013,60
14/10/2019 02:0014,50
14/10/2019 03:0014,65
14/10/2019 04:0014,80
14/10/2019 05:0014,50
14/10/2019 06:0013,15
14/10/2019 07:0011,40
14/10/2019 08:0010,50
14/10/2019 09:0011,85
14/10/2019 10:0012,35
14/10/2019 11:0010,00
14/10/2019 12:0010,90
14/10/2019 13:0011,30
14/10/2019 14:0010,25
14/10/2019 15:009,50
14/10/2019 16:0010,00
14/10/2019 17:009,80
14/10/2019 18:009,10
14/10/2019 19:008,50
14/10/2019 20:007,25
14/10/2019 21:007,05
14/10/2019 22:005,90
14/10/2019 23:005,20
15/10/2019 00:004,75
15/10/2019 01:004,05
15/10/2019 02:003,20
15/10/2019 03:001,95
15/10/2019 04:000,95
15/10/2019 05:000,40
15/10/2019 06:000,10
15/10/2019 07:000,00
15/10/2019 08:000,25
15/10/2019 09:001,60
15/10/2019 10:005,05
15/10/2019 11:007,90
15/10/2019 12:009,10
15/10/2019 13:0010,40
15/10/2019 14:0011,20
15/10/2019 15:0012,25
15/10/2019 16:0010,40
15/10/2019 17:0010,70
15/10/2019 18:0010,50
15/10/2019 19:009,50
15/10/2019 20:009,40
15/10/2019 21:008,90
15/10/2019 22:008,90
15/10/2019 23:008,90
16/10/2019 00:008,80
16/10/2019 01:008,90
16/10/2019 02:009,00
16/10/2019 03:008,95
16/10/2019 04:008,90
16/10/2019 05:008,70
16/10/2019 06:008,55
16/10/2019 07:008,20
16/10/2019 08:008,20
16/10/2019 09:008,20
16/10/2019 10:008,30
16/10/2019 11:008,60
16/10/2019 12:008,90
16/10/2019 13:009,30
16/10/2019 14:0010,05
16/10/2019 15:0010,15
16/10/2019 16:0010,45
16/10/2019 17:0010,60
16/10/2019 18:0010,50
16/10/2019 19:0010,00
16/10/2019 20:0010,50
16/10/2019 21:0010,50
16/10/2019 22:0010,60
16/10/2019 23:0010,70
17/10/2019 00:0010,60
17/10/2019 01:0010,60
17/10/2019 02:0010,50
17/10/2019 03:0010,50
17/10/2019 04:0010,40
17/10/2019 05:0010,10
17/10/2019 06:009,95
17/10/2019 07:009,90
17/10/2019 08:0010,10
17/10/2019 09:0010,45
17/10/2019 10:0011,00
17/10/2019 11:0012,00
17/10/2019 12:0013,30
17/10/2019 13:0015,25
17/10/2019 14:0016,20
17/10/2019 15:0017,30
17/10/2019 16:0016,75
17/10/2019 17:0016,65
17/10/2019 18:0016,25
17/10/2019 19:0014,90
17/10/2019 20:0013,70
17/10/2019 21:0013,00
17/10/2019 22:0011,95
17/10/2019 23:0010,90
18/10/2019 00:0010,90
18/10/2019 01:0011,80
18/10/2019 02:0012,15
18/10/2019 03:0012,05
18/10/2019 04:0010,90
18/10/2019 05:009,35
18/10/2019 06:008,90
18/10/2019 07:008,75
18/10/2019 08:009,15
18/10/2019 09:009,60
18/10/2019 10:0010,20
18/10/2019 11:0012,25
18/10/2019 12:0013,10
18/10/2019 13:0014,30
18/10/2019 14:0014,30
18/10/2019 15:0014,25
18/10/2019 16:0013,10
18/10/2019 17:0012,10
18/10/2019 18:0011,55
18/10/2019 19:0011,05
18/10/2019 20:0010,80
18/10/2019 21:0010,80
18/10/2019 22:0010,70
18/10/2019 23:0010,50
19/10/2019 00:0010,40
19/10/2019 01:0010,20
19/10/2019 02:009,80
19/10/2019 03:009,60
19/10/2019 04:009,30
19/10/2019 05:009,30
19/10/2019 06:009,10
19/10/2019 07:009,05
19/10/2019 08:008,90
19/10/2019 09:008,95
19/10/2019 10:008,95
19/10/2019 11:009,30
19/10/2019 12:009,65
19/10/2019 13:009,70
19/10/2019 14:009,90
19/10/2019 15:0010,15
19/10/2019 16:0010,35
19/10/2019 17:0010,20
19/10/2019 18:009,90
19/10/2019 19:0010,00
19/10/2019 20:008,35
19/10/2019 21:008,10
19/10/2019 22:007,50
19/10/2019 23:007,30
20/10/2019 00:007,55
20/10/2019 01:007,30
20/10/2019 02:007,15
20/10/2019 03:007,20
20/10/2019 04:006,60
20/10/2019 05:005,80
20/10/2019 06:005,70
20/10/2019 07:005,40
20/10/2019 08:005,00
20/10/2019 09:004,90
20/10/2019 10:004,70
20/10/2019 11:004,55
20/10/2019 12:005,10
20/10/2019 13:005,70
20/10/2019 14:006,10
20/10/2019 15:006,30
20/10/2019 16:006,75
20/10/2019 17:007,00
20/10/2019 18:006,80
20/10/2019 19:006,55
20/10/2019 20:004,85
20/10/2019 21:004,10
20/10/2019 22:003,90
20/10/2019 23:002,80
21/10/2019 00:001,80
21/10/2019 01:001,25
21/10/2019 02:000,55
21/10/2019 03:00-0,30
21/10/2019 04:00-0,30
21/10/2019 05:00-0,35
21/10/2019 06:00-0,80
21/10/2019 07:00-1,00
21/10/2019 08:00-1,20
21/10/2019 09:00-0,40
21/10/2019 10:001,20
21/10/2019 11:003,20
21/10/2019 12:005,00
21/10/2019 13:007,15
21/10/2019 14:008,65
21/10/2019 15:008,40
21/10/2019 16:009,15
21/10/2019 17:009,80
21/10/2019 18:0010,10
21/10/2019 19:007,30
21/10/2019 20:005,70
21/10/2019 21:004,90
21/10/2019 22:004,65
21/10/2019 23:004,60
22/10/2019 00:004,80
22/10/2019 01:004,90
22/10/2019 02:003,70
22/10/2019 03:002,75
22/10/2019 04:002,60
22/10/2019 05:002,40
22/10/2019 06:002,10
22/10/2019 07:001,85
22/10/2019 08:001,45
22/10/2019 09:001,40
22/10/2019 10:003,65
22/10/2019 11:006,20
22/10/2019 12:008,65
22/10/2019 13:009,00
22/10/2019 14:008,70
22/10/2019 15:008,20
22/10/2019 16:008,65
22/10/2019 17:008,40
22/10/2019 18:008,80
22/10/2019 19:007,50
22/10/2019 20:007,10
22/10/2019 21:006,65
22/10/2019 22:007,15
22/10/2019 23:006,60
23/10/2019 00:007,35
23/10/2019 01:008,75
23/10/2019 02:008,60
23/10/2019 03:009,70
23/10/2019 04:009,30
23/10/2019 05:008,90
23/10/2019 06:008,85
23/10/2019 07:009,50
23/10/2019 08:009,60
23/10/2019 09:009,30
23/10/2019 10:009,60
23/10/2019 11:008,70
23/10/2019 12:008,90
23/10/2019 13:009,10
23/10/2019 14:009,90
23/10/2019 15:0010,30
23/10/2019 16:009,90
23/10/2019 17:009,65
23/10/2019 18:008,70
23/10/2019 19:007,40
23/10/2019 20:007,10
23/10/2019 21:006,30
23/10/2019 22:006,00
23/10/2019 23:005,60
24/10/2019 00:005,05
24/10/2019 01:004,90
24/10/2019 02:004,70
24/10/2019 03:004,55
24/10/2019 04:004,60
24/10/2019 05:004,55
24/10/2019 06:004,90
24/10/2019 07:004,65
24/10/2019 08:004,65
24/10/2019 09:004,80
24/10/2019 10:005,65
24/10/2019 11:006,65
24/10/2019 12:008,70
24/10/2019 13:0011,10
24/10/2019 14:0011,65
24/10/2019 15:0012,50
24/10/2019 16:0012,90
24/10/2019 17:0012,40
24/10/2019 18:0011,45
24/10/2019 19:0011,20
24/10/2019 20:0011,10
24/10/2019 21:0010,80
24/10/2019 22:009,95
24/10/2019 23:008,75
25/10/2019 00:007,55
25/10/2019 01:006,60
25/10/2019 02:005,60
25/10/2019 03:005,10
25/10/2019 04:004,65
25/10/2019 05:005,75
25/10/2019 06:006,75
25/10/2019 07:006,00
25/10/2019 08:006,35
25/10/2019 09:007,45
25/10/2019 10:009,05
25/10/2019 11:0010,50
25/10/2019 12:0012,90
25/10/2019 13:0014,90
25/10/2019 14:0016,20
25/10/2019 15:0017,05
25/10/2019 16:0017,35
25/10/2019 17:0016,75
25/10/2019 18:0015,70
25/10/2019 19:0013,60
25/10/2019 20:0012,00
25/10/2019 21:009,75
25/10/2019 22:006,05
25/10/2019 23:005,00
26/10/2019 00:004,50
26/10/2019 01:003,70
26/10/2019 02:002,85
26/10/2019 03:002,80
26/10/2019 04:003,20
26/10/2019 05:003,70
26/10/2019 06:003,55
26/10/2019 07:003,40
26/10/2019 08:003,60
26/10/2019 09:005,40
26/10/2019 10:009,10
26/10/2019 11:0014,50
26/10/2019 12:0016,95
26/10/2019 13:0017,80
26/10/2019 14:0019,40
26/10/2019 15:0019,85
26/10/2019 16:0019,55
26/10/2019 17:0018,95
26/10/2019 18:0017,55
26/10/2019 19:0015,45
26/10/2019 20:0014,10
26/10/2019 21:009,75
26/10/2019 22:008,30
26/10/2019 23:006,85
27/10/2019 00:006,20
27/10/2019 01:006,00
27/10/2019 02:005,75
27/10/2019 02:005,80
27/10/2019 03:006,00
27/10/2019 04:006,00
27/10/2019 05:006,00
27/10/2019 06:006,65
27/10/2019 07:006,30
27/10/2019 08:006,50
27/10/2019 09:008,40
27/10/2019 10:0011,95
27/10/2019 11:0014,90
27/10/2019 12:0017,60
27/10/2019 13:0018,20
27/10/2019 14:0017,35
27/10/2019 15:0018,55
27/10/2019 16:0018,20
27/10/2019 17:0016,75
27/10/2019 18:0014,70
27/10/2019 19:0013,15
27/10/2019 20:0011,85
27/10/2019 21:0010,95
27/10/2019 22:0010,40
27/10/2019 23:009,85
28/10/2019 00:009,00
28/10/2019 01:008,90
28/10/2019 02:008,30
28/10/2019 03:008,90
28/10/2019 04:008,90
28/10/2019 05:009,15
28/10/2019 06:009,35
28/10/2019 07:009,60
28/10/2019 08:009,35
28/10/2019 09:0013,30
28/10/2019 10:0017,10
28/10/2019 11:0018,65
28/10/2019 12:0019,90
28/10/2019 13:0020,10
28/10/2019 14:0020,00
28/10/2019 15:0020,20
28/10/2019 16:0018,85
28/10/2019 17:0017,00
28/10/2019 18:0015,50
28/10/2019 19:0012,45
28/10/2019 20:0011,90
28/10/2019 21:0010,55
28/10/2019 22:009,65
28/10/2019 23:009,20
29/10/2019 00:008,35
29/10/2019 01:007,85
29/10/2019 02:007,55
29/10/2019 03:009,20
29/10/2019 04:009,70
29/10/2019 05:009,90
29/10/2019 06:0010,60
29/10/2019 07:0010,60
29/10/2019 08:009,70
29/10/2019 09:0013,70
29/10/2019 10:0014,60
29/10/2019 11:0015,65
29/10/2019 13:0016,30
29/10/2019 14:0016,70
29/10/2019 15:0016,70
29/10/2019 16:0015,95
29/10/2019 17:0015,35
29/10/2019 18:0012,85
29/10/2019 19:009,60
29/10/2019 20:008,45
29/10/2019 21:007,20
29/10/2019 22:007,05
29/10/2019 23:006,20
30/10/2019 00:006,00
30/10/2019 01:005,80
30/10/2019 02:005,75
30/10/2019 03:005,20
30/10/2019 04:004,95
30/10/2019 05:006,45
30/10/2019 06:007,35
30/10/2019 07:007,80
30/10/2019 08:008,50
30/10/2019 09:009,75
30/10/2019 10:0012,15
30/10/2019 11:0013,30
30/10/2019 12:0013,10
30/10/2019 13:0013,65
30/10/2019 14:0014,00
30/10/2019 15:0014,20
30/10/2019 16:0013,10
30/10/2019 17:0013,00
30/10/2019 18:0013,00
30/10/2019 19:0013,10
30/10/2019 20:0013,10
30/10/2019 21:0012,85
30/10/2019 22:0012,80
30/10/2019 23:0013,00
31/10/2019 00:0011,95
31/10/2019 01:0011,85
31/10/2019 02:0010,35
31/10/2019 03:009,95
31/10/2019 04:0010,00
31/10/2019 05:009,20
31/10/2019 06:008,60
31/10/2019 07:007,05
31/10/2019 08:007,25
31/10/2019 09:009,30
31/10/2019 10:0011,55
31/10/2019 11:0013,25
31/10/2019 12:0015,80
31/10/2019 13:0017,65
31/10/2019 14:0017,35
31/10/2019 15:0018,35
31/10/2019 16:0018,25
31/10/2019 17:0016,95
31/10/2019 18:0016,25
31/10/2019 19:0015,80
31/10/2019 20:0015,15
31/10/2019 21:0014,80
31/10/2019 22:0014,00
31/10/2019 23:0012,85
01/11/2019 00:0013,10
01/11/2019 01:0014,05
01/11/2019 02:0013,70
01/11/2019 03:0014,00
01/11/2019 04:0013,05
01/11/2019 05:0013,60
01/11/2019 06:0013,00
01/11/2019 07:0013,05
01/11/2019 08:0013,45
01/11/2019 09:0014,70
01/11/2019 10:0014,70
01/11/2019 11:0015,05
01/11/2019 12:0015,85
01/11/2019 13:0015,65
01/11/2019 14:0015,85
01/11/2019 15:0016,70
01/11/2019 16:0015,95
01/11/2019 17:0016,15
01/11/2019 18:0015,25
01/11/2019 19:0014,85
01/11/2019 20:0014,00
01/11/2019 21:0013,90
01/11/2019 22:0013,50
01/11/2019 23:0013,15
02/11/2019 00:0012,55
02/11/2019 01:0012,20
02/11/2019 02:0012,30
02/11/2019 03:0012,50
02/11/2019 04:0012,20
02/11/2019 05:0012,00
02/11/2019 06:0012,00
02/11/2019 07:0012,00
02/11/2019 08:0012,15
02/11/2019 09:0012,60
02/11/2019 10:0012,10
02/11/2019 11:0011,95
02/11/2019 12:0012,05
02/11/2019 13:0012,50
02/11/2019 14:0012,30
02/11/2019 15:0012,40
02/11/2019 16:0012,00
02/11/2019 17:0011,40
02/11/2019 18:0010,65
02/11/2019 19:0010,10
02/11/2019 20:009,95
02/11/2019 21:009,95
02/11/2019 22:009,05
02/11/2019 23:008,30
03/11/2019 00:008,60
03/11/2019 01:008,30
03/11/2019 02:008,20
03/11/2019 03:008,65
03/11/2019 04:009,05
03/11/2019 05:007,90
03/11/2019 06:006,25
03/11/2019 07:005,65
03/11/2019 08:005,90
03/11/2019 09:007,35
03/11/2019 10:009,80
03/11/2019 11:0011,45
03/11/2019 12:0011,60
03/11/2019 13:0012,25
03/11/2019 14:0012,75
03/11/2019 15:0014,05
03/11/2019 16:0013,75
03/11/2019 17:0010,90
03/11/2019 18:009,80
03/11/2019 19:009,35
03/11/2019 20:009,50
03/11/2019 21:009,55
03/11/2019 22:009,50
03/11/2019 23:009,80
04/11/2019 00:009,80
04/11/2019 01:0010,55
04/11/2019 02:0011,00
04/11/2019 03:0010,50
04/11/2019 04:0010,00
04/11/2019 05:009,60
04/11/2019 06:009,60
04/11/2019 07:009,60
04/11/2019 08:009,40
04/11/2019 09:009,60
04/11/2019 10:0010,70
04/11/2019 11:0012,30
04/11/2019 12:0012,70
04/11/2019 13:0012,75
04/11/2019 14:0013,25
04/11/2019 15:0012,20
04/11/2019 16:0011,25
04/11/2019 17:0010,40
04/11/2019 18:009,20
04/11/2019 19:007,60
04/11/2019 21:005,60
04/11/2019 22:005,10
04/11/2019 23:005,10
05/11/2019 00:004,90
05/11/2019 01:004,80
05/11/2019 02:004,55
05/11/2019 03:004,50
05/11/2019 04:003,95
05/11/2019 05:003,40
05/11/2019 06:003,35
05/11/2019 07:003,10
05/11/2019 08:003,40
05/11/2019 09:004,55
05/11/2019 10:004,45
05/11/2019 11:006,30
05/11/2019 12:005,00
05/11/2019 13:005,00
05/11/2019 14:005,20
05/11/2019 15:006,70
05/11/2019 16:007,00
05/11/2019 17:006,85
05/11/2019 18:006,25
05/11/2019 19:005,60
05/11/2019 20:004,85
05/11/2019 21:004,50
05/11/2019 22:004,80
05/11/2019 23:005,50
06/11/2019 00:005,90
06/11/2019 01:004,70
06/11/2019 02:004,25
06/11/2019 03:004,25
06/11/2019 04:003,40
06/11/2019 05:003,35
06/11/2019 06:003,10
06/11/2019 07:002,35
06/11/2019 08:002,30
06/11/2019 09:003,15
06/11/2019 10:004,30
06/11/2019 11:005,80
06/11/2019 12:007,70
06/11/2019 13:009,45
06/11/2019 14:009,90
06/11/2019 15:0010,10
06/11/2019 16:008,70
06/11/2019 17:008,05
06/11/2019 18:007,55
06/11/2019 19:007,45
06/11/2019 20:007,20
06/11/2019 21:007,10
06/11/2019 22:007,30
06/11/2019 23:007,50
07/11/2019 00:007,60
07/11/2019 01:007,60
07/11/2019 02:006,80
07/11/2019 03:006,60
07/11/2019 04:006,15
07/11/2019 05:005,15
07/11/2019 06:004,35
07/11/2019 07:003,70
07/11/2019 08:002,40
07/11/2019 09:004,50
07/11/2019 10:007,20
07/11/2019 11:008,05
07/11/2019 12:007,00
07/11/2019 13:006,85
07/11/2019 14:005,80
07/11/2019 15:006,25
07/11/2019 16:005,55
07/11/2019 17:004,65
07/11/2019 18:003,40
07/11/2019 19:003,30
07/11/2019 20:002,30
07/11/2019 21:001,50
07/11/2019 22:001,85
07/11/2019 23:001,55
08/11/2019 00:000,65
08/11/2019 01:000,65
08/11/2019 02:000,40
08/11/2019 03:000,25
08/11/2019 04:000,25
08/11/2019 05:000,15
08/11/2019 06:000,80
08/11/2019 07:000,80
08/11/2019 08:000,95
08/11/2019 09:001,45
08/11/2019 10:002,85
08/11/2019 11:004,50
08/11/2019 12:005,65
08/11/2019 13:005,85
08/11/2019 14:006,55
08/11/2019 15:006,90
08/11/2019 16:006,30
08/11/2019 17:004,75
08/11/2019 18:004,05
08/11/2019 19:003,45
08/11/2019 20:002,90
08/11/2019 21:003,00
08/11/2019 22:002,80
08/11/2019 23:001,95
09/11/2019 00:001,10
09/11/2019 01:000,80
09/11/2019 02:000,80
09/11/2019 03:000,80
09/11/2019 04:000,80
09/11/2019 05:001,70
09/11/2019 06:002,10
09/11/2019 07:002,30
09/11/2019 08:002,40
09/11/2019 09:003,00
09/11/2019 10:004,15
09/11/2019 11:004,55
09/11/2019 12:005,40
09/11/2019 13:006,25
09/11/2019 14:007,45
09/11/2019 15:008,65
09/11/2019 16:007,95
09/11/2019 17:007,40
09/11/2019 18:007,75
09/11/2019 19:007,25
09/11/2019 20:005,80
09/11/2019 21:003,80
09/11/2019 22:003,00
09/11/2019 23:002,40
10/11/2019 00:001,35
10/11/2019 01:001,90
10/11/2019 02:001,95
10/11/2019 03:001,50
10/11/2019 04:001,20
10/11/2019 05:001,00
10/11/2019 06:000,55
10/11/2019 07:000,95
10/11/2019 08:000,90
10/11/2019 09:000,25
10/11/2019 10:000,20
10/11/2019 11:000,75
10/11/2019 12:002,00
10/11/2019 13:003,05
10/11/2019 14:003,60
10/11/2019 15:004,20
10/11/2019 16:002,50
10/11/2019 17:002,75
10/11/2019 18:003,20
10/11/2019 19:003,30
10/11/2019 20:002,75
10/11/2019 21:002,50
10/11/2019 22:002,35
10/11/2019 23:002,30
11/11/2019 00:000,80
11/11/2019 01:000,70
11/11/2019 02:000,50
11/11/2019 03:001,10
11/11/2019 04:001,20
11/11/2019 05:001,45
11/11/2019 06:001,50
11/11/2019 07:001,40
11/11/2019 08:001,70
11/11/2019 09:002,35
11/11/2019 10:003,40
11/11/2019 11:005,50
11/11/2019 12:008,10
11/11/2019 13:008,05
11/11/2019 14:008,40
11/11/2019 15:007,75
11/11/2019 16:006,70
11/11/2019 17:005,90
11/11/2019 18:005,70
11/11/2019 19:004,55
11/11/2019 20:004,20
11/11/2019 21:003,95
11/11/2019 22:002,85
11/11/2019 23:002,00
12/11/2019 00:002,00
12/11/2019 01:002,00
12/11/2019 02:001,75
12/11/2019 03:001,45
12/11/2019 04:001,30
12/11/2019 05:001,20
12/11/2019 06:001,40
12/11/2019 07:001,00
12/11/2019 08:000,35
12/11/2019 09:002,20
12/11/2019 10:003,85
12/11/2019 11:007,15
12/11/2019 12:008,40
12/11/2019 13:009,25
12/11/2019 14:008,80
12/11/2019 15:007,90
12/11/2019 16:006,75
12/11/2019 17:005,80
12/11/2019 18:005,50
12/11/2019 19:005,30
12/11/2019 20:004,65
12/11/2019 21:004,15
12/11/2019 22:004,40
12/11/2019 23:004,60
13/11/2019 00:004,70
13/11/2019 01:004,90
13/11/2019 02:004,95
13/11/2019 03:005,00
13/11/2019 04:006,20
13/11/2019 05:006,10
13/11/2019 06:005,75
13/11/2019 07:004,85
13/11/2019 08:004,10
13/11/2019 09:006,55
13/11/2019 10:007,70
13/11/2019 11:009,35
13/11/2019 12:009,50
13/11/2019 13:009,20
13/11/2019 14:0010,60
13/11/2019 15:0010,80
13/11/2019 16:0010,55
13/11/2019 17:009,10
13/11/2019 18:008,65
13/11/2019 19:007,90
13/11/2019 20:006,80
13/11/2019 21:006,10
13/11/2019 22:005,80
13/11/2019 23:005,65
14/11/2019 00:005,70
14/11/2019 01:004,90
14/11/2019 02:002,85
14/11/2019 03:002,80
14/11/2019 04:003,00
14/11/2019 05:001,35
14/11/2019 06:000,10
14/11/2019 07:00-0,75
14/11/2019 08:00-0,55
14/11/2019 09:001,90
14/11/2019 10:003,45
14/11/2019 11:003,60
14/11/2019 12:003,30
14/11/2019 13:003,00
14/11/2019 14:002,35
14/11/2019 15:003,55
14/11/2019 16:003,50
14/11/2019 17:002,90
14/11/2019 18:001,95
14/11/2019 19:000,40
14/11/2019 20:000,40
14/11/2019 21:00-0,20
14/11/2019 22:00-0,35
14/11/2019 23:00-1,35
15/11/2019 00:00-1,90
15/11/2019 01:00-1,55
15/11/2019 02:00-1,00
15/11/2019 03:00-0,90
15/11/2019 04:00-0,50
15/11/2019 05:00-0,20
15/11/2019 06:00-0,10
15/11/2019 07:000,00
15/11/2019 08:000,10
15/11/2019 09:000,80
15/11/2019 10:001,30
15/11/2019 11:001,45
15/11/2019 12:002,35
15/11/2019 13:002,30
15/11/2019 14:002,55
15/11/2019 15:002,55
15/11/2019 16:001,25
15/11/2019 17:000,25
15/11/2019 18:000,10
15/11/2019 19:000,00
15/11/2019 20:000,30
15/11/2019 21:000,35
15/11/2019 22:000,10
15/11/2019 23:00-0,45
16/11/2019 00:00-1,30
16/11/2019 01:00-1,60
16/11/2019 02:00-1,95
16/11/2019 03:00-2,45
16/11/2019 04:00-2,80
16/11/2019 05:00-3,00
16/11/2019 06:00-3,55
16/11/2019 07:00-3,90
16/11/2019 08:00-4,75
16/11/2019 09:00-3,20
16/11/2019 10:00-0,45
16/11/2019 11:002,60
16/11/2019 12:004,00
16/11/2019 13:004,45
16/11/2019 14:003,35
16/11/2019 15:003,45
16/11/2019 16:003,40
16/11/2019 17:003,10
16/11/2019 18:002,10
16/11/2019 19:000,40
16/11/2019 20:00-0,40
16/11/2019 21:00-1,30
16/11/2019 22:00-1,60
16/11/2019 23:00-1,25
17/11/2019 00:00-0,40
17/11/2019 01:000,10
17/11/2019 02:00-0,10
17/11/2019 03:00-0,40
17/11/2019 04:00-0,80
17/11/2019 05:00-1,30
17/11/2019 06:00-1,10
17/11/2019 07:00-0,40
17/11/2019 08:000,10
17/11/2019 09:000,75
17/11/2019 10:003,15
17/11/2019 11:005,50
17/11/2019 12:006,70
17/11/2019 13:006,90
17/11/2019 14:007,35
17/11/2019 15:007,85
17/11/2019 16:007,95
17/11/2019 17:005,90
17/11/2019 18:003,95
17/11/2019 19:002,70
17/11/2019 20:002,40
17/11/2019 21:002,80
17/11/2019 22:002,45
17/11/2019 23:002,40
18/11/2019 00:002,15
18/11/2019 01:002,15
18/11/2019 02:001,65
18/11/2019 03:001,75
18/11/2019 04:002,00
18/11/2019 05:001,45
18/11/2019 06:000,70
18/11/2019 07:000,85
18/11/2019 08:001,00
18/11/2019 09:002,80
18/11/2019 10:003,80
18/11/2019 11:003,90
18/11/2019 12:006,05
18/11/2019 13:005,05
18/11/2019 14:004,65
18/11/2019 15:005,60
18/11/2019 16:005,55
18/11/2019 17:004,50
18/11/2019 18:003,95
18/11/2019 19:002,75
18/11/2019 20:001,80
18/11/2019 21:000,75
18/11/2019 22:000,40
18/11/2019 23:000,15
19/11/2019 00:00-0,20
19/11/2019 01:00-0,90
19/11/2019 02:00-1,40
19/11/2019 03:00-2,35
19/11/2019 04:00-2,60
19/11/2019 05:00-2,80
19/11/2019 06:00-3,10
19/11/2019 07:00-3,30
19/11/2019 08:00-2,70
19/11/2019 09:00-0,35
19/11/2019 10:001,00
19/11/2019 11:002,10
19/11/2019 12:003,90
19/11/2019 13:005,70
19/11/2019 14:006,30
19/11/2019 15:006,45
19/11/2019 16:005,55
19/11/2019 17:004,60
19/11/2019 18:003,50
19/11/2019 19:001,55
19/11/2019 20:000,50
19/11/2019 21:000,40
19/11/2019 22:000,75
19/11/2019 23:001,10
20/11/2019 00:001,00
20/11/2019 01:000,55
20/11/2019 02:000,25
20/11/2019 03:000,75
20/11/2019 04:000,90
20/11/2019 05:001,70
20/11/2019 06:001,90
20/11/2019 07:002,35
20/11/2019 08:003,10
20/11/2019 09:003,55
20/11/2019 10:003,50
20/11/2019 11:003,55
20/11/2019 12:003,85
20/11/2019 13:004,10
20/11/2019 14:004,40
20/11/2019 15:004,75
20/11/2019 16:004,20
20/11/2019 17:003,80
20/11/2019 18:003,50
20/11/2019 19:003,65
20/11/2019 20:004,05
20/11/2019 21:004,40
20/11/2019 22:004,35
20/11/2019 23:004,60
21/11/2019 00:004,45
21/11/2019 01:004,40
21/11/2019 02:004,20
21/11/2019 03:004,10
21/11/2019 04:004,10
21/11/2019 05:004,10
21/11/2019 06:003,90
21/11/2019 07:003,60
21/11/2019 08:003,45
21/11/2019 09:004,45
21/11/2019 10:005,45
21/11/2019 11:006,20
21/11/2019 12:006,85
21/11/2019 13:007,65
21/11/2019 14:007,80
21/11/2019 15:007,70
21/11/2019 16:006,80
21/11/2019 17:006,15
21/11/2019 18:005,60
21/11/2019 19:005,55
21/11/2019 20:003,25
21/11/2019 21:002,50
21/11/2019 22:002,00
21/11/2019 23:001,55
22/11/2019 00:001,70
22/11/2019 01:003,95
22/11/2019 02:003,90
22/11/2019 03:004,00
22/11/2019 04:004,85
22/11/2019 05:004,90
22/11/2019 06:004,55
22/11/2019 07:005,00
22/11/2019 08:004,90
22/11/2019 09:005,00
22/11/2019 10:005,65
22/11/2019 11:005,95
22/11/2019 12:006,65
22/11/2019 13:007,40
22/11/2019 14:008,95
22/11/2019 15:009,60
22/11/2019 16:009,90
22/11/2019 17:006,95
22/11/2019 18:006,75
22/11/2019 19:006,50
22/11/2019 20:006,10
22/11/2019 21:006,20
22/11/2019 22:006,30
22/11/2019 23:006,40
23/11/2019 00:006,05
23/11/2019 01:005,25
23/11/2019 02:004,75
23/11/2019 03:003,80
23/11/2019 04:002,60
23/11/2019 05:002,40
23/11/2019 06:003,10
23/11/2019 07:002,85
23/11/2019 08:002,30
23/11/2019 09:002,40
23/11/2019 10:003,75
23/11/2019 11:006,00
23/11/2019 12:006,95
23/11/2019 13:005,75
23/11/2019 14:006,10
23/11/2019 15:006,05
23/11/2019 16:006,55
23/11/2019 17:005,15
23/11/2019 18:004,30
23/11/2019 19:003,30
23/11/2019 20:003,45
23/11/2019 21:001,40
23/11/2019 22:000,40
23/11/2019 23:000,25
24/11/2019 00:002,25
24/11/2019 01:002,85
24/11/2019 02:001,65
24/11/2019 03:001,85
24/11/2019 04:000,75
24/11/2019 05:00-0,05
24/11/2019 06:00-0,90
24/11/2019 07:00-1,00
24/11/2019 08:00-0,95
24/11/2019 09:00-0,20
24/11/2019 10:001,90
24/11/2019 11:004,60
24/11/2019 12:005,85
24/11/2019 13:006,05
24/11/2019 14:005,65
24/11/2019 15:005,80
24/11/2019 16:005,75
24/11/2019 17:005,20
24/11/2019 18:005,15
24/11/2019 19:005,10
24/11/2019 20:004,70
24/11/2019 21:005,10
24/11/2019 22:005,25
24/11/2019 23:005,25
25/11/2019 00:005,55
25/11/2019 01:005,80
25/11/2019 02:005,90
25/11/2019 03:005,65
25/11/2019 04:006,50
25/11/2019 05:006,60
25/11/2019 06:006,40
25/11/2019 07:007,40
25/11/2019 08:007,70
25/11/2019 09:008,00
25/11/2019 10:008,50
25/11/2019 11:009,70
25/11/2019 12:0010,35
25/11/2019 13:0011,75
25/11/2019 14:0011,90
25/11/2019 15:0010,95
25/11/2019 16:0010,50
25/11/2019 17:009,85
25/11/2019 18:009,20
25/11/2019 19:008,70
25/11/2019 20:008,80
25/11/2019 21:008,15
25/11/2019 22:007,60
25/11/2019 23:007,75
26/11/2019 00:007,40
26/11/2019 01:007,60
26/11/2019 02:007,70
26/11/2019 03:007,45
26/11/2019 04:007,15
26/11/2019 05:006,90
26/11/2019 06:006,80
26/11/2019 07:007,40
26/11/2019 08:007,75
26/11/2019 09:008,40
26/11/2019 10:008,35
26/11/2019 11:0010,05
26/11/2019 12:0011,30
26/11/2019 13:0012,15
26/11/2019 14:0012,55
26/11/2019 15:0012,15
26/11/2019 16:0012,50
26/11/2019 17:0012,00
26/11/2019 18:0011,45
26/11/2019 19:0010,45
26/11/2019 20:009,70
26/11/2019 21:009,00
26/11/2019 22:008,10
26/11/2019 23:007,50
27/11/2019 00:006,75
27/11/2019 01:006,65
27/11/2019 02:006,70
27/11/2019 03:006,05
27/11/2019 04:005,60
27/11/2019 05:005,55
27/11/2019 06:005,65
27/11/2019 07:006,20
27/11/2019 08:006,30
27/11/2019 09:006,30
27/11/2019 10:006,60
27/11/2019 11:006,50
27/11/2019 12:007,20
27/11/2019 13:007,20
27/11/2019 14:007,70
27/11/2019 15:007,40
27/11/2019 16:007,90
27/11/2019 17:008,00
27/11/2019 18:007,55
27/11/2019 19:007,30
27/11/2019 20:007,10
27/11/2019 21:006,75
27/11/2019 22:007,05
27/11/2019 23:007,25
28/11/2019 00:007,20
28/11/2019 01:007,20
28/11/2019 02:007,20
28/11/2019 03:007,15
28/11/2019 04:007,60
28/11/2019 05:007,40
28/11/2019 06:007,40
28/11/2019 07:007,60
28/11/2019 08:007,70
28/11/2019 09:008,30
28/11/2019 10:008,70
28/11/2019 11:008,50
28/11/2019 12:009,10
28/11/2019 13:009,35
28/11/2019 14:009,85
28/11/2019 15:009,85
28/11/2019 16:009,50
28/11/2019 17:009,35
28/11/2019 18:009,05
28/11/2019 19:008,60
28/11/2019 20:008,55
28/11/2019 21:008,20
28/11/2019 22:008,25
28/11/2019 23:009,20
29/11/2019 00:009,30
29/11/2019 01:008,30
29/11/2019 02:007,35
29/11/2019 03:006,10
29/11/2019 04:005,85
29/11/2019 05:004,95
29/11/2019 06:005,05
29/11/2019 07:005,15
29/11/2019 08:005,30
29/11/2019 09:005,60
29/11/2019 10:006,15
29/11/2019 11:007,90
29/11/2019 12:009,00
29/11/2019 13:0011,25
29/11/2019 14:0011,95
29/11/2019 15:0012,40
29/11/2019 16:0011,80
29/11/2019 17:0010,35
29/11/2019 18:006,55
29/11/2019 19:004,90
29/11/2019 20:004,00
29/11/2019 21:003,20
29/11/2019 22:002,95
29/11/2019 23:003,35
30/11/2019 00:003,90
30/11/2019 01:004,45
30/11/2019 02:004,55
30/11/2019 03:005,05
30/11/2019 04:005,55
30/11/2019 05:007,85
30/11/2019 06:009,95
30/11/2019 07:009,90
30/11/2019 08:009,95
30/11/2019 09:0010,10
30/11/2019 10:0010,55
30/11/2019 11:0011,30
30/11/2019 12:0011,30
30/11/2019 13:0010,15
30/11/2019 14:008,85
30/11/2019 15:007,65
30/11/2019 16:007,65
30/11/2019 17:006,95
30/11/2019 18:005,95
30/11/2019 19:003,35
30/11/2019 20:001,65
30/11/2019 21:001,15
30/11/2019 22:001,05
30/11/2019 23:000,70
01/12/2019 00:002,70
01/12/2019 01:003,45
01/12/2019 02:003,80
01/12/2019 03:002,80
01/12/2019 04:002,70
01/12/2019 05:002,85
01/12/2019 06:003,00
01/12/2019 07:003,00
01/12/2019 08:003,20
01/12/2019 09:003,35
01/12/2019 10:003,65
01/12/2019 11:004,40
01/12/2019 12:005,65
01/12/2019 13:006,30
01/12/2019 14:006,75
01/12/2019 15:007,10
01/12/2019 16:007,30
01/12/2019 17:005,60
01/12/2019 18:004,50
01/12/2019 19:004,05
01/12/2019 20:004,00
01/12/2019 21:003,30
01/12/2019 22:002,90
01/12/2019 23:002,00
02/12/2019 00:001,75
02/12/2019 01:002,05
02/12/2019 02:001,85
02/12/2019 03:002,95
02/12/2019 04:003,25
02/12/2019 05:003,35
02/12/2019 06:003,35
02/12/2019 07:003,70
02/12/2019 08:004,20
02/12/2019 09:005,40
02/12/2019 10:006,15
02/12/2019 11:006,25
02/12/2019 12:007,10
02/12/2019 13:007,45
02/12/2019 14:007,50
02/12/2019 15:007,00
02/12/2019 16:005,35
02/12/2019 17:003,70
02/12/2019 18:002,70
02/12/2019 19:002,40
02/12/2019 20:002,25
02/12/2019 21:001,75
02/12/2019 22:000,95
02/12/2019 23:00-0,25
03/12/2019 00:00-0,45
03/12/2019 01:000,20
03/12/2019 02:000,55
03/12/2019 03:00-1,70
03/12/2019 04:000,75
03/12/2019 05:000,25
03/12/2019 06:00-0,55
03/12/2019 07:00-0,10
03/12/2019 08:000,75
03/12/2019 09:001,35
03/12/2019 10:003,25
03/12/2019 11:004,90
03/12/2019 12:006,25
03/12/2019 13:006,05
03/12/2019 14:006,70
03/12/2019 15:005,60
03/12/2019 16:003,80
03/12/2019 17:001,80
03/12/2019 18:000,35
03/12/2019 19:00-1,35
03/12/2019 20:00-1,90
03/12/2019 21:00-2,70
03/12/2019 22:00-2,70
03/12/2019 23:00-3,40
04/12/2019 00:00-3,50
04/12/2019 01:00-3,50
04/12/2019 02:00-3,40
04/12/2019 03:00-2,90
04/12/2019 04:00-2,80
04/12/2019 05:00-2,80
04/12/2019 06:00-2,35
04/12/2019 07:00-2,10
04/12/2019 08:00-2,00
04/12/2019 09:00-0,65
04/12/2019 10:000,80
04/12/2019 11:004,45
04/12/2019 12:007,95
04/12/2019 13:008,85
04/12/2019 14:0010,90
04/12/2019 15:0011,10
04/12/2019 16:009,60
04/12/2019 17:006,50
04/12/2019 18:003,15
04/12/2019 19:001,20
04/12/2019 20:00-0,25
04/12/2019 21:00-1,00
04/12/2019 22:00-1,30
04/12/2019 23:00-0,25
05/12/2019 00:004,10
05/12/2019 01:005,15
05/12/2019 02:004,85
05/12/2019 03:004,90
05/12/2019 04:005,10
05/12/2019 05:005,55
05/12/2019 06:006,35
05/12/2019 07:006,30
05/12/2019 08:006,50
05/12/2019 09:006,20
05/12/2019 10:007,35
05/12/2019 11:008,65
05/12/2019 12:008,45
05/12/2019 13:009,10
05/12/2019 14:008,80
05/12/2019 15:007,90
05/12/2019 16:007,80
05/12/2019 17:007,40
05/12/2019 18:005,60
05/12/2019 19:003,70
05/12/2019 20:002,40
05/12/2019 21:001,30
05/12/2019 22:000,20
05/12/2019 23:000,00
06/12/2019 00:00-0,15
06/12/2019 01:00-0,35
06/12/2019 02:00-1,45
06/12/2019 03:00-1,00
06/12/2019 04:00-0,80
06/12/2019 05:00-0,70
06/12/2019 06:00-1,25
06/12/2019 07:00-1,30
06/12/2019 08:00-0,95
06/12/2019 09:000,05
06/12/2019 10:001,25
06/12/2019 11:004,65
06/12/2019 12:009,15
06/12/2019 13:009,30
06/12/2019 14:008,90
06/12/2019 15:009,40
06/12/2019 16:008,85
06/12/2019 17:007,45
06/12/2019 18:004,90
06/12/2019 19:005,00
06/12/2019 20:004,40
06/12/2019 21:002,40
06/12/2019 22:001,40
06/12/2019 23:001,25
07/12/2019 00:001,80
07/12/2019 01:001,05
07/12/2019 02:000,35
07/12/2019 03:00-0,45
07/12/2019 04:00-0,90
07/12/2019 05:00-1,15
07/12/2019 06:00-1,60
07/12/2019 07:00-1,95
07/12/2019 08:00-1,90
07/12/2019 09:00-0,55
07/12/2019 10:001,90
07/12/2019 11:004,50
07/12/2019 12:007,90
07/12/2019 13:009,80
07/12/2019 14:009,45
07/12/2019 15:008,80
07/12/2019 16:007,10
07/12/2019 17:005,10
07/12/2019 18:004,65
07/12/2019 19:004,50
07/12/2019 20:004,15
07/12/2019 21:003,80
07/12/2019 22:003,35
07/12/2019 23:003,10
08/12/2019 00:002,80
08/12/2019 01:002,90
08/12/2019 02:002,40
08/12/2019 03:002,20
08/12/2019 04:001,70
08/12/2019 05:001,40
08/12/2019 06:001,30
08/12/2019 07:001,40
08/12/2019 08:001,35
08/12/2019 09:001,90
08/12/2019 10:002,90
08/12/2019 11:003,20
08/12/2019 12:004,00
08/12/2019 13:005,40
08/12/2019 14:005,75
08/12/2019 15:005,80
08/12/2019 16:005,70
08/12/2019 17:005,40
08/12/2019 18:005,10
08/12/2019 19:005,20
08/12/2019 20:005,20
08/12/2019 21:005,00
08/12/2019 22:004,15
08/12/2019 23:003,00
09/12/2019 00:001,95
09/12/2019 01:001,00
09/12/2019 02:00-0,70
09/12/2019 03:00-1,65
09/12/2019 04:00-2,35
09/12/2019 05:00-2,60
09/12/2019 06:00-2,95
09/12/2019 07:00-2,20
09/12/2019 08:00-2,80
09/12/2019 09:00-2,50
09/12/2019 10:00-0,30
09/12/2019 11:003,75
09/12/2019 12:003,65
09/12/2019 13:002,70
09/12/2019 14:003,90
09/12/2019 15:004,65
09/12/2019 16:004,60
09/12/2019 17:003,20
09/12/2019 18:001,85
09/12/2019 19:000,80
09/12/2019 20:000,35
09/12/2019 21:00-0,45
09/12/2019 22:00-1,10
09/12/2019 23:00-1,70
10/12/2019 00:00-1,95
10/12/2019 01:00-2,05
10/12/2019 02:00-2,50
10/12/2019 03:00-3,00
10/12/2019 04:00-3,35
10/12/2019 05:00-3,05
10/12/2019 06:00-2,90
10/12/2019 07:00-3,45
10/12/2019 08:00-3,80
10/12/2019 09:00-3,45
10/12/2019 10:000,25
10/12/2019 11:002,85
10/12/2019 12:005,90
10/12/2019 13:007,00
10/12/2019 14:004,45
10/12/2019 15:004,05
10/12/2019 16:003,85
10/12/2019 17:003,50
10/12/2019 18:003,40
10/12/2019 19:003,00
10/12/2019 20:002,85
10/12/2019 21:002,75
10/12/2019 22:001,70
10/12/2019 23:000,90
11/12/2019 00:000,65
11/12/2019 01:000,35
11/12/2019 02:00-0,10
11/12/2019 03:00-0,10
11/12/2019 04:00-0,20
11/12/2019 05:000,30
11/12/2019 06:001,00
11/12/2019 07:001,20
11/12/2019 08:001,30
11/12/2019 09:001,60
11/12/2019 10:002,15
11/12/2019 11:003,25
11/12/2019 12:005,45
11/12/2019 13:006,65
11/12/2019 14:008,45
11/12/2019 15:008,25
11/12/2019 16:007,35
11/12/2019 17:005,35
11/12/2019 18:004,20
11/12/2019 19:003,55
11/12/2019 20:003,55
11/12/2019 21:003,40
11/12/2019 22:001,90
11/12/2019 23:001,95
12/12/2019 00:002,90
12/12/2019 01:003,00
12/12/2019 02:003,00
12/12/2019 03:003,00
12/12/2019 04:003,00
12/12/2019 05:003,00
12/12/2019 06:003,25
12/12/2019 07:003,20
12/12/2019 08:002,90
12/12/2019 09:003,30
12/12/2019 10:004,10
12/12/2019 11:004,20
12/12/2019 12:004,50
12/12/2019 13:004,80
12/12/2019 14:005,15
12/12/2019 15:005,65
12/12/2019 16:005,75
12/12/2019 17:006,00
12/12/2019 18:006,15
12/12/2019 19:005,70
12/12/2019 20:004,60
12/12/2019 21:005,00
12/12/2019 22:005,05
12/12/2019 23:007,05
13/12/2019 00:006,80
13/12/2019 01:006,05
13/12/2019 02:007,80
13/12/2019 03:0010,90
13/12/2019 04:0011,65
13/12/2019 05:0011,70
13/12/2019 06:0011,65
13/12/2019 07:0011,50
13/12/2019 08:0011,85
13/12/2019 09:0012,85
13/12/2019 10:0013,75
13/12/2019 11:0014,10
13/12/2019 12:0014,30
13/12/2019 13:0014,85
13/12/2019 14:0014,50
13/12/2019 15:0013,60
13/12/2019 16:0012,75
13/12/2019 17:0012,05
13/12/2019 18:0010,05
13/12/2019 19:009,70
13/12/2019 20:009,10
13/12/2019 21:007,90
13/12/2019 22:007,80
13/12/2019 23:007,10
14/12/2019 00:004,10
14/12/2019 01:004,45
14/12/2019 02:002,60
14/12/2019 03:002,30
14/12/2019 04:002,75
14/12/2019 05:003,25
14/12/2019 06:003,35
14/12/2019 07:001,30
14/12/2019 08:000,40
14/12/2019 09:001,25
14/12/2019 10:005,05
14/12/2019 11:006,85
14/12/2019 12:007,80
14/12/2019 13:007,60
14/12/2019 14:007,90
14/12/2019 15:007,75
14/12/2019 16:007,75
14/12/2019 17:008,25
14/12/2019 18:008,20
14/12/2019 19:008,20
14/12/2019 20:008,00
14/12/2019 21:007,80
14/12/2019 22:007,75
14/12/2019 23:007,80
15/12/2019 00:007,70
15/12/2019 01:007,70
15/12/2019 02:007,60
15/12/2019 03:007,75
15/12/2019 04:007,60
15/12/2019 05:007,40
15/12/2019 06:007,30
15/12/2019 07:007,20
15/12/2019 08:007,25
15/12/2019 09:006,80
15/12/2019 10:007,15
15/12/2019 11:007,10
15/12/2019 12:007,00
15/12/2019 13:007,20
15/12/2019 14:007,40
15/12/2019 15:007,65
15/12/2019 16:007,75
15/12/2019 17:007,50
15/12/2019 18:007,60
15/12/2019 19:007,70
15/12/2019 20:007,75
15/12/2019 21:007,40
15/12/2019 22:007,40
15/12/2019 23:007,30
16/12/2019 00:007,15
16/12/2019 01:006,70
16/12/2019 02:006,60
16/12/2019 03:006,15
16/12/2019 04:006,10
16/12/2019 05:005,80
16/12/2019 06:005,70
16/12/2019 07:005,60
16/12/2019 08:005,70
16/12/2019 09:005,60
16/12/2019 10:006,00
16/12/2019 11:006,60
16/12/2019 12:006,90
16/12/2019 13:007,90
16/12/2019 14:009,00
16/12/2019 15:008,95
16/12/2019 16:008,20
16/12/2019 17:007,80
16/12/2019 18:006,95
16/12/2019 19:006,25
16/12/2019 20:007,75
16/12/2019 21:006,95
16/12/2019 22:007,30
16/12/2019 23:006,75
17/12/2019 00:006,75
17/12/2019 01:006,25
17/12/2019 02:005,70
17/12/2019 03:006,55
17/12/2019 04:005,85
17/12/2019 05:005,55
17/12/2019 06:005,30
17/12/2019 07:005,40
17/12/2019 08:004,95
17/12/2019 09:004,65
17/12/2019 10:004,20
17/12/2019 11:003,45
17/12/2019 12:003,25
17/12/2019 13:003,65
17/12/2019 14:003,90
17/12/2019 15:003,95
17/12/2019 16:004,00
17/12/2019 17:003,85
17/12/2019 18:003,60
17/12/2019 19:003,15
17/12/2019 20:002,95
17/12/2019 21:003,90
17/12/2019 22:004,00
17/12/2019 23:004,00
18/12/2019 00:003,25
18/12/2019 01:002,30
18/12/2019 02:002,35
18/12/2019 03:002,40
18/12/2019 04:001,50
18/12/2019 05:002,30
18/12/2019 06:001,85
18/12/2019 07:002,60
18/12/2019 08:002,90
18/12/2019 09:003,20
18/12/2019 10:003,10
18/12/2019 11:002,30
18/12/2019 12:003,35
18/12/2019 13:003,20
18/12/2019 14:003,95
18/12/2019 15:004,15
18/12/2019 16:004,60
18/12/2019 17:004,50
18/12/2019 18:004,95
18/12/2019 19:007,45
18/12/2019 20:006,65
18/12/2019 21:007,25
18/12/2019 22:007,60
18/12/2019 23:007,30
19/12/2019 00:007,25
19/12/2019 01:007,40
19/12/2019 02:007,00
19/12/2019 03:006,85
19/12/2019 04:006,25
19/12/2019 05:006,50
19/12/2019 06:007,05
19/12/2019 07:006,70
19/12/2019 08:006,50
19/12/2019 09:006,20
19/12/2019 10:006,05
19/12/2019 11:006,05
19/12/2019 12:006,05
19/12/2019 13:006,70
19/12/2019 14:006,80
19/12/2019 15:007,75
19/12/2019 16:008,85
19/12/2019 17:009,30
19/12/2019 18:008,85
19/12/2019 19:008,85
19/12/2019 20:009,15
19/12/2019 21:009,00
19/12/2019 22:009,75
19/12/2019 23:0010,05
20/12/2019 00:009,45
20/12/2019 01:008,80
20/12/2019 02:008,25
20/12/2019 03:007,65
20/12/2019 04:007,35
20/12/2019 05:005,95
20/12/2019 06:005,05
20/12/2019 07:005,10
20/12/2019 08:004,50
20/12/2019 09:005,10
20/12/2019 10:004,80
20/12/2019 11:004,05
20/12/2019 12:004,05
20/12/2019 13:004,15
20/12/2019 14:004,10
20/12/2019 15:004,30
20/12/2019 16:004,80
20/12/2019 17:004,45
20/12/2019 18:004,05
20/12/2019 19:004,10
20/12/2019 20:003,65
20/12/2019 21:002,80
20/12/2019 22:002,20
20/12/2019 23:003,70
21/12/2019 00:004,00
21/12/2019 01:004,20
21/12/2019 02:004,85
21/12/2019 03:004,75
21/12/2019 04:004,30
21/12/2019 05:004,40
21/12/2019 06:004,45
21/12/2019 07:004,60
21/12/2019 08:005,35
21/12/2019 09:007,40
21/12/2019 10:008,25
21/12/2019 11:0011,25
21/12/2019 12:0012,80
21/12/2019 13:0012,15
21/12/2019 14:0011,65
21/12/2019 15:009,90
21/12/2019 16:009,20
21/12/2019 17:008,10
21/12/2019 18:006,90
21/12/2019 19:005,65
21/12/2019 20:005,70
21/12/2019 21:005,85
21/12/2019 22:006,15
21/12/2019 23:006,20
22/12/2019 00:006,15
22/12/2019 01:006,00
22/12/2019 02:005,90
22/12/2019 03:005,20
22/12/2019 04:005,05
22/12/2019 05:004,95
22/12/2019 06:004,80
22/12/2019 07:005,30
22/12/2019 08:005,05
22/12/2019 09:004,75
22/12/2019 10:005,25
22/12/2019 11:005,40
22/12/2019 12:006,20
22/12/2019 13:008,60
22/12/2019 14:0011,30
22/12/2019 15:0011,75
22/12/2019 16:0010,45
22/12/2019 17:008,65
22/12/2019 18:006,85
22/12/2019 19:005,30
22/12/2019 20:005,55
22/12/2019 21:002,85
22/12/2019 22:002,10
22/12/2019 23:001,45
23/12/2019 00:000,50
23/12/2019 01:000,65
23/12/2019 02:00-0,10
23/12/2019 03:00-0,75
23/12/2019 04:00-0,50
23/12/2019 05:00-0,85
23/12/2019 06:00-0,85
23/12/2019 07:00-0,15
23/12/2019 08:000,25
23/12/2019 09:000,40
23/12/2019 10:001,65
23/12/2019 11:004,60
23/12/2019 12:007,15
23/12/2019 13:007,65
23/12/2019 14:008,75
23/12/2019 15:008,90
23/12/2019 16:006,75
23/12/2019 17:006,30
23/12/2019 18:006,00
23/12/2019 19:006,20
23/12/2019 20:006,10
23/12/2019 21:007,25
23/12/2019 22:007,00
23/12/2019 23:007,20
24/12/2019 00:006,70
24/12/2019 01:006,50
24/12/2019 02:004,85
24/12/2019 03:004,40
24/12/2019 04:003,40
24/12/2019 05:002,30
24/12/2019 06:002,65
24/12/2019 07:002,75
24/12/2019 08:002,50
24/12/2019 09:003,10
24/12/2019 10:004,65
24/12/2019 11:006,25
24/12/2019 12:008,15
24/12/2019 13:009,80
24/12/2019 14:0012,55
24/12/2019 15:0012,85
24/12/2019 16:0012,20
24/12/2019 17:009,60
24/12/2019 18:007,60
24/12/2019 19:007,75
24/12/2019 20:007,65
24/12/2019 21:007,10
24/12/2019 22:006,85
24/12/2019 23:006,65
25/12/2019 00:006,20
25/12/2019 01:005,80
25/12/2019 02:005,50
25/12/2019 03:004,85
25/12/2019 04:004,10
25/12/2019 05:003,30
25/12/2019 06:002,35
25/12/2019 07:001,80
25/12/2019 08:001,40
25/12/2019 09:001,80
25/12/2019 10:003,80
25/12/2019 11:008,15
25/12/2019 12:0013,55
25/12/2019 13:0013,55
25/12/2019 14:0015,70
25/12/2019 15:0014,45
25/12/2019 16:0014,55
25/12/2019 17:0012,45
25/12/2019 18:009,10
25/12/2019 19:008,05
25/12/2019 20:006,25
25/12/2019 21:004,95
25/12/2019 22:004,25
25/12/2019 23:006,40
26/12/2019 00:009,45
26/12/2019 01:007,50
26/12/2019 02:005,60
26/12/2019 03:003,75
26/12/2019 04:002,85
26/12/2019 05:002,40
26/12/2019 06:002,55
26/12/2019 07:002,10
26/12/2019 08:002,05
26/12/2019 09:002,40
26/12/2019 10:002,90
26/12/2019 11:003,85
26/12/2019 12:004,70
26/12/2019 13:006,75
26/12/2019 14:007,35
26/12/2019 15:008,25
26/12/2019 16:006,70
26/12/2019 17:005,60
26/12/2019 18:005,20
26/12/2019 19:003,30
26/12/2019 20:001,85
26/12/2019 21:000,40
26/12/2019 22:00-0,45
26/12/2019 23:00-0,75
27/12/2019 00:00-2,10
27/12/2019 01:00-2,80
27/12/2019 02:00-3,40
27/12/2019 03:00-4,25
27/12/2019 04:00-4,65
27/12/2019 05:00-4,80
27/12/2019 06:00-4,60
27/12/2019 07:00-4,80
27/12/2019 08:00-5,25
27/12/2019 09:00-5,45
27/12/2019 10:00-0,80
27/12/2019 11:003,80
27/12/2019 12:006,80
27/12/2019 13:009,40
27/12/2019 14:0011,50
27/12/2019 15:0013,10
27/12/2019 16:0012,50
27/12/2019 17:005,30
27/12/2019 18:001,55
27/12/2019 19:000,10
27/12/2019 20:000,00
27/12/2019 21:00-0,35
27/12/2019 22:00-1,25
27/12/2019 23:00-0,85
28/12/2019 00:00-2,40
28/12/2019 01:00-3,05
28/12/2019 02:00-3,40
28/12/2019 03:00-3,20
28/12/2019 04:00-1,80
28/12/2019 05:00-1,15
28/12/2019 06:00-1,50
28/12/2019 07:00-2,20
28/12/2019 08:00-1,15
28/12/2019 09:00-0,35
28/12/2019 10:002,85
28/12/2019 11:006,90
28/12/2019 12:0011,00
28/12/2019 13:0013,60
28/12/2019 14:0015,80
28/12/2019 15:0015,50
28/12/2019 16:0014,50
28/12/2019 17:008,25
28/12/2019 18:003,85
28/12/2019 19:002,20
28/12/2019 20:001,25
28/12/2019 22:00-0,10
28/12/2019 23:00-0,35
29/12/2019 00:00-1,25
29/12/2019 01:00-1,40
29/12/2019 02:00-1,80
29/12/2019 03:00-1,20
29/12/2019 04:00-0,75
29/12/2019 05:00-1,25
29/12/2019 06:00-1,40
29/12/2019 07:00-1,35
29/12/2019 08:00-1,90
29/12/2019 09:00-1,70
29/12/2019 10:003,15
29/12/2019 11:006,90
29/12/2019 12:0010,90
29/12/2019 13:0014,75
29/12/2019 14:0016,25
29/12/2019 15:0017,70
29/12/2019 16:0015,70
29/12/2019 17:009,10
29/12/2019 18:004,35
29/12/2019 19:002,40
29/12/2019 20:001,50
29/12/2019 21:001,40
29/12/2019 22:000,70
29/12/2019 23:000,15
30/12/2019 00:000,75
30/12/2019 01:000,10
30/12/2019 02:000,25
30/12/2019 03:00-0,90
30/12/2019 04:00-0,70
30/12/2019 05:00-0,60
30/12/2019 06:00-0,05
30/12/2019 07:00-0,20
30/12/2019 08:00-0,20
30/12/2019 09:000,95
30/12/2019 10:006,40
30/12/2019 11:0010,90
30/12/2019 12:0014,40
30/12/2019 13:0017,90
30/12/2019 14:0019,20
30/12/2019 15:0019,55
30/12/2019 16:0018,65
30/12/2019 17:0010,80
30/12/2019 18:005,45
30/12/2019 19:003,60
30/12/2019 20:002,25
30/12/2019 21:001,85
30/12/2019 22:000,75
30/12/2019 23:000,10
31/12/2019 00:00-0,50
31/12/2019 01:00-1,15
31/12/2019 02:00-1,80
31/12/2019 03:00-1,45
31/12/2019 04:00-1,90
31/12/2019 05:00-2,60
31/12/2019 06:00-2,80
31/12/2019 07:00-2,80
31/12/2019 08:00-3,05
31/12/2019 09:00-2,40
31/12/2019 10:003,40
31/12/2019 11:007,40
31/12/2019 12:0010,70
31/12/2019 13:0013,05
31/12/2019 14:0014,20
31/12/2019 15:0014,60
31/12/2019 16:0014,00
31/12/2019 17:0010,45
31/12/2019 18:003,65
31/12/2019 19:001,35
31/12/2019 20:000,10
31/12/2019 21:00-0,55
31/12/2019 22:00-1,05
31/12/2019 23:00-1,00
01/01/2020 00:00-1,55
01/01/2020 01:00-2,00
01/01/2020 02:00-2,80
01/01/2020 03:00-3,50
01/01/2020 04:00-3,70
01/01/2020 05:00-4,00
01/01/2020 06:00-4,35
01/01/2020 07:00-4,60
01/01/2020 08:00-5,00
01/01/2020 09:00-4,25
01/01/2020 10:000,65
01/01/2020 11:005,45
01/01/2020 12:007,90
01/01/2020 13:0010,65
01/01/2020 14:0011,55
01/01/2020 15:0012,40
01/01/2020 16:0010,50
01/01/2020 17:007,10
01/01/2020 18:003,10
01/01/2020 19:000,80
01/01/2020 20:00-0,50
01/01/2020 21:00-0,90
01/01/2020 22:00-1,70
01/01/2020 23:00-2,10
02/01/2020 00:00-2,55
02/01/2020 01:00-2,80
02/01/2020 02:00-3,25
02/01/2020 03:00-3,75
02/01/2020 04:00-4,20
02/01/2020 05:00-4,10
02/01/2020 06:00-3,20
02/01/2020 07:00-3,65
02/01/2020 08:00-3,75
02/01/2020 09:00-2,60
02/01/2020 10:000,45
02/01/2020 11:004,35
02/01/2020 12:007,75
02/01/2020 13:008,30
02/01/2020 14:008,80
02/01/2020 15:009,00
02/01/2020 16:008,25
02/01/2020 17:006,25
02/01/2020 18:003,55
02/01/2020 19:001,80
02/01/2020 20:000,05
02/01/2020 21:00-1,20
02/01/2020 22:00-1,85
02/01/2020 23:00-2,10
03/01/2020 00:00-2,70
03/01/2020 01:00-3,10
03/01/2020 02:00-3,30
03/01/2020 03:00-3,10
03/01/2020 04:00-3,00
03/01/2020 05:00-2,80
03/01/2020 06:00-2,40
03/01/2020 07:00-2,40
03/01/2020 08:00-2,60
03/01/2020 09:00-3,20
03/01/2020 10:00-2,00
03/01/2020 11:00-0,15
03/01/2020 12:001,45
03/01/2020 13:002,95
03/01/2020 14:005,40
03/01/2020 15:005,80
03/01/2020 16:004,95
03/01/2020 17:004,15
03/01/2020 18:003,70
03/01/2020 19:003,00
03/01/2020 20:002,80
03/01/2020 21:000,65
03/01/2020 22:00-0,25
03/01/2020 23:00-1,30
04/01/2020 00:00-1,85
04/01/2020 01:00-2,40
04/01/2020 02:00-3,10
04/01/2020 03:00-3,50
04/01/2020 04:00-3,65
04/01/2020 05:00-4,00
04/01/2020 06:00-4,00
04/01/2020 07:00-4,35
04/01/2020 08:00-5,10
04/01/2020 09:00-3,85
04/01/2020 10:00-1,15
04/01/2020 11:002,25
04/01/2020 12:006,50
04/01/2020 13:007,55
04/01/2020 14:008,45
04/01/2020 15:007,95
04/01/2020 16:007,10
04/01/2020 17:004,80
04/01/2020 18:001,95
04/01/2020 19:00-0,25
04/01/2020 20:00-1,05
04/01/2020 21:00-1,05
04/01/2020 22:000,20
04/01/2020 23:000,60
05/01/2020 00:000,25
05/01/2020 01:00-0,45
05/01/2020 02:00-1,00
05/01/2020 03:00-2,00
05/01/2020 04:00-2,60
05/01/2020 05:00-2,80
05/01/2020 06:00-3,60
05/01/2020 07:00-4,40
05/01/2020 08:00-4,50
05/01/2020 09:00-3,10
05/01/2020 10:000,75
05/01/2020 11:004,90
05/01/2020 12:009,70
05/01/2020 13:0013,10
05/01/2020 14:0014,15
05/01/2020 15:0014,55
05/01/2020 16:0013,90
05/01/2020 17:009,15
05/01/2020 18:003,40
05/01/2020 19:001,55
05/01/2020 20:00-0,10
05/01/2020 21:00-1,00
05/01/2020 22:00-1,35
05/01/2020 23:00-1,20
06/01/2020 00:00-1,40
06/01/2020 01:00-2,60
06/01/2020 02:00-3,40
06/01/2020 03:00-4,45
06/01/2020 04:00-5,00
06/01/2020 05:00-5,50
06/01/2020 06:00-5,90
06/01/2020 07:00-6,30
06/01/2020 08:00-6,70
06/01/2020 09:00-6,25
06/01/2020 10:00-2,40
06/01/2020 11:001,40
06/01/2020 12:004,55
06/01/2020 13:004,35
06/01/2020 14:004,95
06/01/2020 15:005,10
06/01/2020 16:004,00
06/01/2020 17:001,75
06/01/2020 18:00-0,55
06/01/2020 19:00-1,90
06/01/2020 20:00-2,80
06/01/2020 21:00-3,30
06/01/2020 22:00-4,10
06/01/2020 23:00-4,05
07/01/2020 00:00-3,80
07/01/2020 01:00-4,20
07/01/2020 02:00-4,10
07/01/2020 03:00-4,15
07/01/2020 04:00-4,05
07/01/2020 05:00-3,90
07/01/2020 06:00-4,10
07/01/2020 07:00-4,65
07/01/2020 08:00-4,50
07/01/2020 09:00-2,15
07/01/2020 10:001,60
07/01/2020 11:006,00
07/01/2020 12:0010,35
07/01/2020 13:0011,30
07/01/2020 14:0012,65
07/01/2020 15:0013,20
07/01/2020 16:0012,25
07/01/2020 17:008,05
07/01/2020 18:003,80
07/01/2020 19:001,65
07/01/2020 20:000,40
07/01/2020 21:00-0,50
07/01/2020 22:00-1,00
07/01/2020 23:00-1,50
08/01/2020 00:00-1,40
08/01/2020 01:00-1,10
08/01/2020 02:00-1,10
08/01/2020 03:00-1,00
08/01/2020 04:00-1,40
08/01/2020 05:00-1,85
08/01/2020 06:00-1,80
08/01/2020 07:00-1,90
08/01/2020 08:00-1,70
08/01/2020 09:000,70
08/01/2020 10:002,30
08/01/2020 11:004,95
08/01/2020 12:0010,30
08/01/2020 13:0012,75
08/01/2020 14:0014,15
08/01/2020 15:0015,15
08/01/2020 16:0015,50
08/01/2020 17:0011,60
08/01/2020 18:006,55
08/01/2020 19:003,70
08/01/2020 20:002,55
08/01/2020 21:002,00
08/01/2020 22:001,35
08/01/2020 23:000,30
09/01/2020 00:000,10
09/01/2020 01:00-0,35
09/01/2020 02:00-0,80
09/01/2020 03:00-1,40
09/01/2020 04:00-1,50
09/01/2020 05:00-2,00
09/01/2020 06:00-2,30
09/01/2020 07:00-2,70
09/01/2020 08:00-2,40
09/01/2020 09:00-0,60
09/01/2020 10:001,30
09/01/2020 11:007,90
09/01/2020 12:006,20
09/01/2020 13:008,65
09/01/2020 14:008,90
09/01/2020 15:008,95
09/01/2020 16:007,50
09/01/2020 17:005,70
09/01/2020 18:005,20
09/01/2020 19:005,50
09/01/2020 20:004,45
09/01/2020 21:003,80
09/01/2020 22:003,15
09/01/2020 23:002,60
10/01/2020 00:002,35
10/01/2020 01:000,65
10/01/2020 02:00-0,30
10/01/2020 03:000,10
10/01/2020 04:000,00
10/01/2020 05:00-0,40
10/01/2020 06:00-1,10
10/01/2020 07:00-1,85
10/01/2020 08:00-2,50
10/01/2020 09:00-1,50
10/01/2020 10:002,35
10/01/2020 11:005,55
10/01/2020 12:006,40
10/01/2020 13:006,40
10/01/2020 14:006,10
10/01/2020 15:006,90
10/01/2020 16:005,95
10/01/2020 17:004,90
10/01/2020 18:003,10
10/01/2020 19:002,45
10/01/2020 20:000,50
10/01/2020 21:00-1,00
10/01/2020 22:00-1,95
10/01/2020 23:00-2,45
11/01/2020 00:00-3,40
11/01/2020 01:00-3,70
11/01/2020 02:00-4,30
11/01/2020 03:00-4,70
11/01/2020 04:00-4,95
11/01/2020 05:00-5,35
11/01/2020 06:00-5,65
11/01/2020 07:00-5,80
11/01/2020 08:00-5,30
11/01/2020 09:00-4,30
11/01/2020 10:00-1,90
11/01/2020 11:001,75
11/01/2020 12:004,95
11/01/2020 13:007,00
11/01/2020 14:008,90
11/01/2020 15:009,65
11/01/2020 16:009,40
11/01/2020 17:007,65
11/01/2020 18:002,35
11/01/2020 19:000,30
11/01/2020 20:00-0,80
11/01/2020 21:00-2,00
11/01/2020 22:00-2,85
11/01/2020 23:00-3,40
12/01/2020 00:00-4,15
12/01/2020 01:00-5,05
12/01/2020 02:00-5,20
12/01/2020 03:00-5,95
12/01/2020 04:00-6,30
12/01/2020 05:00-6,70
12/01/2020 06:00-6,80
12/01/2020 07:00-7,15
12/01/2020 08:00-7,50
12/01/2020 09:00-7,05
12/01/2020 10:00-3,05
12/01/2020 11:001,50
12/01/2020 12:005,05
12/01/2020 13:007,50
12/01/2020 14:009,70
12/01/2020 15:0010,00
12/01/2020 16:009,40
12/01/2020 17:007,45
12/01/2020 18:001,90
12/01/2020 19:00-0,40
12/01/2020 20:00-0,85
12/01/2020 21:00-1,55
12/01/2020 22:00-2,45
12/01/2020 23:00-2,80
13/01/2020 00:00-3,30
13/01/2020 01:00-4,10
13/01/2020 02:00-5,00
13/01/2020 03:00-5,80
13/01/2020 04:00-5,85
13/01/2020 05:00-6,30
13/01/2020 06:00-6,50
13/01/2020 07:00-6,50
13/01/2020 08:00-6,60
13/01/2020 09:00-5,75
13/01/2020 10:00-3,80
13/01/2020 11:00-0,60
13/01/2020 12:002,25
13/01/2020 13:002,05
13/01/2020 14:001,75
13/01/2020 15:004,35
13/01/2020 16:000,95
13/01/2020 17:000,05
13/01/2020 18:00-0,90
13/01/2020 19:00-1,30
13/01/2020 20:00-1,35
13/01/2020 21:00-0,90
13/01/2020 22:000,70
13/01/2020 23:001,45
14/01/2020 00:000,50
14/01/2020 01:000,70
14/01/2020 02:001,30
14/01/2020 03:001,80
14/01/2020 04:001,85
14/01/2020 05:001,80
14/01/2020 06:002,20
14/01/2020 07:001,95
14/01/2020 08:001,85
14/01/2020 09:001,90
14/01/2020 10:001,90
14/01/2020 11:002,00
14/01/2020 12:002,35
14/01/2020 13:003,70
14/01/2020 14:004,60
14/01/2020 15:005,10
14/01/2020 16:005,60
14/01/2020 17:005,70
14/01/2020 18:005,70
14/01/2020 19:005,70
14/01/2020 20:005,60
14/01/2020 21:005,15
14/01/2020 22:004,90
14/01/2020 23:004,80
15/01/2020 00:005,15
15/01/2020 01:005,20
15/01/2020 02:005,30
15/01/2020 03:005,65
15/01/2020 04:005,65
15/01/2020 05:005,60
15/01/2020 06:005,30
15/01/2020 07:005,30
15/01/2020 08:005,55
15/01/2020 09:005,60
15/01/2020 10:005,70
15/01/2020 11:005,70
15/01/2020 12:006,70
15/01/2020 13:007,85
15/01/2020 14:007,80
15/01/2020 15:007,95
15/01/2020 16:007,85
15/01/2020 17:007,60
15/01/2020 18:007,10
15/01/2020 19:006,70
15/01/2020 20:007,10
15/01/2020 21:006,90
15/01/2020 22:006,80
15/01/2020 23:007,20
16/01/2020 00:007,00
16/01/2020 01:007,00
16/01/2020 02:007,10
16/01/2020 03:007,20
16/01/2020 04:007,20
16/01/2020 05:007,20
16/01/2020 06:007,20
16/01/2020 07:007,20
16/01/2020 08:006,80
16/01/2020 09:006,80
16/01/2020 10:007,05
16/01/2020 11:007,50
16/01/2020 12:008,05
16/01/2020 13:009,75
16/01/2020 14:009,95
16/01/2020 15:0010,45
16/01/2020 16:009,50
16/01/2020 17:008,95
16/01/2020 18:008,05
16/01/2020 19:007,65
16/01/2020 20:006,60
16/01/2020 21:006,60
16/01/2020 22:006,25
16/01/2020 23:006,55
17/01/2020 00:006,40
17/01/2020 01:006,40
17/01/2020 02:006,05
17/01/2020 03:005,65
17/01/2020 04:004,40
17/01/2020 05:004,55
17/01/2020 06:004,90
17/01/2020 07:004,30
17/01/2020 08:003,30
17/01/2020 09:003,30
17/01/2020 10:004,85
17/01/2020 11:005,60
17/01/2020 12:006,65
17/01/2020 13:007,30
17/01/2020 14:007,40
17/01/2020 15:007,45
17/01/2020 16:006,95
17/01/2020 17:005,40
17/01/2020 18:004,30
17/01/2020 19:003,00
17/01/2020 20:001,70
17/01/2020 21:000,65
17/01/2020 22:000,10
17/01/2020 23:00-0,20
18/01/2020 00:00-0,45
18/01/2020 01:00-0,25
18/01/2020 02:000,30
18/01/2020 03:000,70
18/01/2020 04:000,95
18/01/2020 05:001,95
18/01/2020 06:001,90
18/01/2020 07:001,45
18/01/2020 08:003,25
18/01/2020 09:002,80
18/01/2020 10:002,45
18/01/2020 11:002,35
18/01/2020 12:003,40
18/01/2020 13:004,00
18/01/2020 14:004,40
18/01/2020 15:005,00
18/01/2020 16:005,75
18/01/2020 17:003,95
18/01/2020 18:002,85
18/01/2020 19:002,60
18/01/2020 20:001,60
18/01/2020 21:001,30
18/01/2020 22:000,55
18/01/2020 23:000,20
19/01/2020 00:000,10
19/01/2020 01:000,20
19/01/2020 02:000,05
19/01/2020 03:003,10
19/01/2020 04:002,30
19/01/2020 05:002,95
19/01/2020 06:002,80
19/01/2020 07:002,65
19/01/2020 08:002,85
19/01/2020 09:002,75
19/01/2020 10:003,25
19/01/2020 11:003,70
19/01/2020 12:003,90
19/01/2020 13:004,00
19/01/2020 14:003,50
19/01/2020 15:003,20
19/01/2020 16:002,25
19/01/2020 17:001,45
19/01/2020 18:001,35
19/01/2020 19:001,20
19/01/2020 20:001,20
19/01/2020 21:000,35
19/01/2020 22:00-0,50
19/01/2020 23:00-0,10
20/01/2020 00:00-0,25
20/01/2020 01:00-0,50
20/01/2020 02:00-0,20
20/01/2020 03:00-0,30
20/01/2020 04:00-0,45
20/01/2020 05:00-0,40
20/01/2020 06:00-1,70
20/01/2020 07:00-1,05
20/01/2020 08:00-1,00
20/01/2020 09:00-0,90
20/01/2020 10:00-0,10
20/01/2020 11:000,45
20/01/2020 12:001,80
20/01/2020 13:001,95
20/01/2020 14:001,00
20/01/2020 15:001,75
20/01/2020 16:001,80
20/01/2020 17:000,75
20/01/2020 18:000,75
20/01/2020 19:000,25
20/01/2020 20:000,10
20/01/2020 21:000,20
20/01/2020 22:000,30
20/01/2020 23:000,80
21/01/2020 00:001,20
21/01/2020 01:001,30
21/01/2020 02:000,70
21/01/2020 03:00-0,30
21/01/2020 04:000,80
21/01/2020 05:000,75
21/01/2020 06:001,15
21/01/2020 07:001,50
21/01/2020 08:001,30
21/01/2020 09:001,90
21/01/2020 10:002,50
21/01/2020 11:003,20
21/01/2020 12:003,95
21/01/2020 13:004,30
21/01/2020 14:003,85
21/01/2020 15:003,65
21/01/2020 16:003,50
21/01/2020 17:003,55
21/01/2020 18:003,20
21/01/2020 19:002,45
21/01/2020 20:002,00
21/01/2020 21:003,00
21/01/2020 22:003,70
21/01/2020 23:003,65
22/01/2020 00:004,00
22/01/2020 01:004,20
22/01/2020 02:004,60
22/01/2020 03:004,80
22/01/2020 04:004,80
22/01/2020 05:004,50
22/01/2020 06:004,40
22/01/2020 07:004,05
22/01/2020 08:003,70
22/01/2020 09:003,60
22/01/2020 10:004,60
22/01/2020 11:005,20
22/01/2020 12:005,40
22/01/2020 13:005,30
22/01/2020 14:005,80
22/01/2020 15:005,75
22/01/2020 16:005,70
22/01/2020 17:003,95
22/01/2020 18:002,75
22/01/2020 19:001,30
22/01/2020 20:001,40
22/01/2020 21:000,90
22/01/2020 22:001,15
22/01/2020 23:001,15
23/01/2020 00:001,15
23/01/2020 01:000,55
23/01/2020 02:000,15
23/01/2020 03:00-0,10
23/01/2020 04:00-1,40
23/01/2020 05:00-1,95
23/01/2020 06:00-1,90
23/01/2020 07:00-2,80
23/01/2020 08:00-3,10
23/01/2020 09:00-2,55
23/01/2020 10:00-1,50
23/01/2020 11:002,65
23/01/2020 12:005,65
23/01/2020 13:007,40
23/01/2020 14:007,90
23/01/2020 15:007,80
23/01/2020 16:007,70
23/01/2020 17:007,40
23/01/2020 18:004,40
23/01/2020 19:002,65
23/01/2020 20:001,35
23/01/2020 21:000,40
23/01/2020 22:000,20
23/01/2020 23:000,80
24/01/2020 00:001,20
24/01/2020 01:001,50
24/01/2020 02:002,10
24/01/2020 03:002,30
24/01/2020 04:002,30
24/01/2020 05:002,30
24/01/2020 06:002,10
24/01/2020 07:002,00
24/01/2020 08:002,00
24/01/2020 09:002,90
24/01/2020 10:003,95
24/01/2020 11:005,10
24/01/2020 12:005,40
24/01/2020 13:005,55
24/01/2020 14:006,05
24/01/2020 15:006,45
24/01/2020 16:006,85
24/01/2020 17:006,65
24/01/2020 18:005,55
24/01/2020 19:004,70
24/01/2020 20:004,15
24/01/2020 21:003,45
24/01/2020 22:002,85
24/01/2020 23:003,20
25/01/2020 00:003,40
25/01/2020 01:003,40
25/01/2020 02:003,40
25/01/2020 03:003,40
25/01/2020 04:003,30
25/01/2020 05:003,30
25/01/2020 06:002,90
25/01/2020 07:002,65
25/01/2020 08:002,40
25/01/2020 09:002,75
25/01/2020 10:003,50
25/01/2020 11:004,50
25/01/2020 12:004,80
25/01/2020 13:005,00
25/01/2020 14:005,40
25/01/2020 15:005,60
25/01/2020 16:005,20
25/01/2020 17:004,30
25/01/2020 18:003,90
25/01/2020 19:003,00
25/01/2020 20:002,80
25/01/2020 21:002,30
25/01/2020 22:000,95
25/01/2020 23:000,70
26/01/2020 00:00-0,20
26/01/2020 01:00-0,65
26/01/2020 02:00-1,30
26/01/2020 03:00-1,70
26/01/2020 04:00-2,20
26/01/2020 05:00-2,20
26/01/2020 06:00-3,00
26/01/2020 07:00-3,55
26/01/2020 08:00-4,10
26/01/2020 09:00-2,85
26/01/2020 10:00-0,45
26/01/2020 11:001,25
26/01/2020 12:002,45
26/01/2020 13:005,60
26/01/2020 14:006,70
26/01/2020 15:006,30
26/01/2020 16:006,60
26/01/2020 17:004,20
26/01/2020 18:002,35
26/01/2020 19:002,10
26/01/2020 20:002,70
26/01/2020 21:002,90
26/01/2020 22:003,40
26/01/2020 23:003,50
27/01/2020 00:003,60
27/01/2020 01:003,60
27/01/2020 02:003,90
27/01/2020 03:003,90
27/01/2020 04:003,90
27/01/2020 05:004,10
27/01/2020 06:004,10
27/01/2020 07:004,00
27/01/2020 08:003,80
27/01/2020 09:003,90
27/01/2020 10:004,40
27/01/2020 11:004,65
27/01/2020 12:005,50
27/01/2020 13:006,25
27/01/2020 14:007,10
27/01/2020 15:007,00
27/01/2020 16:007,20
27/01/2020 17:006,90
27/01/2020 18:006,80
27/01/2020 19:006,85
27/01/2020 20:006,75
27/01/2020 21:006,50
27/01/2020 22:006,10
27/01/2020 23:006,00
28/01/2020 00:006,05
28/01/2020 01:006,50
28/01/2020 02:007,00
28/01/2020 03:006,70
28/01/2020 04:006,55
28/01/2020 05:006,55
28/01/2020 06:006,15
28/01/2020 07:005,65
28/01/2020 08:003,75
28/01/2020 09:004,00
28/01/2020 10:005,75
28/01/2020 11:007,85
28/01/2020 12:008,00
28/01/2020 13:008,65
28/01/2020 14:008,60
28/01/2020 15:008,90
28/01/2020 16:009,05
28/01/2020 17:008,05
28/01/2020 18:007,80
28/01/2020 19:006,05
28/01/2020 20:003,70
28/01/2020 21:003,30
28/01/2020 22:003,80
28/01/2020 23:004,35
29/01/2020 00:004,20
29/01/2020 01:004,40
29/01/2020 02:004,50
29/01/2020 03:003,75
29/01/2020 04:003,60
29/01/2020 05:003,00
29/01/2020 06:002,80
29/01/2020 07:003,10
29/01/2020 08:003,75
29/01/2020 09:006,20
29/01/2020 10:007,35
29/01/2020 11:008,20
29/01/2020 12:008,90
29/01/2020 13:008,90
29/01/2020 14:008,85
29/01/2020 15:008,75
29/01/2020 16:008,85
29/01/2020 17:008,90
29/01/2020 18:008,85
29/01/2020 19:008,75
29/01/2020 20:008,70
29/01/2020 21:008,90
29/01/2020 22:008,90
29/01/2020 23:008,90
30/01/2020 00:009,10
30/01/2020 01:008,90
30/01/2020 02:008,65
30/01/2020 03:008,40
30/01/2020 04:008,25
30/01/2020 05:007,85
30/01/2020 06:007,55
30/01/2020 07:007,20
30/01/2020 08:007,50
30/01/2020 09:007,40
30/01/2020 10:007,55
30/01/2020 11:007,60
30/01/2020 12:007,40
30/01/2020 13:007,45
30/01/2020 14:007,60
30/01/2020 15:007,65
30/01/2020 16:007,60
30/01/2020 17:007,50
30/01/2020 18:007,40
30/01/2020 19:007,15
30/01/2020 20:006,95
30/01/2020 21:006,80
30/01/2020 22:007,10
30/01/2020 23:007,10
31/01/2020 00:007,60
31/01/2020 01:007,00
31/01/2020 02:005,30
31/01/2020 03:005,35
31/01/2020 04:005,75
31/01/2020 05:005,55
31/01/2020 06:004,75
31/01/2020 07:003,90
31/01/2020 08:004,20
31/01/2020 09:003,90
31/01/2020 10:004,80
31/01/2020 11:007,40
31/01/2020 12:0010,20
31/01/2020 13:0010,50
31/01/2020 14:0011,60
31/01/2020 15:0010,95
31/01/2020 16:0011,50
31/01/2020 17:0010,60
31/01/2020 18:0010,30
31/01/2020 19:0010,00
31/01/2020 20:009,40
31/01/2020 21:009,60
31/01/2020 22:0010,05
31/01/2020 23:0010,05
01/02/2020 00:009,90
01/02/2020 01:009,80
01/02/2020 02:009,65
01/02/2020 03:009,35
01/02/2020 04:009,30
01/02/2020 05:008,05
01/02/2020 06:008,25
01/02/2020 07:008,55
01/02/2020 08:007,05
01/02/2020 09:009,70
01/02/2020 10:0010,60
01/02/2020 11:0012,00
01/02/2020 12:0012,15
01/02/2020 13:0012,20
01/02/2020 14:0012,80
01/02/2020 15:0013,70
01/02/2020 16:0013,60
01/02/2020 17:0013,00
01/02/2020 18:0012,70
01/02/2020 19:0012,40
01/02/2020 20:0012,00
01/02/2020 21:0011,90
01/02/2020 22:0011,50
01/02/2020 23:0011,35
02/02/2020 00:0011,20
02/02/2020 01:0010,75
02/02/2020 02:0010,50
02/02/2020 03:0010,45
02/02/2020 04:0010,50
02/02/2020 05:0010,40
02/02/2020 06:0010,00
02/02/2020 07:0010,00
02/02/2020 08:009,90
02/02/2020 09:0010,45
02/02/2020 10:0011,35
02/02/2020 11:0011,35
02/02/2020 12:0011,60
02/02/2020 13:0011,90
02/02/2020 14:0012,15
02/02/2020 15:0012,70
02/02/2020 16:0013,55
02/02/2020 17:0012,85
02/02/2020 18:0011,55
02/02/2020 19:0010,90
02/02/2020 20:0010,15
02/02/2020 21:007,20
02/02/2020 22:006,15
02/02/2020 23:004,85
03/02/2020 00:004,45
03/02/2020 01:003,65
03/02/2020 02:002,95
03/02/2020 03:002,80
03/02/2020 04:002,60
03/02/2020 05:002,30
03/02/2020 06:001,75
03/02/2020 07:001,75
03/02/2020 08:000,70
03/02/2020 09:001,45
03/02/2020 10:005,45
03/02/2020 11:009,85
03/02/2020 12:0013,30
03/02/2020 13:0014,50
03/02/2020 14:0017,10
03/02/2020 15:0017,10
03/02/2020 16:0016,90
03/02/2020 17:0015,70
03/02/2020 18:0013,25
03/02/2020 19:009,35
03/02/2020 20:005,75
03/02/2020 21:004,35
03/02/2020 22:003,55
03/02/2020 23:003,00
04/02/2020 00:003,00
04/02/2020 01:002,35
04/02/2020 02:002,00
04/02/2020 03:002,30
04/02/2020 04:001,80
04/02/2020 05:000,90
04/02/2020 06:000,25
04/02/2020 07:00-0,35
04/02/2020 08:00-0,35
04/02/2020 09:001,40
04/02/2020 10:004,70
04/02/2020 11:008,45
04/02/2020 12:0011,75
04/02/2020 13:0011,05
04/02/2020 14:0012,00
04/02/2020 15:0011,35
04/02/2020 16:0011,50
04/02/2020 17:0010,00
04/02/2020 18:008,20
04/02/2020 19:005,05
04/02/2020 20:004,15
04/02/2020 21:002,60
04/02/2020 22:001,20
04/02/2020 23:000,50
05/02/2020 00:00-0,25
05/02/2020 01:00-1,05
05/02/2020 02:00-1,55
05/02/2020 03:00-2,20
05/02/2020 04:00-2,70
05/02/2020 05:00-2,50
05/02/2020 06:00-2,10
05/02/2020 07:00-2,00
05/02/2020 08:00-2,20
05/02/2020 09:00-2,10
05/02/2020 10:00-0,25
05/02/2020 11:004,35
05/02/2020 12:006,30
05/02/2020 13:007,95
05/02/2020 14:009,00
05/02/2020 15:009,60
05/02/2020 16:009,70
05/02/2020 17:009,75
05/02/2020 18:005,50
05/02/2020 19:002,05
05/02/2020 20:000,35
05/02/2020 21:00-0,80
05/02/2020 22:00-1,65
05/02/2020 23:00-2,05
06/02/2020 00:00-1,75
06/02/2020 01:00-2,45
06/02/2020 02:00-2,20
06/02/2020 03:00-2,65
06/02/2020 04:00-2,55
06/02/2020 05:00-2,60
06/02/2020 06:00-4,15
06/02/2020 07:00-4,35
06/02/2020 08:00-3,80
06/02/2020 09:00-1,55
06/02/2020 10:001,05
06/02/2020 11:006,30
06/02/2020 12:008,90
06/02/2020 13:0010,20
06/02/2020 14:0010,75
06/02/2020 15:0011,30
06/02/2020 16:0010,30
06/02/2020 17:009,30
06/02/2020 18:007,65
06/02/2020 19:004,70
06/02/2020 20:002,75
06/02/2020 21:001,40
06/02/2020 22:000,80
06/02/2020 23:000,10
07/02/2020 00:000,35
07/02/2020 01:000,40
07/02/2020 02:000,55
07/02/2020 03:000,85
07/02/2020 04:000,30
07/02/2020 05:000,60
07/02/2020 06:000,05
07/02/2020 07:00-0,50
07/02/2020 08:00-1,15
07/02/2020 09:000,15
07/02/2020 10:004,20
07/02/2020 11:005,80
07/02/2020 12:008,70
07/02/2020 13:009,70
07/02/2020 14:0010,30
07/02/2020 15:0010,60
07/02/2020 16:0010,05
07/02/2020 17:009,40
07/02/2020 18:008,10
07/02/2020 19:007,30
07/02/2020 20:005,60
07/02/2020 21:002,45
07/02/2020 22:003,05
07/02/2020 23:004,00
08/02/2020 00:003,85
08/02/2020 01:003,60
08/02/2020 02:002,85
08/02/2020 03:003,95
08/02/2020 04:007,50
08/02/2020 05:007,40
08/02/2020 06:005,30
08/02/2020 07:005,25
08/02/2020 08:005,50
08/02/2020 09:005,50
08/02/2020 10:005,75
08/02/2020 11:006,20
08/02/2020 12:006,30
08/02/2020 13:006,80
08/02/2020 14:007,10
08/02/2020 15:007,85
08/02/2020 16:007,80
08/02/2020 17:007,50
08/02/2020 18:006,80
08/02/2020 19:005,60
08/02/2020 20:003,60
08/02/2020 21:003,80
08/02/2020 22:003,70
08/02/2020 23:003,45
09/02/2020 00:002,20
09/02/2020 01:001,35
09/02/2020 02:000,40
09/02/2020 03:00-0,50
09/02/2020 04:000,10
09/02/2020 05:002,20
09/02/2020 06:002,40
09/02/2020 07:003,50
09/02/2020 08:004,10
09/02/2020 09:004,05
09/02/2020 10:005,10
09/02/2020 11:006,85
09/02/2020 12:007,85
09/02/2020 13:008,45
09/02/2020 14:008,50
09/02/2020 15:008,90
09/02/2020 16:008,80
09/02/2020 17:008,70
09/02/2020 18:008,55
09/02/2020 19:008,85
09/02/2020 20:008,55
09/02/2020 21:008,40
09/02/2020 22:008,00
09/02/2020 23:008,50
10/02/2020 00:008,50
10/02/2020 01:008,55
10/02/2020 02:008,25
10/02/2020 03:008,45
10/02/2020 04:008,10
10/02/2020 05:008,30
10/02/2020 06:008,85
10/02/2020 07:008,90
10/02/2020 08:008,90
10/02/2020 09:009,05
10/02/2020 10:0010,45
10/02/2020 11:0011,55
10/02/2020 12:0011,90
10/02/2020 13:0012,60
10/02/2020 14:0014,20
10/02/2020 15:0015,65
10/02/2020 16:0015,10
10/02/2020 17:0014,10
10/02/2020 18:0012,25
10/02/2020 19:0011,50
10/02/2020 20:0011,40
10/02/2020 21:008,65
10/02/2020 22:007,05
10/02/2020 23:005,65
11/02/2020 00:004,60
11/02/2020 01:003,55
11/02/2020 02:003,50
11/02/2020 03:003,70
11/02/2020 04:004,35
11/02/2020 05:004,70
11/02/2020 06:005,00
11/02/2020 07:005,00
11/02/2020 08:005,30
11/02/2020 09:005,80
11/02/2020 10:006,10
11/02/2020 11:007,05
11/02/2020 12:007,75
11/02/2020 13:008,25
11/02/2020 14:009,10
11/02/2020 15:0010,70
11/02/2020 16:0010,85
11/02/2020 17:0010,50
11/02/2020 18:009,10
11/02/2020 19:007,25
11/02/2020 20:006,60
11/02/2020 21:006,30
11/02/2020 22:006,10
11/02/2020 23:006,15
12/02/2020 00:006,20
12/02/2020 01:006,20
12/02/2020 02:006,10
12/02/2020 03:006,10
12/02/2020 04:006,10
12/02/2020 05:006,10
12/02/2020 06:006,05
12/02/2020 07:005,30
12/02/2020 08:005,30
12/02/2020 09:005,20
12/02/2020 10:005,60
12/02/2020 11:007,15
12/02/2020 12:007,95
12/02/2020 13:009,50
12/02/2020 14:0010,70
12/02/2020 15:0011,55
12/02/2020 16:0011,65
12/02/2020 17:0011,30
12/02/2020 18:009,80
12/02/2020 19:008,05
12/02/2020 20:008,70
12/02/2020 21:008,70
12/02/2020 22:008,35
12/02/2020 23:007,80
13/02/2020 00:008,40
13/02/2020 01:008,00
13/02/2020 02:008,50
13/02/2020 03:008,15
13/02/2020 04:007,75
13/02/2020 05:007,30
13/02/2020 06:008,45
13/02/2020 07:008,00
13/02/2020 08:007,90
13/02/2020 09:008,20
13/02/2020 10:008,40
13/02/2020 11:009,10
13/02/2020 12:009,70
13/02/2020 13:0011,00
13/02/2020 14:0011,90
13/02/2020 15:0012,65
13/02/2020 16:0012,60
13/02/2020 17:0013,25
13/02/2020 18:0011,60
13/02/2020 19:0010,55
13/02/2020 20:008,50
13/02/2020 21:005,50
13/02/2020 22:004,45
13/02/2020 23:003,40
14/02/2020 00:003,35
14/02/2020 01:002,95
14/02/2020 02:003,60
14/02/2020 03:004,10
14/02/2020 04:003,90
14/02/2020 05:004,40
14/02/2020 06:004,40
14/02/2020 07:004,40
14/02/2020 08:004,65
14/02/2020 09:004,50
14/02/2020 10:004,40
14/02/2020 11:005,20
14/02/2020 12:006,35
14/02/2020 13:007,45
14/02/2020 14:007,90
14/02/2020 15:008,75
14/02/2020 16:008,20
14/02/2020 17:007,70
14/02/2020 18:007,20
14/02/2020 19:006,80
14/02/2020 20:005,05
14/02/2020 21:005,05
14/02/2020 22:005,00
14/02/2020 23:004,90
15/02/2020 00:004,30
15/02/2020 01:004,05
15/02/2020 02:003,20
15/02/2020 03:002,35
15/02/2020 04:001,85
15/02/2020 05:000,35
15/02/2020 06:00-0,50
15/02/2020 07:00-0,50
15/02/2020 08:004,80
15/02/2020 09:006,15
15/02/2020 10:008,00
15/02/2020 11:009,25
15/02/2020 12:009,85
15/02/2020 13:0010,00
15/02/2020 14:0010,10
15/02/2020 15:009,70
15/02/2020 16:009,70
15/02/2020 17:009,90
15/02/2020 18:009,45
15/02/2020 19:008,70
15/02/2020 20:008,30
15/02/2020 21:008,30
15/02/2020 22:008,40
15/02/2020 23:008,30
16/02/2020 00:008,80
16/02/2020 01:009,20
16/02/2020 02:009,10
16/02/2020 03:008,35
16/02/2020 04:008,40
16/02/2020 05:008,20
16/02/2020 06:008,10
16/02/2020 07:007,90
16/02/2020 08:007,90
16/02/2020 09:007,75
16/02/2020 10:007,60
16/02/2020 11:007,90
16/02/2020 12:008,60
16/02/2020 13:009,55
16/02/2020 14:009,90
16/02/2020 15:0010,40
16/02/2020 16:0010,60
16/02/2020 17:0010,50
16/02/2020 18:0010,50
16/02/2020 19:0010,10
16/02/2020 20:009,95
16/02/2020 21:009,85
16/02/2020 22:009,70
16/02/2020 23:009,50
17/02/2020 00:009,30
17/02/2020 01:009,05
17/02/2020 02:008,90
17/02/2020 03:008,70
17/02/2020 04:008,55
17/02/2020 05:008,55
17/02/2020 06:008,70
17/02/2020 07:008,90
17/02/2020 08:008,90
17/02/2020 09:008,75
17/02/2020 10:006,40
17/02/2020 11:006,15
17/02/2020 12:007,25
17/02/2020 13:008,05
17/02/2020 14:009,45
17/02/2020 15:009,20
17/02/2020 16:008,95
17/02/2020 17:007,90
17/02/2020 18:006,15
17/02/2020 19:004,20
17/02/2020 20:003,15
17/02/2020 21:002,55
17/02/2020 22:000,70
17/02/2020 23:00-0,40
18/02/2020 00:00-1,30
18/02/2020 01:00-1,00
18/02/2020 02:00-0,30
18/02/2020 03:000,10
18/02/2020 04:000,00
18/02/2020 05:00-0,60
18/02/2020 06:00-0,40
18/02/2020 07:000,10
18/02/2020 08:000,35
18/02/2020 09:001,40
18/02/2020 10:003,90
18/02/2020 11:005,20
18/02/2020 12:005,95
18/02/2020 13:007,20
18/02/2020 14:007,45
18/02/2020 15:007,35
18/02/2020 16:007,15
18/02/2020 17:006,15
18/02/2020 18:005,15
18/02/2020 19:005,00
18/02/2020 20:003,10
18/02/2020 21:001,65
18/02/2020 22:00-0,35
18/02/2020 23:00-1,15
19/02/2020 00:00-1,50
19/02/2020 01:00-0,70
19/02/2020 02:00-0,40
19/02/2020 03:00-1,30
19/02/2020 04:00-2,55
19/02/2020 05:00-3,65
19/02/2020 06:00-4,20
19/02/2020 07:00-4,70
19/02/2020 08:00-4,95
19/02/2020 09:00-3,05
19/02/2020 10:00-0,90
19/02/2020 11:001,70
19/02/2020 12:004,70
19/02/2020 13:007,45
19/02/2020 14:0010,10
19/02/2020 15:0011,90
19/02/2020 16:0012,20
19/02/2020 17:0011,90
19/02/2020 18:009,50
19/02/2020 19:005,50
19/02/2020 20:003,10
19/02/2020 21:000,65
19/02/2020 22:00-0,25
19/02/2020 23:00-1,35
20/02/2020 00:00-1,90
20/02/2020 01:00-1,40
20/02/2020 02:00-2,35
20/02/2020 03:00-3,60
20/02/2020 04:00-4,10
20/02/2020 05:00-4,40
20/02/2020 06:00-5,00
20/02/2020 07:00-5,30
20/02/2020 08:00-5,05
20/02/2020 09:00-1,60
20/02/2020 10:004,85
20/02/2020 11:008,90
20/02/2020 12:0010,30
20/02/2020 13:0012,35
20/02/2020 14:0013,40
20/02/2020 15:0014,25
20/02/2020 16:0013,70
20/02/2020 17:0013,55
20/02/2020 18:0011,70
20/02/2020 19:006,85
20/02/2020 20:004,20
20/02/2020 21:003,20
20/02/2020 22:001,90
20/02/2020 23:000,60
21/02/2020 00:00-0,25
21/02/2020 01:00-0,75
21/02/2020 02:00-1,80
21/02/2020 03:00-2,40
21/02/2020 04:00-1,10
21/02/2020 05:00-0,35
21/02/2020 06:00-1,15
21/02/2020 07:00-2,90
21/02/2020 08:00-3,40
21/02/2020 09:00-0,70
21/02/2020 10:002,75
21/02/2020 11:006,75
21/02/2020 12:0010,40
21/02/2020 13:0012,50
21/02/2020 14:0015,05
21/02/2020 15:0016,15
21/02/2020 16:0016,10
21/02/2020 17:0015,60
21/02/2020 18:0013,50
21/02/2020 19:007,15
21/02/2020 20:004,45
21/02/2020 21:002,80
21/02/2020 22:001,45
21/02/2020 23:000,85
22/02/2020 00:001,20
22/02/2020 01:000,30
22/02/2020 02:000,45
22/02/2020 03:000,30
22/02/2020 04:00-0,30
22/02/2020 05:00-1,15
22/02/2020 06:00-1,55
22/02/2020 07:00-2,30
22/02/2020 08:00-1,80
22/02/2020 09:001,45
22/02/2020 10:005,85
22/02/2020 11:0010,85
22/02/2020 12:0013,90
22/02/2020 13:0015,70
22/02/2020 14:0016,90
22/02/2020 15:0017,70
22/02/2020 16:0017,30
22/02/2020 17:0016,75
22/02/2020 18:0013,35
22/02/2020 19:007,85
22/02/2020 20:005,70
22/02/2020 21:003,65
22/02/2020 22:002,50
22/02/2020 23:001,50
23/02/2020 00:000,85
23/02/2020 01:000,80
23/02/2020 02:000,50
23/02/2020 03:001,20
23/02/2020 04:000,55
23/02/2020 05:00-0,05
23/02/2020 06:00-1,10
23/02/2020 07:00-1,70
23/02/2020 08:00-1,80
23/02/2020 09:002,35
23/02/2020 10:007,95
23/02/2020 11:0012,45
23/02/2020 12:0016,05
23/02/2020 13:0017,90
23/02/2020 14:0018,90
23/02/2020 15:0019,70
23/02/2020 16:0019,55
23/02/2020 17:0019,25
23/02/2020 18:0016,55
23/02/2020 19:009,20
23/02/2020 20:006,35
23/02/2020 21:004,60
23/02/2020 22:003,35
23/02/2020 23:002,40
24/02/2020 00:001,60
24/02/2020 01:000,85
24/02/2020 02:000,85
24/02/2020 03:001,70
24/02/2020 04:001,55
24/02/2020 05:000,10
24/02/2020 06:00-0,20
24/02/2020 07:000,10
24/02/2020 08:000,10
24/02/2020 09:003,65
24/02/2020 10:008,85
24/02/2020 11:0012,85
24/02/2020 12:0015,65
24/02/2020 13:0017,40
24/02/2020 14:0019,50
24/02/2020 15:0020,00
24/02/2020 16:0019,05
24/02/2020 17:0018,70
24/02/2020 18:0016,65
24/02/2020 19:0013,70
24/02/2020 20:008,05
24/02/2020 21:005,20
24/02/2020 22:003,80
24/02/2020 23:002,65
25/02/2020 00:002,45
25/02/2020 01:002,35
25/02/2020 02:001,70
25/02/2020 03:001,75
25/02/2020 04:002,30
25/02/2020 05:002,85
25/02/2020 06:004,10
25/02/2020 07:004,10
25/02/2020 08:003,50
25/02/2020 09:005,95
25/02/2020 10:007,35
25/02/2020 11:008,90
25/02/2020 12:0011,20
25/02/2020 13:0012,35
25/02/2020 14:0013,45
25/02/2020 15:0013,60
25/02/2020 16:0012,90
25/02/2020 17:0011,70
25/02/2020 18:0010,45
25/02/2020 19:006,65
25/02/2020 20:004,35
25/02/2020 21:004,00
25/02/2020 22:004,00
25/02/2020 23:003,80
26/02/2020 00:002,90
26/02/2020 01:002,45
26/02/2020 02:001,80
26/02/2020 03:001,70
26/02/2020 04:001,10
26/02/2020 05:00-0,20
26/02/2020 06:000,15
26/02/2020 07:00-0,95
26/02/2020 08:00-1,25
26/02/2020 09:000,45
26/02/2020 10:002,90
26/02/2020 11:005,90
26/02/2020 12:007,50
26/02/2020 13:009,55
26/02/2020 14:0011,20
26/02/2020 15:0010,85
26/02/2020 16:0010,30
26/02/2020 17:009,50
26/02/2020 18:006,95
26/02/2020 19:005,30
26/02/2020 20:004,95
26/02/2020 21:004,55
26/02/2020 22:003,75
26/02/2020 23:002,85
27/02/2020 00:004,65
27/02/2020 01:005,05
27/02/2020 02:005,25
27/02/2020 03:004,70
27/02/2020 04:004,65
27/02/2020 05:004,60
27/02/2020 06:004,45
27/02/2020 07:004,50
27/02/2020 08:004,95
27/02/2020 09:006,10
27/02/2020 10:007,40
27/02/2020 11:008,20
27/02/2020 12:0010,15
27/02/2020 13:0012,30
27/02/2020 14:0014,55
27/02/2020 15:0016,10
27/02/2020 16:0015,80
27/02/2020 17:0015,10
27/02/2020 18:0013,80
27/02/2020 19:0012,20
27/02/2020 20:009,00
27/02/2020 21:007,20
27/02/2020 22:005,40
27/02/2020 23:003,70
28/02/2020 00:002,25
28/02/2020 01:001,60
28/02/2020 02:001,20
28/02/2020 03:000,65
28/02/2020 04:000,15
28/02/2020 05:00-0,10
28/02/2020 06:00-0,70
28/02/2020 07:00-1,00
28/02/2020 08:00-0,90
28/02/2020 09:001,30
28/02/2020 10:005,45
28/02/2020 11:007,65
28/02/2020 12:009,15
28/02/2020 13:0013,20
28/02/2020 14:0014,00
28/02/2020 15:0014,15
28/02/2020 16:0014,05
28/02/2020 17:0013,50
28/02/2020 18:0012,20
28/02/2020 19:0010,50
28/02/2020 20:007,85
28/02/2020 21:007,10
28/02/2020 22:008,40
28/02/2020 23:009,25
29/02/2020 00:008,00
29/02/2020 01:007,40
29/02/2020 02:007,35
29/02/2020 03:006,95
29/02/2020 04:007,10
29/02/2020 05:006,25
29/02/2020 06:006,05
29/02/2020 07:005,20
29/02/2020 08:005,20
29/02/2020 09:005,50
29/02/2020 10:006,60
29/02/2020 11:007,90
29/02/2020 12:0010,10
29/02/2020 13:0010,85
29/02/2020 14:0011,15
29/02/2020 15:0010,85
29/02/2020 16:0010,25
29/02/2020 17:009,40
29/02/2020 18:008,60
29/02/2020 19:007,15
29/02/2020 20:006,80
29/02/2020 21:007,10
29/02/2020 22:006,75
29/02/2020 23:005,95
01/03/2020 00:005,25
01/03/2020 01:004,30
01/03/2020 02:004,95
01/03/2020 03:004,85
01/03/2020 04:004,40
01/03/2020 05:004,50
01/03/2020 06:004,50
01/03/2020 07:004,60
01/03/2020 08:004,70
01/03/2020 09:006,15
01/03/2020 10:007,30
01/03/2020 11:008,75
01/03/2020 12:0010,15
01/03/2020 13:0011,35
01/03/2020 14:0012,45
01/03/2020 15:0013,25
01/03/2020 16:0012,25
01/03/2020 17:0010,95
01/03/2020 18:0010,00
01/03/2020 19:008,70
01/03/2020 20:008,75
01/03/2020 21:006,65
01/03/2020 22:006,20
01/03/2020 23:006,30
02/03/2020 00:007,30
02/03/2020 01:008,60
02/03/2020 02:008,90
02/03/2020 03:009,10
02/03/2020 04:005,75
02/03/2020 05:005,30
02/03/2020 06:003,40
02/03/2020 07:003,25
02/03/2020 08:002,85
02/03/2020 09:002,95
02/03/2020 10:004,05
02/03/2020 11:005,95
02/03/2020 12:005,35
02/03/2020 13:006,35
02/03/2020 14:006,20
02/03/2020 15:005,55
02/03/2020 16:005,20
02/03/2020 17:005,95
02/03/2020 18:004,80
02/03/2020 19:002,85
02/03/2020 20:001,70
02/03/2020 21:002,10
02/03/2020 22:002,65
02/03/2020 23:001,85
03/03/2020 00:001,15
03/03/2020 01:001,55
03/03/2020 02:002,25
03/03/2020 03:002,15
03/03/2020 04:001,45
03/03/2020 05:000,40
03/03/2020 06:000,50
03/03/2020 07:001,60
03/03/2020 08:002,80
03/03/2020 09:004,45
03/03/2020 10:006,05
03/03/2020 11:007,15
03/03/2020 12:0010,10
03/03/2020 13:0014,45
03/03/2020 14:0017,20
03/03/2020 15:0017,40
03/03/2020 16:0016,20
03/03/2020 17:0015,70
03/03/2020 18:0012,80
03/03/2020 19:009,15
03/03/2020 20:006,90
03/03/2020 21:005,35
03/03/2020 22:004,35
03/03/2020 23:004,40
04/03/2020 00:004,50
04/03/2020 01:004,80
04/03/2020 02:005,15
04/03/2020 03:005,60
04/03/2020 04:007,00
04/03/2020 05:007,65
04/03/2020 06:007,25
04/03/2020 07:007,70
04/03/2020 08:007,80
04/03/2020 09:009,70
04/03/2020 10:0011,00
04/03/2020 11:0012,65
04/03/2020 12:0013,40
04/03/2020 13:0014,90
04/03/2020 14:0014,35
04/03/2020 15:0013,90
04/03/2020 16:0014,20
04/03/2020 17:0014,10
04/03/2020 18:0013,05
04/03/2020 19:0012,20
04/03/2020 20:0011,50
04/03/2020 21:0011,20
04/03/2020 22:0010,70
04/03/2020 23:009,60
05/03/2020 00:009,90
05/03/2020 01:009,60
05/03/2020 02:009,80
05/03/2020 03:009,95
05/03/2020 04:0010,00
05/03/2020 05:009,80
05/03/2020 06:009,60
05/03/2020 07:008,85
05/03/2020 08:008,60
05/03/2020 09:008,65
05/03/2020 10:008,20
05/03/2020 11:009,20
05/03/2020 12:0010,65
05/03/2020 13:0010,85
05/03/2020 14:0010,95
05/03/2020 15:0011,05
05/03/2020 16:009,25
05/03/2020 17:009,10
05/03/2020 18:008,25
05/03/2020 19:005,20
05/03/2020 20:003,70
05/03/2020 21:003,25
05/03/2020 22:001,50
05/03/2020 23:000,30
06/03/2020 00:001,75
06/03/2020 01:002,50
06/03/2020 02:002,70
06/03/2020 03:002,75
06/03/2020 04:002,55
06/03/2020 05:001,30
06/03/2020 06:001,85
06/03/2020 07:001,10
06/03/2020 08:000,10
06/03/2020 09:000,20
06/03/2020 10:001,30
06/03/2020 11:002,35
06/03/2020 12:004,30
06/03/2020 13:004,95
06/03/2020 14:004,95
06/03/2020 15:005,10
06/03/2020 16:004,75
06/03/2020 17:005,10
06/03/2020 18:003,60
06/03/2020 19:002,30
06/03/2020 20:002,35
06/03/2020 21:002,10
06/03/2020 22:001,10
06/03/2020 23:000,10
07/03/2020 00:001,20
07/03/2020 01:002,10
07/03/2020 02:002,25
07/03/2020 03:001,70
07/03/2020 04:001,65
07/03/2020 05:001,35
07/03/2020 06:001,60
07/03/2020 07:001,50
07/03/2020 08:001,95
07/03/2020 09:003,10
07/03/2020 10:005,90
07/03/2020 11:007,85
07/03/2020 12:009,45
07/03/2020 13:009,25
07/03/2020 14:0011,05
07/03/2020 15:0011,05
07/03/2020 16:0011,45
07/03/2020 17:0011,70
07/03/2020 18:0011,25
07/03/2020 19:008,45
07/03/2020 20:006,15
07/03/2020 21:003,50
07/03/2020 22:002,15
07/03/2020 23:001,15
08/03/2020 00:000,70
08/03/2020 01:000,20
08/03/2020 02:00-0,70
08/03/2020 03:00-0,75
08/03/2020 04:00-1,30
08/03/2020 05:00-0,85
08/03/2020 06:00-0,85
08/03/2020 07:00-0,35
08/03/2020 08:000,40
08/03/2020 09:002,50
08/03/2020 10:005,55
08/03/2020 11:007,95
08/03/2020 12:008,95
08/03/2020 13:0010,80
08/03/2020 14:0013,00
08/03/2020 15:0012,60
08/03/2020 16:0012,60
08/03/2020 17:0013,45
08/03/2020 18:0012,35
08/03/2020 19:0010,30
08/03/2020 20:007,10
08/03/2020 21:006,55
08/03/2020 22:005,05
08/03/2020 23:003,90
09/03/2020 00:004,20
09/03/2020 01:003,75
09/03/2020 02:002,85
09/03/2020 03:003,50
09/03/2020 04:003,80
09/03/2020 05:003,80
09/03/2020 06:002,35
09/03/2020 07:002,25
09/03/2020 08:002,35
09/03/2020 09:004,10
09/03/2020 10:005,75
09/03/2020 11:008,00
09/03/2020 12:008,50
09/03/2020 13:009,75
09/03/2020 14:0010,00
09/03/2020 15:0010,55
09/03/2020 16:0011,15
09/03/2020 17:0010,90
09/03/2020 18:0010,00
09/03/2020 19:007,55
09/03/2020 20:005,10
09/03/2020 21:003,85
09/03/2020 22:003,00
09/03/2020 23:002,50
10/03/2020 00:002,40
10/03/2020 01:002,50
10/03/2020 02:002,00
10/03/2020 03:001,40
10/03/2020 04:001,80
10/03/2020 05:001,90
10/03/2020 06:001,40
10/03/2020 07:000,95
10/03/2020 08:001,50
10/03/2020 09:004,40
10/03/2020 10:008,85
10/03/2020 11:0012,35
10/03/2020 12:0014,15
10/03/2020 13:0016,75
10/03/2020 14:0019,35
10/03/2020 15:0019,55
10/03/2020 16:0019,30
10/03/2020 17:0019,45
10/03/2020 18:0018,55
10/03/2020 19:0014,45
10/03/2020 20:0011,75
10/03/2020 21:007,85
10/03/2020 22:005,90
10/03/2020 23:004,60
11/03/2020 00:003,10
11/03/2020 01:002,00
11/03/2020 02:001,40
11/03/2020 03:000,55
11/03/2020 04:000,30
11/03/2020 05:000,05
11/03/2020 06:00-0,20
11/03/2020 07:00-0,20
11/03/2020 08:001,85
11/03/2020 09:006,30
11/03/2020 10:0012,00
11/03/2020 11:0014,75
11/03/2020 12:0016,15
11/03/2020 13:0018,75
11/03/2020 14:0019,80
11/03/2020 15:0020,25
11/03/2020 16:0020,50
11/03/2020 17:0020,50
11/03/2020 18:0018,90
11/03/2020 19:0015,80
11/03/2020 20:0012,25
11/03/2020 21:009,70
11/03/2020 22:008,40
11/03/2020 23:007,15
12/03/2020 00:005,75
12/03/2020 01:005,00
12/03/2020 02:004,45
12/03/2020 03:004,05
12/03/2020 04:003,85
12/03/2020 05:003,30
12/03/2020 06:003,20
12/03/2020 07:003,35
12/03/2020 08:005,20
12/03/2020 09:009,05
12/03/2020 10:0010,90
12/03/2020 11:0011,90
12/03/2020 12:0012,00
12/03/2020 13:0013,00
12/03/2020 14:0013,85
12/03/2020 15:0012,50
12/03/2020 16:0011,85
12/03/2020 17:0011,20
12/03/2020 18:0010,20
12/03/2020 19:009,70
12/03/2020 20:008,50
12/03/2020 21:008,05
12/03/2020 22:007,05
12/03/2020 23:005,80
13/03/2020 00:005,55
13/03/2020 01:004,25
13/03/2020 02:003,45
13/03/2020 03:002,60
13/03/2020 04:002,30
13/03/2020 05:002,95
13/03/2020 06:003,90
13/03/2020 07:004,10
13/03/2020 08:003,85
13/03/2020 09:008,40
13/03/2020 10:008,90
13/03/2020 11:009,35
13/03/2020 12:009,40
13/03/2020 13:0010,25
13/03/2020 14:0011,10
13/03/2020 15:0010,90
13/03/2020 16:0010,45
13/03/2020 17:009,80
13/03/2020 18:008,55
13/03/2020 19:005,90
13/03/2020 20:003,95
13/03/2020 21:001,85
13/03/2020 22:000,85
13/03/2020 23:00-0,05
14/03/2020 00:00-1,00
14/03/2020 01:00-1,40
14/03/2020 02:00-2,00
14/03/2020 03:00-2,70
14/03/2020 04:00-3,00
14/03/2020 05:00-3,65
14/03/2020 06:00-3,85
14/03/2020 07:00-4,20
14/03/2020 08:00-2,25
14/03/2020 09:001,40
14/03/2020 10:005,35
14/03/2020 11:008,40
14/03/2020 12:0010,30
14/03/2020 13:0012,05
14/03/2020 14:0014,05
14/03/2020 15:0014,45
14/03/2020 16:0015,25
14/03/2020 17:0015,35
14/03/2020 18:0014,80
14/03/2020 19:009,25
14/03/2020 20:006,00
14/03/2020 21:004,50
14/03/2020 22:002,75
14/03/2020 23:001,65
15/03/2020 00:000,85
15/03/2020 01:000,40
15/03/2020 02:000,10
15/03/2020 03:000,30
15/03/2020 04:000,75
15/03/2020 05:000,10
15/03/2020 06:00-1,05
15/03/2020 07:00-1,55
15/03/2020 08:000,45
15/03/2020 09:005,75
15/03/2020 10:0011,20
15/03/2020 11:0012,60
15/03/2020 12:0014,10
15/03/2020 13:0015,35
15/03/2020 14:0016,00
15/03/2020 15:0016,10
15/03/2020 16:0014,85
15/03/2020 17:0014,30
15/03/2020 18:009,30
15/03/2020 19:007,50
15/03/2020 20:005,60
15/03/2020 21:005,05
15/03/2020 22:004,60
15/03/2020 23:004,10
16/03/2020 00:004,15
16/03/2020 01:002,40
16/03/2020 02:002,30
16/03/2020 03:003,45
16/03/2020 04:002,90
16/03/2020 05:002,75
16/03/2020 06:002,45
16/03/2020 07:003,65
16/03/2020 08:003,10
16/03/2020 09:003,25
16/03/2020 10:004,40
16/03/2020 11:004,90
16/03/2020 12:005,20
16/03/2020 13:005,10
16/03/2020 14:005,80
16/03/2020 15:006,55
16/03/2020 16:006,80
16/03/2020 17:006,25
16/03/2020 18:005,20
16/03/2020 19:005,10
16/03/2020 20:005,15
16/03/2020 21:005,20
16/03/2020 22:005,15
16/03/2020 23:005,50
17/03/2020 00:005,75
17/03/2020 01:004,15
17/03/2020 02:004,25
17/03/2020 03:004,85
17/03/2020 04:005,25
17/03/2020 05:005,05
17/03/2020 06:005,20
17/03/2020 07:005,00
17/03/2020 08:006,05
17/03/2020 09:0010,35
17/03/2020 10:0010,95
17/03/2020 11:0010,90
17/03/2020 12:0010,35
17/03/2020 13:009,75
17/03/2020 14:009,80
17/03/2020 15:009,35
17/03/2020 16:008,95
17/03/2020 17:008,70
17/03/2020 18:008,40
17/03/2020 19:008,30
17/03/2020 20:007,90
17/03/2020 21:005,80
17/03/2020 22:004,60
17/03/2020 23:003,15
18/03/2020 00:002,45
18/03/2020 01:001,90
18/03/2020 02:001,90
18/03/2020 03:002,30
18/03/2020 04:002,25
18/03/2020 05:002,30
18/03/2020 06:001,90
18/03/2020 07:002,45
18/03/2020 08:002,85
18/03/2020 09:005,10
18/03/2020 10:007,70
18/03/2020 11:0011,70
18/03/2020 12:0014,50
18/03/2020 13:0016,40
18/03/2020 14:0017,35
18/03/2020 15:0017,45
18/03/2020 16:0017,70
18/03/2020 17:0017,45
18/03/2020 18:0016,80
18/03/2020 19:0012,90
18/03/2020 20:009,90
18/03/2020 21:008,65
18/03/2020 22:007,05
18/03/2020 23:006,35
19/03/2020 00:005,65
19/03/2020 01:005,10
19/03/2020 02:005,35
19/03/2020 03:004,80
19/03/2020 04:004,30
19/03/2020 05:004,00
19/03/2020 06:004,50
19/03/2020 07:004,50
19/03/2020 08:006,00
19/03/2020 09:009,20
19/03/2020 10:0014,05
19/03/2020 11:0015,00
19/03/2020 12:0015,95
19/03/2020 13:0016,40
19/03/2020 14:0016,35
19/03/2020 15:0015,60
19/03/2020 16:0015,85
19/03/2020 17:0015,30
19/03/2020 18:0014,55
19/03/2020 19:0011,75
19/03/2020 20:0010,20
19/03/2020 21:007,90
19/03/2020 22:006,60
19/03/2020 23:005,70
20/03/2020 00:004,55
20/03/2020 01:003,85
20/03/2020 02:003,25
20/03/2020 03:002,55
20/03/2020 04:001,90
20/03/2020 05:001,40
20/03/2020 06:001,40
20/03/2020 07:001,50
20/03/2020 08:003,15
20/03/2020 09:004,55
20/03/2020 10:006,35
20/03/2020 11:008,65
20/03/2020 12:0010,15
20/03/2020 13:0010,55
20/03/2020 14:0011,05
20/03/2020 15:0011,70
20/03/2020 16:0012,40
20/03/2020 17:0012,00
20/03/2020 18:0012,00
20/03/2020 19:0011,15
20/03/2020 20:009,65
20/03/2020 21:009,10
20/03/2020 22:008,80
20/03/2020 23:008,70
21/03/2020 00:008,40
21/03/2020 01:008,15
21/03/2020 02:007,15
21/03/2020 03:005,20
21/03/2020 04:004,40
21/03/2020 05:004,90
21/03/2020 06:005,00
21/03/2020 07:005,30
21/03/2020 08:006,15
21/03/2020 09:007,55
21/03/2020 10:008,90
21/03/2020 11:0011,40
21/03/2020 12:0013,30
21/03/2020 13:0013,55
21/03/2020 14:0012,60
21/03/2020 15:0013,25
21/03/2020 16:0013,50
21/03/2020 17:0013,20
21/03/2020 18:0012,65
21/03/2020 19:0011,15
21/03/2020 20:008,15
21/03/2020 21:007,75
21/03/2020 22:006,50
21/03/2020 23:005,15
22/03/2020 00:005,10
22/03/2020 01:005,55
22/03/2020 02:005,60
22/03/2020 03:003,95
22/03/2020 04:002,45
22/03/2020 05:001,95
22/03/2020 06:001,35
22/03/2020 07:000,70
22/03/2020 08:002,55
22/03/2020 09:006,90
22/03/2020 10:009,90
22/03/2020 11:0011,85
22/03/2020 12:0013,25
22/03/2020 13:0014,45
22/03/2020 14:0014,55
22/03/2020 15:0014,40
22/03/2020 16:0014,50
22/03/2020 17:0014,10
22/03/2020 18:0013,05
22/03/2020 19:009,55
22/03/2020 20:007,20
22/03/2020 21:004,80
22/03/2020 22:004,50
22/03/2020 23:001,90
23/03/2020 00:001,00
23/03/2020 01:000,60
23/03/2020 02:00-0,10
23/03/2020 03:00-0,60
23/03/2020 04:00-1,20
23/03/2020 05:00-1,10
23/03/2020 06:000,05
23/03/2020 07:00-0,85
23/03/2020 08:000,60
23/03/2020 09:004,40
23/03/2020 10:008,70
23/03/2020 11:009,95
23/03/2020 12:0011,30
23/03/2020 13:0011,85
23/03/2020 14:0012,30
23/03/2020 15:0013,70
23/03/2020 16:0013,30
23/03/2020 17:0012,55
23/03/2020 18:0011,20
23/03/2020 19:009,70
23/03/2020 20:009,50
23/03/2020 21:008,90
23/03/2020 22:008,30
23/03/2020 23:008,20
24/03/2020 00:007,50
24/03/2020 01:007,60
24/03/2020 02:006,60
24/03/2020 03:006,05
24/03/2020 04:005,00
24/03/2020 05:003,45
24/03/2020 06:003,35
24/03/2020 07:002,35
24/03/2020 08:004,00
24/03/2020 09:007,70
24/03/2020 10:0010,05
24/03/2020 11:0012,10
24/03/2020 12:0013,10
24/03/2020 13:0013,65
24/03/2020 14:0014,80
24/03/2020 15:0014,55
24/03/2020 16:0014,90
24/03/2020 17:0015,00
24/03/2020 18:0014,00
24/03/2020 19:0011,10
24/03/2020 20:008,30
24/03/2020 21:006,05
24/03/2020 22:004,40
24/03/2020 23:002,90
25/03/2020 00:002,35
25/03/2020 01:003,45
25/03/2020 02:003,50
25/03/2020 03:002,60
25/03/2020 04:001,85
25/03/2020 05:000,95
25/03/2020 06:000,80
25/03/2020 07:00-0,40
25/03/2020 08:001,85
25/03/2020 09:006,95
25/03/2020 10:009,85
25/03/2020 11:0013,00
25/03/2020 12:0014,25
25/03/2020 13:0014,80
25/03/2020 14:0015,30
25/03/2020 15:0015,05
25/03/2020 16:0014,80
25/03/2020 17:0013,75
25/03/2020 18:0012,75
25/03/2020 19:009,70
25/03/2020 20:007,10
25/03/2020 21:006,15
25/03/2020 22:006,35
25/03/2020 23:003,85
26/03/2020 00:002,80
26/03/2020 01:001,25
26/03/2020 02:000,85
26/03/2020 03:000,00
26/03/2020 04:00-0,60
26/03/2020 05:00-3,20
26/03/2020 06:00-4,35
26/03/2020 07:00-4,55
26/03/2020 08:00-0,65
26/03/2020 09:004,90
26/03/2020 10:006,60
26/03/2020 11:007,40
26/03/2020 12:007,65
26/03/2020 13:007,95
26/03/2020 14:008,45
26/03/2020 15:008,75
26/03/2020 16:008,30
26/03/2020 17:007,60
26/03/2020 18:007,00
26/03/2020 19:005,05
26/03/2020 20:004,05
26/03/2020 21:003,15
26/03/2020 22:002,45
26/03/2020 23:002,30
27/03/2020 00:001,00
27/03/2020 01:000,40
27/03/2020 02:00-1,65
27/03/2020 03:00-2,80
27/03/2020 04:00-3,40
27/03/2020 05:00-3,75
27/03/2020 06:00-4,60
27/03/2020 07:00-4,80
27/03/2020 08:00-1,75
27/03/2020 09:004,20
27/03/2020 10:005,10
27/03/2020 11:006,65
27/03/2020 12:008,35
27/03/2020 13:009,50
27/03/2020 14:0010,50
27/03/2020 15:0010,95
27/03/2020 16:0011,10
27/03/2020 17:0011,20
27/03/2020 18:0010,55
27/03/2020 19:007,55
27/03/2020 20:005,20
27/03/2020 21:003,65
27/03/2020 22:000,40
27/03/2020 23:00-0,40
28/03/2020 00:00-1,00
28/03/2020 01:00-1,65
28/03/2020 02:00-1,95
28/03/2020 03:00-2,80
28/03/2020 04:00-3,30
28/03/2020 05:00-3,75
28/03/2020 06:00-3,90
28/03/2020 07:00-3,75
28/03/2020 08:000,10
28/03/2020 09:004,80
28/03/2020 10:008,95
28/03/2020 11:0010,95
28/03/2020 12:0012,45
28/03/2020 13:0012,80
28/03/2020 14:0014,30
28/03/2020 15:0014,40
28/03/2020 16:0014,60
28/03/2020 17:0014,10
28/03/2020 18:0013,35
28/03/2020 19:009,70
28/03/2020 20:007,40
28/03/2020 21:003,95
28/03/2020 22:002,55
28/03/2020 23:001,05
29/03/2020 00:000,15
29/03/2020 01:00-0,45
29/03/2020 03:00-1,05
29/03/2020 04:00-1,55
29/03/2020 05:00-2,00
29/03/2020 06:00-2,45
29/03/2020 07:00-2,90
29/03/2020 08:00-2,80
29/03/2020 09:000,20
29/03/2020 10:004,90
29/03/2020 11:007,50
29/03/2020 12:0010,85
29/03/2020 13:0011,45
29/03/2020 14:0012,55
29/03/2020 15:0012,45
29/03/2020 16:0011,35
29/03/2020 17:0010,60
29/03/2020 18:008,60
29/03/2020 19:007,05
29/03/2020 20:006,00
29/03/2020 21:005,30
29/03/2020 22:004,50
29/03/2020 23:003,50
30/03/2020 00:003,00
30/03/2020 01:002,90
30/03/2020 02:002,45
30/03/2020 03:001,70
30/03/2020 04:000,80
30/03/2020 05:000,70
30/03/2020 06:000,30
30/03/2020 07:00-0,60
30/03/2020 08:00-0,80
30/03/2020 09:00-0,45
30/03/2020 10:000,10
30/03/2020 11:002,05
30/03/2020 12:002,15
30/03/2020 13:002,25
30/03/2020 14:002,90
30/03/2020 15:003,40
30/03/2020 16:002,65
30/03/2020 17:002,45
30/03/2020 18:002,55
30/03/2020 19:001,25
30/03/2020 20:00-0,25
30/03/2020 21:00-1,00
30/03/2020 22:00-0,85
30/03/2020 23:00-0,90
31/03/2020 00:00-0,70
31/03/2020 01:00-0,80
31/03/2020 02:00-1,15
31/03/2020 03:00-2,30
31/03/2020 04:00-3,15
31/03/2020 05:00-3,50
31/03/2020 06:00-2,05
31/03/2020 07:00-1,00
31/03/2020 08:00-0,90
31/03/2020 09:000,30
31/03/2020 10:001,75
31/03/2020 11:002,35
31/03/2020 12:002,30
31/03/2020 13:003,50
31/03/2020 14:003,75
31/03/2020 15:004,50
31/03/2020 16:004,10
31/03/2020 17:004,05
31/03/2020 18:004,40
31/03/2020 19:004,70
31/03/2020 20:004,40
31/03/2020 21:004,00
31/03/2020 22:004,00
31/03/2020 23:004,35
01/04/2020 00:004,45
01/04/2020 01:004,50
01/04/2020 02:004,50
01/04/2020 03:004,40
01/04/2020 04:004,40
01/04/2020 05:004,35
01/04/2020 06:004,10
01/04/2020 07:004,30
01/04/2020 08:004,40
01/04/2020 09:004,65
01/04/2020 10:005,00
01/04/2020 11:005,25
01/04/2020 12:006,10
01/04/2020 13:007,75
01/04/2020 14:008,55
01/04/2020 15:009,30
01/04/2020 16:0010,30
01/04/2020 17:0010,30
01/04/2020 18:009,35
01/04/2020 19:007,70
01/04/2020 20:006,80
01/04/2020 21:006,70
01/04/2020 22:006,30
01/04/2020 23:005,60
02/04/2020 00:005,50
02/04/2020 01:005,50
02/04/2020 02:005,50
02/04/2020 03:005,55
02/04/2020 04:005,50
02/04/2020 05:005,60
02/04/2020 06:005,70
02/04/2020 07:005,60
02/04/2020 08:005,50
02/04/2020 09:005,95
02/04/2020 10:006,95
02/04/2020 11:008,05
02/04/2020 12:009,35
02/04/2020 13:009,20
02/04/2020 14:009,45
02/04/2020 15:009,00
02/04/2020 16:009,80
02/04/2020 17:009,40
02/04/2020 18:009,25
02/04/2020 19:007,95
02/04/2020 20:006,20
02/04/2020 21:005,25
02/04/2020 22:004,60
02/04/2020 23:001,60
03/04/2020 00:00-0,40
03/04/2020 01:00-1,15
03/04/2020 02:00-1,95
03/04/2020 03:00-2,35
03/04/2020 04:00-2,90
03/04/2020 05:00-3,50
03/04/2020 06:00-2,90
03/04/2020 07:00-1,85
03/04/2020 08:00-1,40
03/04/2020 09:00-0,85
03/04/2020 10:001,50
03/04/2020 11:005,05
03/04/2020 12:005,85
03/04/2020 13:007,95
03/04/2020 14:009,95
03/04/2020 15:0011,85
03/04/2020 16:0012,85
03/04/2020 17:0013,65
03/04/2020 18:0013,75
03/04/2020 19:0013,50
03/04/2020 20:0011,20
03/04/2020 21:006,45
03/04/2020 22:004,30
03/04/2020 23:002,70
04/04/2020 00:001,25
04/04/2020 01:000,15
04/04/2020 02:00-0,35
04/04/2020 03:00-0,40
04/04/2020 04:00-0,75
04/04/2020 05:00-1,35
04/04/2020 06:00-0,60
04/04/2020 07:00-0,95
04/04/2020 08:00-0,50
04/04/2020 09:002,30
04/04/2020 10:007,45
04/04/2020 11:0011,30
04/04/2020 12:0012,55
04/04/2020 13:0013,35
04/04/2020 14:0014,70
04/04/2020 15:0016,10
04/04/2020 16:0015,80
04/04/2020 17:0015,85
04/04/2020 18:0015,30
04/04/2020 19:0014,65
04/04/2020 20:0013,10
04/04/2020 21:0012,15
04/04/2020 22:0012,35
04/04/2020 23:0010,60
05/04/2020 00:0010,45
05/04/2020 01:009,45
05/04/2020 02:007,80
05/04/2020 03:008,25
05/04/2020 04:008,50
05/04/2020 05:006,90
05/04/2020 06:006,35
05/04/2020 07:007,20
05/04/2020 08:007,80
05/04/2020 09:009,10
05/04/2020 10:009,90
05/04/2020 11:0010,10
05/04/2020 12:0010,55
05/04/2020 13:0012,05
05/04/2020 14:0012,55
05/04/2020 15:0013,65
05/04/2020 16:0014,65
05/04/2020 17:0013,50
05/04/2020 18:0013,00
05/04/2020 19:0010,90
05/04/2020 20:0010,50
05/04/2020 21:009,90
05/04/2020 22:009,60
05/04/2020 23:009,20
06/04/2020 00:008,90
06/04/2020 01:008,60
06/04/2020 02:008,60
06/04/2020 03:008,30
06/04/2020 04:008,35
06/04/2020 05:008,60
06/04/2020 06:008,60
06/04/2020 07:008,40
06/04/2020 08:008,60
06/04/2020 09:008,80
06/04/2020 10:009,20
06/04/2020 11:009,05
06/04/2020 12:008,90
06/04/2020 13:009,35
06/04/2020 14:008,80
06/04/2020 15:009,60
06/04/2020 16:0011,00
06/04/2020 17:0010,45
06/04/2020 18:009,90
06/04/2020 19:009,60
06/04/2020 20:008,80
06/04/2020 21:008,85
06/04/2020 22:008,65
06/04/2020 23:008,40
07/04/2020 02:008,20
07/04/2020 03:007,90
07/04/2020 04:007,70
07/04/2020 05:007,70
07/04/2020 06:007,75
07/04/2020 07:007,70
07/04/2020 08:007,75
07/04/2020 09:008,60
07/04/2020 10:009,45
07/04/2020 11:0010,70
07/04/2020 12:0013,35
07/04/2020 13:0014,10
07/04/2020 14:0015,05
07/04/2020 15:0016,10
07/04/2020 16:0014,20
07/04/2020 17:0014,55
07/04/2020 18:0015,60
07/04/2020 19:0014,75
07/04/2020 20:0013,45
07/04/2020 21:0010,30
07/04/2020 22:008,90
07/04/2020 23:008,45
08/04/2020 00:009,00
08/04/2020 01:009,00
08/04/2020 02:008,85
08/04/2020 03:008,70
08/04/2020 04:008,60
08/04/2020 05:008,60
08/04/2020 06:008,55
08/04/2020 07:008,30
08/04/2020 08:008,20
08/04/2020 09:008,40
08/04/2020 10:008,85
08/04/2020 11:0010,60
08/04/2020 12:0012,75
08/04/2020 13:0013,75
08/04/2020 14:0015,40
08/04/2020 15:0017,65
08/04/2020 16:0018,10
08/04/2020 17:0018,65
08/04/2020 18:0018,10
08/04/2020 19:0018,15
08/04/2020 20:0016,15
08/04/2020 21:0014,25
08/04/2020 22:0013,65
08/04/2020 23:0012,10
09/04/2020 00:009,80
09/04/2020 01:007,65
09/04/2020 02:006,55
09/04/2020 03:006,50
09/04/2020 04:005,90
09/04/2020 05:005,45
09/04/2020 06:004,60
09/04/2020 07:005,00
09/04/2020 08:006,00
09/04/2020 09:006,65
09/04/2020 10:008,20
09/04/2020 11:0010,75
09/04/2020 12:0014,95
09/04/2020 13:0016,45
09/04/2020 14:0017,70
09/04/2020 15:0017,35
09/04/2020 16:0017,70
09/04/2020 17:0017,20
09/04/2020 18:0016,95
09/04/2020 19:0012,30
09/04/2020 20:0010,90
09/04/2020 21:0010,50
09/04/2020 22:0010,40
09/04/2020 23:0010,40
10/04/2020 00:0010,50
10/04/2020 01:0010,40
10/04/2020 02:0010,40
10/04/2020 03:0010,30
10/04/2020 04:0010,30
10/04/2020 05:0010,35
10/04/2020 06:0010,10
10/04/2020 07:009,95
10/04/2020 08:0010,05
10/04/2020 09:0010,20
10/04/2020 10:0010,20
10/04/2020 11:0010,30
10/04/2020 12:0010,40
10/04/2020 13:0011,00
10/04/2020 14:0011,50
10/04/2020 15:0012,50
10/04/2020 16:0011,85
10/04/2020 17:0011,30
10/04/2020 18:0011,20
10/04/2020 19:0010,55
10/04/2020 20:0010,60
10/04/2020 21:0010,35
10/04/2020 22:0010,30
10/04/2020 23:0010,20
11/04/2020 00:009,95
11/04/2020 01:009,90
11/04/2020 02:009,70
11/04/2020 03:009,65
11/04/2020 04:009,60
11/04/2020 05:009,35
11/04/2020 06:009,40
11/04/2020 07:009,60
11/04/2020 08:009,60
11/04/2020 09:009,85
11/04/2020 10:0010,35
11/04/2020 11:0010,90
11/04/2020 12:0011,50
11/04/2020 13:0011,80
11/04/2020 14:0011,50
11/04/2020 15:0012,20
11/04/2020 16:0012,30
11/04/2020 17:0012,40
11/04/2020 18:0011,95
11/04/2020 19:0011,50
11/04/2020 20:0010,90
11/04/2020 21:0010,30
11/04/2020 22:0010,00
11/04/2020 23:009,60
12/04/2020 00:008,60
12/04/2020 01:008,05
12/04/2020 02:007,65
12/04/2020 03:008,10
12/04/2020 04:007,65
12/04/2020 05:007,70
12/04/2020 06:007,25
12/04/2020 07:006,45
12/04/2020 08:005,80
12/04/2020 09:008,60
12/04/2020 10:0011,00
12/04/2020 11:0011,95
12/04/2020 12:0013,35
12/04/2020 13:0014,45
12/04/2020 14:0015,60
12/04/2020 15:0015,60
12/04/2020 16:0015,50
12/04/2020 17:0014,50
12/04/2020 18:0013,75
12/04/2020 19:0013,90
12/04/2020 20:0011,80
12/04/2020 21:0010,75
12/04/2020 22:0010,95
12/04/2020 23:0010,60
13/04/2020 00:0010,50
13/04/2020 01:0010,10
13/04/2020 02:009,65
13/04/2020 03:009,15
13/04/2020 04:009,30
13/04/2020 05:009,25
13/04/2020 06:009,25
13/04/2020 07:007,90
13/04/2020 08:007,85
13/04/2020 09:007,85
13/04/2020 10:008,20
13/04/2020 11:008,15
13/04/2020 12:009,35
13/04/2020 13:0010,00
13/04/2020 14:0010,40
13/04/2020 15:009,90
13/04/2020 16:009,00
13/04/2020 17:008,65
13/04/2020 18:0010,00
13/04/2020 19:0010,10
13/04/2020 20:009,50
13/04/2020 21:008,75
13/04/2020 22:007,00
13/04/2020 23:006,35
14/04/2020 00:006,55
14/04/2020 01:005,70
14/04/2020 02:005,25
14/04/2020 03:004,70
14/04/2020 04:004,80
14/04/2020 05:003,80
14/04/2020 06:002,80
14/04/2020 07:002,70
14/04/2020 08:003,55
14/04/2020 09:007,80
14/04/2020 10:0012,60
14/04/2020 11:0013,70
14/04/2020 12:0014,45
14/04/2020 13:0015,80
14/04/2020 14:0016,40
14/04/2020 15:0016,90
14/04/2020 16:0017,00
14/04/2020 17:0015,70
14/04/2020 18:0014,75
14/04/2020 19:0013,40
14/04/2020 20:009,10
14/04/2020 21:008,90
14/04/2020 22:008,80
14/04/2020 23:008,90
15/04/2020 00:008,90
15/04/2020 01:008,90
15/04/2020 02:008,70
15/04/2020 03:008,40
15/04/2020 04:008,60
15/04/2020 05:008,40
15/04/2020 06:008,20
15/04/2020 07:008,15
15/04/2020 08:007,90
15/04/2020 09:0011,10
15/04/2020 10:0011,35
15/04/2020 11:0011,40
15/04/2020 12:0010,90
15/04/2020 13:009,45
15/04/2020 14:009,65
15/04/2020 15:0010,45
15/04/2020 16:0011,30
15/04/2020 17:0011,40
15/04/2020 18:0012,80
15/04/2020 19:0011,80
15/04/2020 20:0010,50
15/04/2020 21:009,10
15/04/2020 22:008,20
15/04/2020 23:008,00
16/04/2020 00:007,65
16/04/2020 01:007,75
16/04/2020 02:007,90
16/04/2020 03:007,80
16/04/2020 04:008,10
16/04/2020 05:008,20
16/04/2020 06:007,85
16/04/2020 07:007,80
16/04/2020 08:008,45
16/04/2020 09:008,85
16/04/2020 10:0010,25
16/04/2020 11:0011,00
16/04/2020 12:0011,40
16/04/2020 13:0012,70
16/04/2020 14:0013,05
16/04/2020 15:0010,75
16/04/2020 16:009,60
16/04/2020 17:008,40
16/04/2020 18:008,85
16/04/2020 19:009,30
16/04/2020 20:008,65
16/04/2020 21:008,15
16/04/2020 22:007,80
16/04/2020 23:007,75
17/04/2020 00:007,70
17/04/2020 01:008,25
17/04/2020 02:008,40
17/04/2020 03:008,30
17/04/2020 04:008,25
17/04/2020 05:008,40
17/04/2020 06:008,60
17/04/2020 07:008,60
17/04/2020 08:008,70
17/04/2020 09:009,45
17/04/2020 10:0010,30
17/04/2020 11:0011,35
17/04/2020 12:0010,70
17/04/2020 13:0011,65
17/04/2020 14:008,60
17/04/2020 15:008,70
17/04/2020 16:0010,10
17/04/2020 17:0011,60
17/04/2020 18:0012,05
17/04/2020 19:0011,15
17/04/2020 20:0010,00
17/04/2020 21:009,65
17/04/2020 22:008,55
17/04/2020 23:008,10
18/04/2020 00:008,45
18/04/2020 01:008,20
18/04/2020 02:008,15
18/04/2020 03:007,70
18/04/2020 04:008,35
18/04/2020 05:008,55
18/04/2020 06:008,30
18/04/2020 07:007,65
18/04/2020 08:007,85
18/04/2020 09:009,70
18/04/2020 10:0010,85
18/04/2020 11:0011,30
18/04/2020 12:0012,55
18/04/2020 13:0013,40
18/04/2020 14:0014,25
18/04/2020 15:0015,20
18/04/2020 16:0015,75
18/04/2020 17:0015,35
18/04/2020 18:0014,60
18/04/2020 19:0014,10
18/04/2020 20:0012,60
18/04/2020 21:0010,55
18/04/2020 22:009,45
18/04/2020 23:009,45
19/04/2020 00:008,80
19/04/2020 01:008,50
19/04/2020 02:008,20
19/04/2020 03:006,90
19/04/2020 04:006,60
19/04/2020 05:006,00
19/04/2020 06:007,00
19/04/2020 07:006,90
19/04/2020 08:006,65
19/04/2020 09:008,95
19/04/2020 10:0010,70
19/04/2020 11:0011,60
19/04/2020 12:0013,70
19/04/2020 13:0013,80
19/04/2020 14:0014,05
19/04/2020 15:0011,55
19/04/2020 16:009,70
19/04/2020 17:009,80
19/04/2020 18:009,90
19/04/2020 19:009,60
19/04/2020 20:009,10
19/04/2020 21:008,20
19/04/2020 22:007,05
19/04/2020 23:005,40
20/04/2020 00:004,50
20/04/2020 01:003,55
20/04/2020 02:002,90
20/04/2020 03:002,40
20/04/2020 04:001,95
20/04/2020 05:001,60
20/04/2020 06:001,90
20/04/2020 07:002,35
20/04/2020 08:003,20
20/04/2020 09:004,50
20/04/2020 10:006,35
20/04/2020 11:009,65
20/04/2020 12:0011,60
20/04/2020 13:0013,45
20/04/2020 14:0013,95
20/04/2020 15:0015,15
20/04/2020 16:0015,30
20/04/2020 17:0014,65
20/04/2020 18:0014,30
20/04/2020 19:0013,75
20/04/2020 20:0012,75
20/04/2020 21:0011,05
20/04/2020 22:008,70
20/04/2020 23:007,40
21/04/2020 00:006,75
21/04/2020 01:006,15
21/04/2020 02:005,50
21/04/2020 03:004,65
21/04/2020 04:004,20
21/04/2020 05:003,50
21/04/2020 06:003,20
21/04/2020 07:003,50
21/04/2020 08:003,70
21/04/2020 09:006,75
21/04/2020 10:0010,10
21/04/2020 11:0011,40
21/04/2020 12:0011,50
21/04/2020 13:0011,50
21/04/2020 14:0011,20
21/04/2020 15:0011,10
21/04/2020 16:0011,35
21/04/2020 17:0011,45
21/04/2020 18:0010,80
21/04/2020 19:0010,05
21/04/2020 20:009,35
21/04/2020 21:008,60
21/04/2020 22:008,00
21/04/2020 23:007,35
22/04/2020 00:005,95
22/04/2020 01:004,65
22/04/2020 02:003,80
22/04/2020 03:003,90
22/04/2020 04:003,90
22/04/2020 05:003,85
22/04/2020 06:003,95
22/04/2020 07:003,95
22/04/2020 08:004,55
22/04/2020 09:007,05
22/04/2020 10:009,00
22/04/2020 11:0010,50
22/04/2020 12:0011,90
22/04/2020 13:0013,00
22/04/2020 14:0013,15
22/04/2020 15:0013,10
22/04/2020 16:0013,00
22/04/2020 17:0012,20
22/04/2020 18:0012,20
22/04/2020 19:0011,00
22/04/2020 20:009,95
22/04/2020 21:008,90
22/04/2020 22:008,80
22/04/2020 23:008,80
23/04/2020 00:008,60
23/04/2020 01:008,55
23/04/2020 02:008,35
23/04/2020 03:008,25
23/04/2020 04:008,05
23/04/2020 05:008,20
23/04/2020 06:008,30
23/04/2020 07:008,30
23/04/2020 08:008,70
23/04/2020 09:009,00
23/04/2020 10:009,95
23/04/2020 11:0011,30
23/04/2020 12:0014,10
23/04/2020 13:0014,75
23/04/2020 14:0015,05
23/04/2020 15:0015,35
23/04/2020 16:0015,15
23/04/2020 17:0015,20
23/04/2020 18:0015,45
23/04/2020 19:0015,45
23/04/2020 20:0014,70
23/04/2020 21:0012,95
23/04/2020 22:0012,70
23/04/2020 23:0012,15
24/04/2020 00:008,75
24/04/2020 01:008,05
24/04/2020 02:008,70
24/04/2020 03:008,90
24/04/2020 04:008,90
24/04/2020 05:008,90
24/04/2020 06:007,80
24/04/2020 07:007,50
24/04/2020 08:009,50
24/04/2020 09:0013,30
24/04/2020 10:0014,05
24/04/2020 11:0014,70
24/04/2020 12:0016,50
24/04/2020 13:0018,00
24/04/2020 14:0016,75
24/04/2020 15:0016,60
24/04/2020 16:0018,40
24/04/2020 17:0018,30
24/04/2020 18:0017,15
24/04/2020 19:0014,65
24/04/2020 20:0012,25
24/04/2020 21:0011,40
24/04/2020 22:009,15
24/04/2020 23:008,00
25/04/2020 00:007,05
25/04/2020 01:007,05
25/04/2020 02:006,10
25/04/2020 03:005,60
25/04/2020 04:005,40
25/04/2020 05:004,55
25/04/2020 06:005,10
25/04/2020 07:005,20
25/04/2020 08:005,55
25/04/2020 09:007,70
25/04/2020 10:0012,55
25/04/2020 11:0015,25
25/04/2020 12:0016,75
25/04/2020 13:0018,10
25/04/2020 14:0017,40
25/04/2020 15:0014,85
25/04/2020 16:0015,65
25/04/2020 17:0015,00
25/04/2020 18:0013,65
25/04/2020 19:0012,65
25/04/2020 20:0011,55
25/04/2020 21:0010,95
25/04/2020 22:0011,05
25/04/2020 23:0010,90
26/04/2020 00:0010,20
26/04/2020 01:009,95
26/04/2020 02:0010,10
26/04/2020 03:009,90
26/04/2020 04:009,60
26/04/2020 05:009,20
26/04/2020 06:008,80
26/04/2020 07:008,50
26/04/2020 08:008,80
26/04/2020 09:009,75
26/04/2020 10:0011,10
26/04/2020 11:0012,60
26/04/2020 12:0013,10
26/04/2020 13:0013,70
26/04/2020 14:0012,05
26/04/2020 15:0012,40
26/04/2020 16:0012,20
26/04/2020 17:0012,00
26/04/2020 18:0011,35
26/04/2020 19:0011,65
26/04/2020 20:0010,60
26/04/2020 21:0010,20
26/04/2020 22:009,35
26/04/2020 23:008,95
27/04/2020 00:009,10
27/04/2020 01:009,30
27/04/2020 02:009,80
27/04/2020 03:009,75
27/04/2020 04:009,35
27/04/2020 05:008,90
27/04/2020 06:008,90
27/04/2020 07:008,00
27/04/2020 08:008,45
27/04/2020 09:008,75
27/04/2020 10:009,80
27/04/2020 11:009,95
27/04/2020 12:0010,90
27/04/2020 13:0011,10
27/04/2020 14:0012,05
27/04/2020 15:0012,50
27/04/2020 16:0010,65
27/04/2020 17:0011,40
27/04/2020 18:0012,00
27/04/2020 19:0011,00
27/04/2020 20:009,95
27/04/2020 21:006,55
27/04/2020 22:005,30
27/04/2020 23:004,85
28/04/2020 00:004,00
28/04/2020 01:003,90
28/04/2020 02:003,95
28/04/2020 03:003,90
28/04/2020 04:004,45
28/04/2020 05:005,05
28/04/2020 06:005,25
28/04/2020 07:005,50
28/04/2020 08:005,90
28/04/2020 09:006,80
28/04/2020 10:008,10
28/04/2020 11:009,00
28/04/2020 12:009,85
28/04/2020 13:0010,65
28/04/2020 14:0011,85
28/04/2020 15:0012,85
28/04/2020 16:0012,95
28/04/2020 17:0013,90
28/04/2020 18:0014,10
28/04/2020 19:0012,20
28/04/2020 20:0010,90
28/04/2020 21:009,45
28/04/2020 22:008,85
28/04/2020 23:008,00
29/04/2020 00:006,15
29/04/2020 01:005,50
29/04/2020 02:004,75
29/04/2020 03:006,35
29/04/2020 04:007,25
29/04/2020 05:007,00
29/04/2020 06:007,00
29/04/2020 07:007,00
29/04/2020 08:007,00
29/04/2020 09:007,20
29/04/2020 10:007,40
29/04/2020 11:007,60
29/04/2020 12:008,00
29/04/2020 13:008,45
29/04/2020 14:009,00
29/04/2020 15:009,85
29/04/2020 16:0010,20
29/04/2020 17:0010,35
29/04/2020 18:0011,35
29/04/2020 19:0011,10
29/04/2020 20:0010,75
29/04/2020 21:0010,05
29/04/2020 22:009,35
29/04/2020 23:008,80
30/04/2020 00:008,40
30/04/2020 01:007,70
30/04/2020 02:007,40
30/04/2020 03:007,20
30/04/2020 04:007,10
30/04/2020 05:007,05
30/04/2020 06:007,05
30/04/2020 07:007,00
30/04/2020 08:007,05
30/04/2020 09:007,15
30/04/2020 10:008,10
30/04/2020 11:008,30
30/04/2020 12:008,80
30/04/2020 13:009,95
30/04/2020 14:0010,40
30/04/2020 15:0010,30
30/04/2020 16:0011,85
30/04/2020 17:0011,00
30/04/2020 18:009,95
30/04/2020 19:009,60
30/04/2020 20:009,20
30/04/2020 21:008,90
30/04/2020 22:008,90
30/04/2020 23:009,30
01/05/2020 00:009,20
01/05/2020 01:009,30
01/05/2020 02:009,40
01/05/2020 03:009,45
01/05/2020 04:009,45
01/05/2020 05:009,60
01/05/2020 06:009,80
01/05/2020 07:0010,05
01/05/2020 08:0010,50
01/05/2020 09:0010,80
01/05/2020 10:0011,35
01/05/2020 11:0011,90
01/05/2020 12:0012,75
01/05/2020 13:0013,65
01/05/2020 14:0015,25
01/05/2020 15:0016,20
01/05/2020 16:0015,95
01/05/2020 17:0018,85
01/05/2020 18:0018,90
01/05/2020 19:0017,95
01/05/2020 20:0017,15
01/05/2020 21:0015,75
01/05/2020 22:0014,65
01/05/2020 23:0013,55
02/05/2020 00:0013,10
02/05/2020 01:0012,65
02/05/2020 02:0012,20
02/05/2020 03:0011,00
02/05/2020 04:0010,10
02/05/2020 05:008,60
02/05/2020 06:007,85
02/05/2020 07:008,65
02/05/2020 08:0012,30
02/05/2020 09:0014,05
02/05/2020 10:0015,30
02/05/2020 11:0016,15
02/05/2020 12:0016,90
02/05/2020 13:0017,60
02/05/2020 14:0018,65
02/05/2020 15:0019,75
02/05/2020 16:0020,05
02/05/2020 17:0020,60
02/05/2020 18:0020,90
02/05/2020 19:0018,70
02/05/2020 20:0016,25
02/05/2020 21:0014,25
02/05/2020 22:0011,85
02/05/2020 23:0010,50
03/05/2020 00:009,95
03/05/2020 01:008,85
03/05/2020 02:007,90
03/05/2020 03:006,75
03/05/2020 04:006,05
03/05/2020 05:005,55
03/05/2020 06:005,20
03/05/2020 07:006,35
03/05/2020 08:008,20
03/05/2020 09:0010,00
03/05/2020 10:0012,25
03/05/2020 11:0016,90
03/05/2020 12:0019,60
03/05/2020 13:0021,10
03/05/2020 14:0022,10
03/05/2020 15:0022,45
03/05/2020 16:0022,90
03/05/2020 17:0023,60
03/05/2020 18:0023,80
03/05/2020 19:0023,30
03/05/2020 20:0021,35
03/05/2020 21:0016,95
03/05/2020 22:0013,35
03/05/2020 23:0011,50
04/05/2020 00:0010,40
04/05/2020 01:009,40
04/05/2020 02:008,75
04/05/2020 03:008,30
04/05/2020 04:007,50
04/05/2020 05:006,60
04/05/2020 06:006,30
04/05/2020 07:006,50
04/05/2020 08:008,75
04/05/2020 09:0013,50
04/05/2020 10:0016,70
04/05/2020 11:0019,50
04/05/2020 12:0020,85
04/05/2020 13:0021,10
04/05/2020 14:0022,50
04/05/2020 15:0024,45
04/05/2020 16:0024,90
04/05/2020 17:0024,90
04/05/2020 18:0023,05
04/05/2020 19:0021,20
04/05/2020 20:0019,90
04/05/2020 21:0017,00
04/05/2020 22:0014,95
04/05/2020 23:0013,75
05/05/2020 00:0013,10
05/05/2020 01:0013,20
05/05/2020 02:0012,70
05/05/2020 03:0012,15
05/05/2020 04:0011,75
05/05/2020 05:0010,70
05/05/2020 06:009,65
05/05/2020 07:009,70
05/05/2020 08:0010,90
05/05/2020 09:0012,00
05/05/2020 10:0012,75
05/05/2020 11:0014,35
05/05/2020 12:0015,35
05/05/2020 13:0016,25
05/05/2020 14:0016,85
05/05/2020 15:0017,30
05/05/2020 16:0016,85
05/05/2020 17:0017,80
05/05/2020 18:0018,10
05/05/2020 19:0016,95
05/05/2020 20:0016,05
05/05/2020 21:0012,85
05/05/2020 22:009,15
05/05/2020 23:008,00
06/05/2020 00:006,80
06/05/2020 01:006,55
06/05/2020 02:005,80
06/05/2020 03:005,60
06/05/2020 04:004,75
06/05/2020 05:004,00
06/05/2020 06:003,45
06/05/2020 07:003,40
06/05/2020 08:006,30
06/05/2020 09:0010,90
06/05/2020 10:0014,90
06/05/2020 11:0017,20
06/05/2020 12:0018,70
06/05/2020 13:0019,00
06/05/2020 14:0019,10
06/05/2020 15:0019,95
06/05/2020 16:0020,10
06/05/2020 17:0020,65
06/05/2020 18:0020,90
06/05/2020 19:0020,40
06/05/2020 20:0019,65
06/05/2020 21:0015,35
06/05/2020 22:0011,90
06/05/2020 23:0010,35
07/05/2020 00:008,80
07/05/2020 01:008,10
07/05/2020 02:008,60
07/05/2020 03:008,60
07/05/2020 04:007,95
07/05/2020 05:007,55
07/05/2020 06:006,70
07/05/2020 07:006,90
07/05/2020 08:009,80
07/05/2020 09:0013,55
07/05/2020 10:0017,30
07/05/2020 11:0019,50
07/05/2020 12:0020,40
07/05/2020 13:0022,25
07/05/2020 14:0023,25
07/05/2020 15:0024,05
07/05/2020 16:0024,25
07/05/2020 17:0024,85
07/05/2020 18:0024,00
07/05/2020 19:0022,50
07/05/2020 20:0020,60
07/05/2020 21:0012,75
07/05/2020 22:0011,95
07/05/2020 23:0010,85
08/05/2020 00:0011,30
08/05/2020 01:0011,80
08/05/2020 02:0011,95
08/05/2020 03:0010,60
08/05/2020 04:0010,60
08/05/2020 05:0010,55
08/05/2020 06:0011,10
08/05/2020 07:0010,95
08/05/2020 08:0011,10
08/05/2020 09:0011,30
08/05/2020 10:0012,40
08/05/2020 11:0014,40
08/05/2020 12:0015,70
08/05/2020 13:0018,00
08/05/2020 14:0018,80
08/05/2020 15:0020,15
08/05/2020 16:0019,80
08/05/2020 17:0020,55
08/05/2020 18:0019,95
08/05/2020 19:0019,95
08/05/2020 20:0016,95
08/05/2020 21:0012,45
08/05/2020 22:0012,35
08/05/2020 23:0012,10
09/05/2020 00:0012,35
09/05/2020 01:0012,20
09/05/2020 02:0010,40
09/05/2020 03:009,00
09/05/2020 04:008,35
09/05/2020 05:008,55
09/05/2020 06:009,25
09/05/2020 07:008,80
09/05/2020 08:009,40
09/05/2020 09:0012,35
09/05/2020 10:0013,85
09/05/2020 11:0016,40
09/05/2020 12:0016,70
09/05/2020 13:0017,00
09/05/2020 14:0017,80
09/05/2020 15:0017,40
09/05/2020 16:0017,35
09/05/2020 17:0017,40
09/05/2020 18:0018,00
09/05/2020 19:0017,70
09/05/2020 20:0015,70
09/05/2020 21:0012,35
09/05/2020 22:009,80
09/05/2020 23:008,80
10/05/2020 00:008,95
10/05/2020 01:009,20
10/05/2020 02:008,95
10/05/2020 03:008,90
10/05/2020 04:008,95
10/05/2020 05:009,15
10/05/2020 06:008,70
10/05/2020 07:008,20
10/05/2020 08:008,70
10/05/2020 09:009,20
10/05/2020 10:0010,70
10/05/2020 11:0012,05
10/05/2020 12:0010,90
10/05/2020 13:0011,25
10/05/2020 14:0010,20
10/05/2020 15:0010,20
10/05/2020 16:0012,30
10/05/2020 17:0013,45
10/05/2020 18:0011,40
10/05/2020 19:0010,80
10/05/2020 20:0010,50
10/05/2020 21:0010,10
10/05/2020 22:009,85
10/05/2020 23:009,35
11/05/2020 00:009,10
11/05/2020 01:008,30
11/05/2020 02:008,35
11/05/2020 03:008,40
11/05/2020 04:007,90
11/05/2020 05:007,05
11/05/2020 06:005,50
11/05/2020 07:005,85
11/05/2020 08:007,15
11/05/2020 09:008,65
11/05/2020 10:0011,35
11/05/2020 11:0013,70
11/05/2020 12:0014,90
11/05/2020 13:0015,05
11/05/2020 14:0015,20
11/05/2020 15:0016,25
11/05/2020 16:0014,70
11/05/2020 17:0015,10
11/05/2020 18:0014,65
11/05/2020 19:0013,00
11/05/2020 20:0011,95
11/05/2020 21:0010,45
11/05/2020 22:0010,30
11/05/2020 23:009,65
12/05/2020 00:009,20
12/05/2020 01:008,90
12/05/2020 02:008,90
12/05/2020 03:008,75
12/05/2020 04:008,70
12/05/2020 05:008,45
12/05/2020 06:008,35
12/05/2020 07:008,40
12/05/2020 08:007,70
12/05/2020 09:008,25
12/05/2020 10:008,80
12/05/2020 11:0010,20
12/05/2020 12:0011,90
12/05/2020 13:0012,65
12/05/2020 14:0013,55
12/05/2020 15:0013,70
12/05/2020 16:0014,90
12/05/2020 17:0015,00
12/05/2020 18:0015,30
12/05/2020 19:0013,60
12/05/2020 20:0012,40
12/05/2020 21:0010,85
12/05/2020 22:0010,30
12/05/2020 23:0010,00
13/05/2020 00:009,55
13/05/2020 01:008,80
13/05/2020 02:008,70
13/05/2020 03:008,60
13/05/2020 04:007,85
13/05/2020 05:007,05
13/05/2020 06:006,80
13/05/2020 07:007,10
13/05/2020 08:007,75
13/05/2020 09:009,00
13/05/2020 10:0010,75
13/05/2020 11:0012,15
13/05/2020 12:0013,05
13/05/2020 13:0013,35
13/05/2020 14:0011,75
13/05/2020 15:0011,45
13/05/2020 16:0011,35
13/05/2020 17:0012,55
13/05/2020 18:0014,30
13/05/2020 19:0013,55
13/05/2020 20:0011,40
13/05/2020 21:0010,90
13/05/2020 22:0010,15
13/05/2020 23:009,60
14/05/2020 00:009,35
14/05/2020 01:008,80
14/05/2020 02:008,85
14/05/2020 03:008,40
14/05/2020 04:008,80
14/05/2020 05:007,55
14/05/2020 06:007,75
14/05/2020 07:007,90
14/05/2020 08:008,70
14/05/2020 09:009,75
14/05/2020 10:0010,30
14/05/2020 11:0010,20
14/05/2020 12:0010,50
14/05/2020 13:0011,80
14/05/2020 14:0012,95
14/05/2020 15:0012,40
14/05/2020 16:0012,65
14/05/2020 17:0013,05
14/05/2020 18:0012,75
14/05/2020 19:0012,40
14/05/2020 20:0010,90
14/05/2020 21:009,35
14/05/2020 22:008,90
14/05/2020 23:008,30
15/05/2020 00:007,75
15/05/2020 01:007,60
15/05/2020 02:007,40
15/05/2020 03:005,60
15/05/2020 04:004,75
15/05/2020 05:004,55
15/05/2020 06:004,15
15/05/2020 07:003,95
15/05/2020 08:005,90
15/05/2020 09:009,25
15/05/2020 10:0010,95
15/05/2020 11:0010,30
15/05/2020 12:009,30
15/05/2020 13:009,85
15/05/2020 14:0010,00
15/05/2020 15:009,70
15/05/2020 16:0010,10
15/05/2020 17:0010,75
15/05/2020 18:0011,65
15/05/2020 19:009,95
15/05/2020 20:008,85
15/05/2020 21:007,60
15/05/2020 22:007,20
15/05/2020 23:007,15
16/05/2020 00:006,40
16/05/2020 01:004,75
16/05/2020 02:003,40
16/05/2020 03:002,40
16/05/2020 04:002,30
16/05/2020 05:002,30
16/05/2020 06:002,00
16/05/2020 07:003,00
16/05/2020 08:004,60
16/05/2020 09:009,05
16/05/2020 10:0010,20
16/05/2020 11:0011,85
16/05/2020 12:0012,80
16/05/2020 13:0012,45
16/05/2020 14:0012,65
16/05/2020 15:0012,85
16/05/2020 16:0014,10
16/05/2020 17:0014,15
16/05/2020 18:0013,35
16/05/2020 19:0012,65
16/05/2020 20:0011,90
16/05/2020 21:008,65
16/05/2020 22:006,40
16/05/2020 23:004,65
17/05/2020 00:003,10
17/05/2020 01:002,55
17/05/2020 02:001,30
17/05/2020 03:001,60
17/05/2020 04:001,50
17/05/2020 05:000,10
17/05/2020 06:00-0,20
17/05/2020 07:000,25
17/05/2020 08:003,20
17/05/2020 09:006,45
17/05/2020 10:0010,00
17/05/2020 11:0012,35
17/05/2020 12:0015,00
17/05/2020 13:0016,45
17/05/2020 14:0017,20
17/05/2020 15:0018,25
17/05/2020 16:0019,05
17/05/2020 17:0019,00
17/05/2020 18:0019,25
17/05/2020 19:0018,00
17/05/2020 20:0016,60
17/05/2020 21:0013,25
17/05/2020 22:0010,30
17/05/2020 23:007,95
18/05/2020 00:005,95
18/05/2020 01:004,55
18/05/2020 02:003,80
18/05/2020 03:003,10
18/05/2020 04:002,30
18/05/2020 05:001,90
18/05/2020 06:001,40
18/05/2020 07:001,50
18/05/2020 08:005,25
18/05/2020 09:009,40
18/05/2020 10:0013,80
18/05/2020 11:0016,30
18/05/2020 12:0018,40
18/05/2020 13:0020,85
18/05/2020 14:0021,80
18/05/2020 15:0021,30
18/05/2020 16:0021,85
18/05/2020 17:0021,95
18/05/2020 18:0022,40
18/05/2020 19:0020,70
18/05/2020 20:0019,20
18/05/2020 21:0015,50
18/05/2020 22:0011,90
18/05/2020 23:009,20
19/05/2020 00:007,65
19/05/2020 01:006,55
19/05/2020 02:005,65
19/05/2020 03:004,85
19/05/2020 04:004,75
19/05/2020 05:004,45
19/05/2020 06:004,30
19/05/2020 07:004,85
19/05/2020 08:007,15
19/05/2020 09:009,45
19/05/2020 10:0013,20
19/05/2020 11:0016,40
19/05/2020 12:0018,90
19/05/2020 13:0021,10
19/05/2020 14:0022,60
19/05/2020 15:0023,25
19/05/2020 16:0023,25
19/05/2020 17:0023,35
19/05/2020 18:0023,40
19/05/2020 19:0022,45
19/05/2020 20:0021,15
19/05/2020 21:0016,45
19/05/2020 22:0012,35
19/05/2020 23:0010,20
20/05/2020 00:008,55
20/05/2020 01:007,15
20/05/2020 02:006,40
20/05/2020 03:006,35
20/05/2020 04:005,05
20/05/2020 05:004,60
20/05/2020 06:003,60
20/05/2020 07:003,90
20/05/2020 08:008,20
20/05/2020 09:0013,00
20/05/2020 10:0017,90
20/05/2020 11:0021,35
20/05/2020 12:0022,40
20/05/2020 13:0024,00
20/05/2020 14:0025,20
20/05/2020 15:0025,80
20/05/2020 16:0025,75
20/05/2020 17:0025,45
20/05/2020 18:0024,85
20/05/2020 19:0024,30
20/05/2020 20:0022,20
20/05/2020 21:0018,20
20/05/2020 22:0012,85
20/05/2020 23:0010,30
21/05/2020 00:008,90
21/05/2020 01:007,85
21/05/2020 02:006,80
21/05/2020 03:006,10
21/05/2020 04:005,70
21/05/2020 05:005,30
21/05/2020 06:005,20
21/05/2020 07:005,30
21/05/2020 08:009,10
21/05/2020 09:0013,00
21/05/2020 10:0017,75
21/05/2020 11:0020,40
21/05/2020 12:0023,15
21/05/2020 13:0024,90
21/05/2020 14:0026,05
21/05/2020 15:0026,75
21/05/2020 16:0027,40
21/05/2020 17:0027,25
21/05/2020 18:0027,50
21/05/2020 19:0027,05
21/05/2020 20:0026,00
21/05/2020 21:0019,30
21/05/2020 22:0014,20
21/05/2020 23:0012,85
22/05/2020 00:0011,25
22/05/2020 01:0010,30
22/05/2020 02:009,85
22/05/2020 03:009,70
22/05/2020 04:009,30
22/05/2020 05:008,65
22/05/2020 06:008,20
22/05/2020 07:008,10
22/05/2020 08:0010,45
22/05/2020 09:0014,45
22/05/2020 10:0018,50
22/05/2020 11:0020,75
22/05/2020 12:0023,00
22/05/2020 13:0024,95
22/05/2020 14:0025,55
22/05/2020 15:0026,95
22/05/2020 16:0027,15
22/05/2020 17:0027,50
22/05/2020 18:0027,10
22/05/2020 19:0027,00
22/05/2020 20:0020,05
22/05/2020 21:0016,25
22/05/2020 22:0013,15
22/05/2020 23:0012,25
23/05/2020 00:0011,35
23/05/2020 01:0011,30
23/05/2020 02:0011,30
23/05/2020 03:0011,10
23/05/2020 04:0010,55
23/05/2020 05:0010,45
23/05/2020 06:0010,10
23/05/2020 07:0010,55
23/05/2020 08:0011,00
23/05/2020 09:0012,15
23/05/2020 10:0013,50
23/05/2020 11:0014,40
23/05/2020 12:0014,75
23/05/2020 13:0015,80
23/05/2020 14:0015,80
23/05/2020 15:0016,25
23/05/2020 16:0015,35
23/05/2020 17:0016,30
23/05/2020 18:0015,95
23/05/2020 19:0014,35
23/05/2020 20:0011,80
23/05/2020 21:0010,25
23/05/2020 22:009,10
23/05/2020 23:007,90
24/05/2020 00:006,65
24/05/2020 01:005,80
24/05/2020 02:005,50
24/05/2020 03:005,40
24/05/2020 04:005,10
24/05/2020 05:005,20
24/05/2020 06:004,90
24/05/2020 07:004,25
24/05/2020 08:005,90
24/05/2020 09:008,95
24/05/2020 10:0012,50
24/05/2020 11:0013,95
24/05/2020 12:0016,50
24/05/2020 13:0018,25
24/05/2020 14:0019,45
24/05/2020 15:0020,40
24/05/2020 16:0020,60
24/05/2020 17:0020,45
24/05/2020 18:0019,05
24/05/2020 19:0016,35
24/05/2020 20:0014,55
24/05/2020 21:0014,10
24/05/2020 22:0012,05
24/05/2020 23:0010,95
25/05/2020 00:009,90
25/05/2020 01:007,90
25/05/2020 02:006,80
25/05/2020 03:006,20
25/05/2020 04:007,15
25/05/2020 05:005,85
25/05/2020 06:004,40
25/05/2020 07:004,45
25/05/2020 08:007,15
25/05/2020 09:0011,10
25/05/2020 10:0015,25
25/05/2020 11:0017,20
25/05/2020 12:0019,35
25/05/2020 13:0021,40
25/05/2020 14:0021,90
25/05/2020 15:0021,80
25/05/2020 16:0021,20
25/05/2020 17:0020,35
25/05/2020 18:0021,00
25/05/2020 19:0020,80
25/05/2020 20:0016,60
25/05/2020 21:0014,50
25/05/2020 22:0012,15
25/05/2020 23:0010,35
26/05/2020 00:009,15
26/05/2020 01:009,20
26/05/2020 02:007,10
26/05/2020 03:006,45
26/05/2020 04:005,75
26/05/2020 05:005,10
26/05/2020 06:005,65
26/05/2020 07:006,55
26/05/2020 08:0010,05
26/05/2020 09:0014,60
26/05/2020 10:0017,60
26/05/2020 11:0018,75
26/05/2020 12:0019,75
26/05/2020 13:0020,80
26/05/2020 14:0021,50
26/05/2020 15:0022,00
26/05/2020 16:0022,30
26/05/2020 17:0022,00
26/05/2020 18:0021,05
26/05/2020 19:0020,70
26/05/2020 20:0019,15
26/05/2020 21:0016,85
26/05/2020 22:0014,00
26/05/2020 23:0010,70
27/05/2020 00:008,85
27/05/2020 01:008,20
27/05/2020 02:007,35
27/05/2020 03:006,50
27/05/2020 04:006,20
27/05/2020 05:006,60
27/05/2020 06:005,75
27/05/2020 07:006,55
27/05/2020 08:008,85
27/05/2020 09:0013,05
27/05/2020 10:0017,80
27/05/2020 11:0020,40
27/05/2020 12:0021,75
27/05/2020 13:0022,70
27/05/2020 14:0024,00
27/05/2020 15:0024,95
27/05/2020 16:0025,55
27/05/2020 17:0025,30
27/05/2020 18:0025,75
27/05/2020 19:0025,35
27/05/2020 20:0024,40
27/05/2020 21:0020,75
27/05/2020 22:0016,50
27/05/2020 23:0014,60
28/05/2020 00:0012,90
28/05/2020 01:0011,65
28/05/2020 02:0011,50
28/05/2020 03:0011,00
28/05/2020 04:0010,40
28/05/2020 05:0010,90
28/05/2020 06:009,80
28/05/2020 07:009,95
28/05/2020 08:0012,85
28/05/2020 09:0016,65
28/05/2020 10:0020,15
28/05/2020 11:0021,95
28/05/2020 12:0023,95
28/05/2020 13:0025,00
28/05/2020 14:0025,85
28/05/2020 15:0026,25
28/05/2020 16:0026,10
28/05/2020 17:0026,65
28/05/2020 18:0025,60
28/05/2020 19:0024,20
28/05/2020 20:0024,95
28/05/2020 21:0020,30
28/05/2020 22:0016,45
28/05/2020 23:0014,20
29/05/2020 00:0012,65
29/05/2020 01:0011,95
29/05/2020 02:0010,95
29/05/2020 03:0010,05
29/05/2020 04:009,25
29/05/2020 05:008,50
29/05/2020 06:008,15
29/05/2020 07:008,45
29/05/2020 08:0012,05
29/05/2020 09:0016,15
29/05/2020 10:0020,45
29/05/2020 11:0022,45
29/05/2020 12:0024,30
29/05/2020 13:0025,00
29/05/2020 14:0025,10
29/05/2020 15:0026,20
29/05/2020 16:0025,95
29/05/2020 17:0025,80
29/05/2020 18:0025,85
29/05/2020 19:0024,90
29/05/2020 20:0022,45
29/05/2020 21:0019,55
29/05/2020 22:0016,05
29/05/2020 23:0013,00
30/05/2020 01:008,80
30/05/2020 02:007,60
30/05/2020 03:006,90
30/05/2020 04:006,40
30/05/2020 05:005,55
30/05/2020 06:005,45
30/05/2020 07:005,90
30/05/2020 08:009,75
30/05/2020 09:0014,20
30/05/2020 10:0017,95
30/05/2020 11:0020,55
30/05/2020 12:0022,55
30/05/2020 13:0024,45
30/05/2020 14:0025,95
30/05/2020 15:0027,25
30/05/2020 16:0027,60
30/05/2020 17:0027,30
30/05/2020 18:0027,20
30/05/2020 19:0026,20
30/05/2020 20:0023,00
30/05/2020 21:0019,85
30/05/2020 22:0017,65
30/05/2020 23:0014,75
31/05/2020 00:0014,25
31/05/2020 01:0013,35
31/05/2020 02:0012,75
31/05/2020 03:0011,70
31/05/2020 04:0011,90
31/05/2020 05:0011,25
31/05/2020 06:0010,85
31/05/2020 07:0011,30
31/05/2020 08:0014,10
31/05/2020 09:0014,25
31/05/2020 10:0016,05
31/05/2020 11:0019,95
31/05/2020 12:0021,70
31/05/2020 13:0019,60
31/05/2020 14:0021,70
31/05/2020 15:0023,40
31/05/2020 16:0024,65
31/05/2020 17:0025,50
31/05/2020 18:0023,30
31/05/2020 19:0021,60
31/05/2020 20:0020,00
31/05/2020 21:0018,70
31/05/2020 22:0017,95
31/05/2020 23:0017,00
01/06/2020 00:0015,40
01/06/2020 01:0014,95
01/06/2020 02:0014,30
01/06/2020 03:0012,10
01/06/2020 04:0012,10
01/06/2020 05:0012,00
01/06/2020 06:0012,20
01/06/2020 07:0011,95
01/06/2020 08:0012,95
01/06/2020 09:0013,60
01/06/2020 10:0017,65
01/06/2020 11:0020,45
01/06/2020 12:0022,70
01/06/2020 13:0023,50
01/06/2020 14:0024,50
01/06/2020 15:0024,90
01/06/2020 16:0025,55
01/06/2020 17:0024,15
01/06/2020 18:0022,20
01/06/2020 19:0018,20
01/06/2020 20:0017,50
01/06/2020 21:0016,25
01/06/2020 22:0014,75
01/06/2020 23:0013,40
02/06/2020 00:0012,45
02/06/2020 01:0011,70
02/06/2020 02:0010,90
02/06/2020 03:0010,20
02/06/2020 04:0010,60
02/06/2020 05:0010,50
02/06/2020 06:009,90
02/06/2020 07:0010,70
02/06/2020 08:0012,80
02/06/2020 09:0016,90
02/06/2020 10:0019,05
02/06/2020 11:0020,10
02/06/2020 12:0021,30
02/06/2020 13:0022,75
02/06/2020 14:0023,65
02/06/2020 15:0024,20
02/06/2020 16:0024,25
02/06/2020 18:0022,25
02/06/2020 19:0019,20
02/06/2020 20:0016,80
02/06/2020 21:0016,75
02/06/2020 22:0016,30
02/06/2020 23:0015,70
03/06/2020 01:0014,05
03/06/2020 02:0013,15
03/06/2020 03:0012,15
03/06/2020 04:0011,85
03/06/2020 05:0011,15
03/06/2020 06:0010,50
03/06/2020 07:0010,55
03/06/2020 08:0011,65
03/06/2020 09:0014,90
03/06/2020 10:0017,35
03/06/2020 11:0018,90
03/06/2020 12:0019,65
03/06/2020 13:0019,25
03/06/2020 14:0010,65
03/06/2020 15:0010,90
03/06/2020 16:0012,45
03/06/2020 18:0017,15
03/06/2020 19:0016,60
03/06/2020 20:0015,80
03/06/2020 21:0014,55
03/06/2020 22:0011,70
03/06/2020 23:009,90
04/06/2020 00:008,95
04/06/2020 01:007,80
04/06/2020 02:007,35
04/06/2020 03:005,70
04/06/2020 04:005,40
04/06/2020 05:005,00
04/06/2020 06:004,65
04/06/2020 07:004,90
04/06/2020 08:006,95
04/06/2020 09:009,50
04/06/2020 10:0011,15
04/06/2020 11:0011,40
04/06/2020 12:0012,80
04/06/2020 13:0014,45
04/06/2020 14:0013,55
04/06/2020 15:0013,25
04/06/2020 17:0013,30
04/06/2020 18:0012,45
04/06/2020 19:0011,70
04/06/2020 20:0011,10
04/06/2020 21:0010,35
04/06/2020 22:0010,10
04/06/2020 23:009,30
05/06/2020 00:007,70
05/06/2020 01:006,65
05/06/2020 02:006,20
05/06/2020 03:005,65
05/06/2020 04:005,00
05/06/2020 05:004,45
05/06/2020 06:004,15
05/06/2020 07:004,70
05/06/2020 08:006,80
05/06/2020 09:009,30
05/06/2020 10:0011,65
05/06/2020 11:0013,65
05/06/2020 12:0015,65
05/06/2020 13:0017,70
05/06/2020 14:0020,00
05/06/2020 15:0021,55
05/06/2020 16:0022,10
05/06/2020 17:0022,95
05/06/2020 18:0022,05
05/06/2020 19:0022,10
05/06/2020 20:0020,70
05/06/2020 21:0017,05
05/06/2020 22:0013,70
05/06/2020 23:0012,80
06/06/2020 00:0012,40
06/06/2020 01:0011,95
06/06/2020 02:0011,20
06/06/2020 03:0010,40
06/06/2020 04:0010,30
06/06/2020 05:0010,00
06/06/2020 06:009,45
06/06/2020 07:009,35
06/06/2020 08:009,75
06/06/2020 09:0010,30
06/06/2020 10:0011,20
06/06/2020 11:0013,30
06/06/2020 12:0015,00
06/06/2020 13:0017,25
06/06/2020 14:0017,90
06/06/2020 15:0017,50
06/06/2020 16:0013,50
06/06/2020 17:0012,70
06/06/2020 18:0012,40
06/06/2020 19:0011,60
06/06/2020 20:0011,80
06/06/2020 21:0011,55
06/06/2020 22:0011,40
06/06/2020 23:0010,85
07/06/2020 00:0010,10
07/06/2020 01:009,30
07/06/2020 02:009,70
07/06/2020 03:009,40
07/06/2020 04:008,80
07/06/2020 05:008,70
07/06/2020 06:007,65
07/06/2020 07:007,50
07/06/2020 08:007,60
07/06/2020 09:008,00
07/06/2020 10:008,85
07/06/2020 11:008,85
07/06/2020 12:008,65
07/06/2020 13:008,40
07/06/2020 14:009,70
07/06/2020 15:0010,75
07/06/2020 16:0012,30
07/06/2020 17:0012,50
07/06/2020 18:0012,50
07/06/2020 19:0011,10
07/06/2020 20:0010,40
07/06/2020 21:008,75
07/06/2020 22:007,35
07/06/2020 23:006,35
08/06/2020 00:005,45
08/06/2020 01:004,15
08/06/2020 02:002,95
08/06/2020 03:002,10
08/06/2020 04:001,70
08/06/2020 05:001,30
08/06/2020 06:000,90
08/06/2020 07:001,85
08/06/2020 08:004,10
08/06/2020 09:008,80
08/06/2020 10:009,85
08/06/2020 11:0011,55
08/06/2020 12:0013,00
08/06/2020 13:0013,70
08/06/2020 14:0014,30
08/06/2020 15:0013,95
08/06/2020 16:0014,85
08/06/2020 17:0014,40
08/06/2020 18:0013,40
08/06/2020 19:0012,55
08/06/2020 20:0011,55
08/06/2020 21:009,45
08/06/2020 22:008,80
08/06/2020 23:008,30
09/06/2020 00:008,10
09/06/2020 01:007,50
09/06/2020 02:007,20
09/06/2020 03:005,10
09/06/2020 04:004,15
09/06/2020 05:003,20
09/06/2020 06:002,70
09/06/2020 07:002,95
09/06/2020 08:005,75
09/06/2020 09:007,85
09/06/2020 10:009,60
09/06/2020 11:0011,35
09/06/2020 12:0011,95
09/06/2020 13:0012,25
09/06/2020 14:0013,70
09/06/2020 15:0013,70
09/06/2020 16:0014,25
09/06/2020 17:0013,40
09/06/2020 18:0012,55
09/06/2020 19:0013,15
09/06/2020 20:0013,70
09/06/2020 21:0010,70
09/06/2020 22:008,85
09/06/2020 23:008,20
10/06/2020 00:007,85
10/06/2020 01:007,20
10/06/2020 02:005,75
10/06/2020 03:004,20
10/06/2020 04:003,35
10/06/2020 05:002,75
10/06/2020 06:002,40
10/06/2020 07:003,05
10/06/2020 08:005,05
10/06/2020 09:007,65
10/06/2020 10:0010,50
10/06/2020 11:0012,90
10/06/2020 12:0014,55
10/06/2020 13:0014,95
10/06/2020 14:0016,40
10/06/2020 15:0016,50
10/06/2020 16:0017,00
10/06/2020 17:0016,40
10/06/2020 18:0015,40
10/06/2020 19:0014,40
10/06/2020 20:0013,20
10/06/2020 21:0012,00
10/06/2020 22:0010,70
10/06/2020 23:0010,30
11/06/2020 00:009,65
11/06/2020 01:009,35
11/06/2020 02:009,05
11/06/2020 03:008,90
11/06/2020 04:008,90
11/06/2020 05:009,05
11/06/2020 06:009,10
11/06/2020 07:009,60
11/06/2020 08:0010,80
11/06/2020 09:0012,10
11/06/2020 10:0014,65
11/06/2020 11:0014,50
11/06/2020 12:0016,55
11/06/2020 13:0015,85
11/06/2020 14:0012,70
11/06/2020 15:0014,05
11/06/2020 16:0016,30
11/06/2020 17:0015,90
11/06/2020 18:0016,95
11/06/2020 19:0015,10
11/06/2020 20:0011,95
11/06/2020 21:009,65
11/06/2020 22:007,85
11/06/2020 23:007,75
12/06/2020 00:007,50
12/06/2020 01:007,70
12/06/2020 02:007,80
12/06/2020 03:007,05
12/06/2020 04:006,50
12/06/2020 05:006,55
12/06/2020 06:006,80
12/06/2020 07:007,00
12/06/2020 08:007,45
12/06/2020 09:008,50
12/06/2020 10:009,60
12/06/2020 11:009,90
12/06/2020 12:0011,85
12/06/2020 13:0012,10
12/06/2020 14:0010,95
12/06/2020 15:009,60
12/06/2020 16:009,85
12/06/2020 17:0012,80
12/06/2020 18:0013,15
12/06/2020 19:0010,50
12/06/2020 20:0011,15
12/06/2020 21:0010,55
12/06/2020 22:009,10
12/06/2020 23:009,00
13/06/2020 00:008,80
13/06/2020 01:008,80
13/06/2020 02:008,55
13/06/2020 03:008,30
13/06/2020 04:008,30
13/06/2020 05:008,00
13/06/2020 06:008,00
13/06/2020 07:008,25
13/06/2020 08:008,90
13/06/2020 09:009,50
13/06/2020 10:0011,35
13/06/2020 11:0012,40
13/06/2020 12:0012,95
13/06/2020 13:0013,50
13/06/2020 14:0013,90
13/06/2020 15:0014,15
13/06/2020 16:0014,40
13/06/2020 17:0014,10
13/06/2020 18:0013,85
13/06/2020 19:0013,30
13/06/2020 20:0014,05
13/06/2020 21:0012,65
13/06/2020 22:0010,40
13/06/2020 23:008,55
14/06/2020 00:006,75
14/06/2020 01:005,55
14/06/2020 02:004,50
14/06/2020 03:004,15
14/06/2020 04:004,75
14/06/2020 05:005,60
14/06/2020 06:005,90
14/06/2020 07:006,15
14/06/2020 08:006,75
14/06/2020 09:008,05
14/06/2020 10:0011,30
14/06/2020 11:0013,05
14/06/2020 12:0014,50
14/06/2020 13:0015,30
14/06/2020 14:0016,10
14/06/2020 15:0015,85
14/06/2020 16:0016,60
14/06/2020 17:0016,50
14/06/2020 18:0016,20
14/06/2020 19:0015,70
14/06/2020 20:0015,75
14/06/2020 21:0012,50
14/06/2020 22:0011,25
14/06/2020 23:0010,60
15/06/2020 00:0010,10
15/06/2020 01:0010,30
15/06/2020 02:0010,00
15/06/2020 03:009,50
15/06/2020 04:008,70
15/06/2020 05:008,85
15/06/2020 06:007,25
15/06/2020 07:007,20
15/06/2020 08:008,70
15/06/2020 09:0010,55
15/06/2020 10:0012,20
15/06/2020 11:0014,40
15/06/2020 12:0015,65
15/06/2020 13:0016,05
15/06/2020 14:0016,75
15/06/2020 15:0017,35
15/06/2020 16:0017,30
15/06/2020 17:0017,50
15/06/2020 18:0015,85
15/06/2020 19:0015,80
15/06/2020 20:0014,75
15/06/2020 21:0012,90
15/06/2020 22:0011,35
15/06/2020 23:0010,40
16/06/2020 00:009,45
16/06/2020 01:008,00
16/06/2020 02:008,25
16/06/2020 03:008,75
16/06/2020 04:008,85
16/06/2020 05:008,90
16/06/2020 06:008,95
16/06/2020 07:009,30
16/06/2020 08:0010,25
16/06/2020 09:0011,90
16/06/2020 10:0012,30
16/06/2020 11:0014,25
16/06/2020 12:0014,30
16/06/2020 13:0015,90
16/06/2020 14:0016,40
16/06/2020 15:0015,95
16/06/2020 16:0013,55
16/06/2020 17:0015,95
16/06/2020 18:0016,35
16/06/2020 19:0016,80
16/06/2020 20:0015,45
16/06/2020 21:0011,45
16/06/2020 22:0010,00
16/06/2020 23:009,85
17/06/2020 00:009,90
17/06/2020 01:009,70
17/06/2020 02:009,50
17/06/2020 03:009,35
17/06/2020 04:009,20
17/06/2020 05:008,90
17/06/2020 06:008,90
17/06/2020 07:008,80
17/06/2020 08:009,40
17/06/2020 09:0010,40
17/06/2020 10:0012,05
17/06/2020 11:0012,45
17/06/2020 12:0014,15
17/06/2020 13:0014,25
17/06/2020 14:0013,00
17/06/2020 15:0014,30
17/06/2020 16:0014,60
17/06/2020 17:0015,20
17/06/2020 18:0014,80
17/06/2020 19:0012,60
17/06/2020 20:0011,05
17/06/2020 21:0010,45
17/06/2020 22:009,85
17/06/2020 23:009,60
18/06/2020 00:009,00
18/06/2020 01:008,90
18/06/2020 02:008,75
18/06/2020 03:008,70
18/06/2020 04:008,70
18/06/2020 05:008,60
18/06/2020 06:007,85
18/06/2020 07:007,80
18/06/2020 08:008,90
18/06/2020 09:0010,35
18/06/2020 10:0011,05
18/06/2020 11:0011,90
18/06/2020 12:0014,00
18/06/2020 13:0015,50
18/06/2020 14:0015,70
18/06/2020 15:0015,30
18/06/2020 16:0015,50
18/06/2020 17:0017,40
18/06/2020 18:0017,00
18/06/2020 19:0016,80
18/06/2020 20:0016,10
18/06/2020 21:0012,70
18/06/2020 22:0010,70
18/06/2020 23:009,35
19/06/2020 00:008,25
19/06/2020 01:007,00
19/06/2020 02:006,20
19/06/2020 03:006,30
19/06/2020 04:005,75
19/06/2020 05:005,15
19/06/2020 06:004,30
19/06/2020 07:004,50
19/06/2020 08:007,40
19/06/2020 09:009,45
19/06/2020 10:0012,15
19/06/2020 11:0014,95
19/06/2020 12:0017,15
19/06/2020 13:0019,00
19/06/2020 14:0019,90
19/06/2020 15:0021,65
19/06/2020 16:0022,50
19/06/2020 17:0023,60
19/06/2020 18:0022,10
19/06/2020 19:0020,70
19/06/2020 20:0017,90
19/06/2020 21:0013,95
19/06/2020 22:0011,95
19/06/2020 23:0011,50
20/06/2020 00:009,90
20/06/2020 01:008,75
20/06/2020 02:008,00
20/06/2020 03:007,00
20/06/2020 04:006,45
20/06/2020 05:005,80
20/06/2020 06:005,40
20/06/2020 07:006,00
20/06/2020 08:007,90
20/06/2020 09:0011,65
20/06/2020 10:0015,75
20/06/2020 11:0018,20
20/06/2020 12:0020,90
20/06/2020 13:0022,40
20/06/2020 14:0023,75
20/06/2020 15:0024,60
20/06/2020 16:0025,00
20/06/2020 17:0025,75
20/06/2020 18:0026,15
20/06/2020 19:0026,25
20/06/2020 20:0024,70
20/06/2020 21:0019,35
20/06/2020 22:0015,55
20/06/2020 23:0013,85
21/06/2020 00:0012,65
21/06/2020 01:0011,10
21/06/2020 02:0010,00
21/06/2020 03:009,15
21/06/2020 04:008,80
21/06/2020 05:008,20
21/06/2020 06:008,05
21/06/2020 07:008,90
21/06/2020 08:0011,60
21/06/2020 09:0014,55
21/06/2020 10:0017,70
21/06/2020 11:0019,60
21/06/2020 12:0020,75
21/06/2020 13:0021,95
21/06/2020 14:0023,10
21/06/2020 15:0024,25
21/06/2020 16:0024,35
21/06/2020 17:0024,10
21/06/2020 18:0023,45
21/06/2020 19:0021,95
21/06/2020 20:0020,10
21/06/2020 21:0017,25
21/06/2020 22:0014,80
21/06/2020 23:00